[[{"header":{"parameterUnit":"m.s-1","parameterCategory":1,"la1":30.6,"la2":29.2853,"lo1":-89.7004,"lo2":-87.6739,"dy":0.0162,"dx":0.0183,"nx":112,"ny":82,"refTime":"2023-02-26T06:00:00:Z","depth":0,"parameterNumber":2,"parameterNumberName":"U-component_of_WINDS"},"data":[0.0,0.0,0.0,0.0,0.0,0.0,0.0,0.0,0.0,0.0,0.0,0.0,0.0,0.0,0.0,0.0,0.0,0.0,0.0,0.0,0.0,0.0,0.0,0.0,0.0,0.0,0.0,0.0,0.0,0.0,0.0,0.0,0.0,0.0,0.0,0.0,0.0,0.0,0.0,0.0,0.0,0.0,0.0,0.0,0.0,0.0,0.0,0.0,0.0,0.0,0.0,0.0,0.0,0.0,0.0,0.0,0.0,0.0,0.0,0.0,0.0,0.0,0.0,0.0,0.0,0.0,0.0,0.0,0.0,0.0,0.0,0.0,0.0,0.0,0.0,0.0,0.0,0.0,0.0,0.0,0.0,0.0,0.0,0.0,0.0,0.0,0.0,0.0,0.0,0.0,-4.3847,-4.5214,-4.8526,-5.0899,-5.1618,-5.0298,-4.8028,-4.4707,0.0,0.0,0.0,0.0,0.0,0.0,0.0,0.0,0.0,0.0,0.0,0.0,0.0,0.0,0.0,0.0,0.0,0.0,0.0,0.0,0.0,0.0,0.0,0.0,0.0,0.0,0.0,0.0,0.0,0.0,0.0,0.0,0.0,0.0,0.0,0.0,0.0,0.0,0.0,0.0,0.0,0.0,0.0,0.0,0.0,0.0,0.0,0.0,0.0,0.0,0.0,0.0,0.0,0.0,0.0,0.0,0.0,0.0,0.0,0.0,0.0,0.0,0.0,0.0,0.0,0.0,0.0,0.0,0.0,0.0,0.0,0.0,0.0,0.0,0.0,0.0,0.0,0.0,0.0,0.0,0.0,0.0,0.0,0.0,0.0,0.0,0.0,0.0,0.0,0.0,0.0,0.0,0.0,0.0,0.0,0.0,0.0,0.0,0.0,0.0,0.0,0.0,0.0,0.0,-4.2986,-4.6633,-4.8132,-4.889,-4.8916,-4.7397,-4.5647,-4.3724,0.0,0.0,0.0,0.0,0.0,0.0,0.0,0.0,0.0,0.0,0.0,0.0,0.0,0.0,0.0,0.0,0.0,0.0,0.0,0.0,0.0,0.0,0.0,0.0,0.0,0.0,0.0,0.0,0.0,0.0,0.0,0.0,0.0,0.0,0.0,0.0,0.0,0.0,0.0,0.0,0.0,0.0,0.0,0.0,0.0,0.0,0.0,0.0,0.0,0.0,0.0,0.0,0.0,0.0,0.0,0.0,0.0,0.0,0.0,0.0,0.0,0.0,0.0,0.0,0.0,0.0,0.0,0.0,0.0,0.0,0.0,0.0,0.0,0.0,0.0,0.0,0.0,0.0,0.0,0.0,0.0,0.0,0.0,0.0,0.0,0.0,0.0,0.0,0.0,0.0,0.0,0.0,0.0,0.0,0.0,0.0,0.0,0.0,0.0,0.0,0.0,0.0,0.0,-4.2502,-4.3769,-4.7049,-4.7566,-4.7856,-4.8269,-4.6748,-4.5109,-4.3504,-4.1517,0.0,0.0,0.0,0.0,0.0,0.0,0.0,0.0,0.0,0.0,0.0,0.0,0.0,0.0,0.0,0.0,0.0,0.0,0.0,0.0,0.0,0.0,0.0,0.0,0.0,0.0,0.0,0.0,0.0,0.0,0.0,0.0,0.0,0.0,0.0,0.0,0.0,0.0,0.0,0.0,0.0,0.0,0.0,0.0,0.0,0.0,0.0,0.0,0.0,0.0,0.0,0.0,0.0,0.0,0.0,0.0,0.0,0.0,0.0,0.0,0.0,0.0,0.0,0.0,0.0,0.0,0.0,0.0,0.0,0.0,0.0,0.0,0.0,0.0,0.0,0.0,0.0,0.0,0.0,0.0,0.0,0.0,0.0,0.0,0.0,0.0,0.0,0.0,0.0,0.0,0.0,0.0,0.0,0.0,0.0,0.0,0.0,0.0,0.0,0.0,0.0,0.0,-4.4085,-4.4886,-4.6823,-4.6832,-4.6936,-4.75,-4.6099,-4.4516,-4.2897,-4.0595,0.0,0.0,0.0,0.0,0.0,0.0,0.0,0.0,0.0,0.0,0.0,0.0,0.0,0.0,0.0,0.0,0.0,0.0,0.0,0.0,0.0,0.0,0.0,0.0,0.0,0.0,0.0,0.0,0.0,0.0,0.0,0.0,0.0,0.0,0.0,0.0,0.0,0.0,0.0,0.0,0.0,0.0,0.0,0.0,0.0,0.0,0.0,0.0,0.0,0.0,0.0,0.0,0.0,0.0,0.0,0.0,0.0,0.0,0.0,0.0,0.0,0.0,0.0,0.0,0.0,0.0,0.0,0.0,0.0,0.0,0.0,0.0,0.0,0.0,0.0,0.0,0.0,0.0,0.0,0.0,0.0,0.0,0.0,0.0,0.0,0.0,0.0,0.0,0.0,0.0,0.0,0.0,0.0,0.0,0.0,0.0,0.0,0.0,0.0,0.0,0.0,0.0,-4.3814,-4.577,-4.5892,-4.5893,-4.5731,-4.5356,-4.4192,-4.2779,-4.1185,-3.9446,0.0,0.0,0.0,0.0,0.0,0.0,0.0,0.0,0.0,0.0,0.0,0.0,0.0,0.0,0.0,0.0,0.0,0.0,0.0,0.0,0.0,0.0,0.0,0.0,0.0,0.0,0.0,0.0,0.0,0.0,0.0,0.0,0.0,0.0,0.0,0.0,0.0,0.0,0.0,0.0,0.0,0.0,0.0,0.0,0.0,0.0,0.0,0.0,0.0,0.0,0.0,0.0,0.0,0.0,0.0,0.0,0.0,0.0,0.0,0.0,0.0,0.0,0.0,0.0,0.0,0.0,0.0,0.0,0.0,0.0,0.0,0.0,0.0,0.0,0.0,0.0,0.0,0.0,0.0,0.0,0.0,0.0,0.0,0.0,0.0,0.0,0.0,0.0,0.0,0.0,0.0,0.0,0.0,0.0,0.0,0.0,0.0,0.0,0.0,0.0,0.0,0.0,-4.3146,-4.4624,-4.5693,-4.5536,-4.5285,-4.5118,-4.3813,-4.2402,-4.0983,0.0,0.0,0.0,0.0,0.0,0.0,0.0,0.0,0.0,0.0,0.0,0.0,0.0,0.0,0.0,0.0,0.0,0.0,0.0,0.0,0.0,0.0,0.0,0.0,0.0,0.0,0.0,0.0,0.0,0.0,0.0,0.0,0.0,0.0,0.0,0.0,0.0,0.0,0.0,0.0,0.0,0.0,0.0,0.0,0.0,0.0,0.0,0.0,0.0,0.0,0.0,0.0,0.0,0.0,0.0,0.0,0.0,0.0,0.0,0.0,0.0,0.0,0.0,0.0,0.0,0.0,0.0,0.0,0.0,0.0,0.0,0.0,0.0,0.0,0.0,0.0,0.0,0.0,0.0,0.0,0.0,0.0,0.0,0.0,0.0,0.0,0.0,0.0,0.0,0.0,0.0,0.0,0.0,0.0,0.0,0.0,0.0,0.0,0.0,0.0,0.0,0.0,-4.0939,-4.2356,-4.3571,-4.4673,-4.449,-4.4211,-4.4009,-4.2562,-4.1174,-4.0024,0.0,0.0,0.0,0.0,0.0,0.0,0.0,0.0,0.0,0.0,0.0,0.0,0.0,0.0,0.0,0.0,0.0,0.0,0.0,0.0,0.0,0.0,0.0,0.0,0.0,0.0,0.0,0.0,0.0,0.0,0.0,0.0,0.0,0.0,0.0,0.0,0.0,0.0,0.0,0.0,0.0,0.0,0.0,0.0,0.0,0.0,0.0,0.0,0.0,0.0,0.0,0.0,0.0,0.0,0.0,0.0,0.0,0.0,0.0,0.0,0.0,0.0,0.0,0.0,0.0,0.0,0.0,0.0,0.0,0.0,0.0,0.0,0.0,0.0,0.0,0.0,0.0,0.0,0.0,0.0,0.0,0.0,0.0,0.0,0.0,0.0,0.0,0.0,0.0,0.0,0.0,0.0,0.0,0.0,0.0,0.0,0.0,0.0,0.0,0.0,0.0,0.0,-3.9231,-4.1508,-4.2961,-4.264,-4.2581,-4.2318,-4.1656,-4.0122,-3.8835,0.0,0.0,0.0,0.0,0.0,0.0,0.0,0.0,0.0,0.0,0.0,0.0,0.0,0.0,0.0,0.0,0.0,0.0,0.0,0.0,0.0,0.0,0.0,0.0,0.0,0.0,0.0,0.0,0.0,0.0,0.0,0.0,0.0,0.0,0.0,0.0,0.0,0.0,0.0,0.0,0.0,0.0,0.0,0.0,0.0,0.0,0.0,0.0,0.0,0.0,0.0,0.0,0.0,0.0,0.0,0.0,0.0,0.0,0.0,0.0,0.0,0.0,0.0,0.0,0.0,0.0,0.0,0.0,0.0,0.0,0.0,0.0,0.0,0.0,0.0,0.0,0.0,0.0,0.0,0.0,0.0,0.0,0.0,0.0,0.0,0.0,0.0,0.0,0.0,0.0,0.0,0.0,0.0,0.0,0.0,0.0,0.0,0.0,0.0,0.0,0.0,0.0,0.0,-3.8885,-4.0652,-4.203,-4.2544,-4.2179,-4.1815,-4.1633,-3.9911,-3.8585,-3.7946,0.0,0.0,0.0,0.0,0.0,0.0,0.0,0.0,0.0,0.0,0.0,0.0,0.0,0.0,0.0,0.0,0.0,0.0,0.0,0.0,0.0,0.0,0.0,0.0,0.0,0.0,0.0,0.0,0.0,0.0,0.0,0.0,0.0,0.0,0.0,0.0,0.0,0.0,0.0,0.0,0.0,0.0,0.0,0.0,0.0,0.0,0.0,0.0,0.0,0.0,0.0,0.0,0.0,0.0,0.0,0.0,0.0,0.0,0.0,0.0,0.0,0.0,0.0,0.0,0.0,0.0,0.0,0.0,0.0,0.0,0.0,0.0,0.0,0.0,0.0,0.0,0.0,0.0,0.0,0.0,0.0,0.0,0.0,0.0,0.0,0.0,0.0,0.0,0.0,0.0,0.0,0.0,0.0,0.0,0.0,0.0,0.0,0.0,0.0,0.0,0.0,0.0,-3.805,-3.9049,-3.9939,-4.0654,-4.0077,-3.9611,-3.949,-3.8103,-3.6891,-3.6118,0.0,0.0,0.0,0.0,0.0,0.0,0.0,0.0,0.0,0.0,0.0,0.0,0.0,0.0,0.0,0.0,0.0,0.0,0.0,0.0,0.0,0.0,0.0,0.0,0.0,0.0,0.0,0.0,0.0,0.0,0.0,0.0,0.0,0.0,0.0,0.0,0.0,0.0,0.0,0.0,0.0,0.0,0.0,0.0,0.0,0.0,0.0,0.0,0.0,0.0,0.0,0.0,0.0,0.0,0.0,0.0,0.0,0.0,0.0,0.0,0.0,0.0,0.0,0.0,0.0,0.0,0.0,0.0,0.0,0.0,0.0,0.0,0.0,0.0,0.0,0.0,0.0,0.0,0.0,0.0,0.0,0.0,0.0,0.0,0.0,0.0,0.0,0.0,0.0,0.0,0.0,0.0,0.0,0.0,0.0,0.0,0.0,0.0,0.0,0.0,0.0,0.0,-3.6847,-3.7128,-3.7405,-3.7753,-3.7111,-3.6546,-3.6252,-3.5439,-3.4454,-3.3298,0.0,0.0,0.0,0.0,0.0,0.0,0.0,0.0,0.0,0.0,0.0,0.0,0.0,0.0,0.0,0.0,0.0,0.0,0.0,0.0,0.0,0.0,0.0,0.0,0.0,0.0,0.0,0.0,0.0,0.0,0.0,0.0,0.0,0.0,0.0,0.0,0.0,0.0,0.0,0.0,0.0,0.0,0.0,0.0,0.0,0.0,0.0,0.0,0.0,0.0,0.0,0.0,0.0,0.0,0.0,0.0,0.0,0.0,0.0,0.0,-3.8173,-3.7366,0.0,0.0,0.0,0.0,0.0,0.0,0.0,0.0,0.0,0.0,0.0,0.0,0.0,0.0,0.0,0.0,0.0,0.0,0.0,0.0,0.0,0.0,0.0,0.0,0.0,0.0,0.0,0.0,0.0,0.0,0.0,0.0,0.0,0.0,0.0,0.0,0.0,0.0,0.0,0.0,-3.589,-3.6963,-3.7542,-3.7,-3.6609,-3.6215,-3.5789,-3.4999,-3.4016,-3.2814,-3.1701,0.0,0.0,0.0,0.0,0.0,0.0,0.0,0.0,0.0,0.0,0.0,0.0,0.0,0.0,0.0,0.0,0.0,0.0,0.0,0.0,0.0,0.0,0.0,0.0,0.0,0.0,0.0,0.0,0.0,0.0,0.0,0.0,0.0,0.0,0.0,0.0,0.0,0.0,0.0,0.0,0.0,0.0,0.0,0.0,0.0,0.0,0.0,0.0,0.0,0.0,0.0,0.0,0.0,0.0,0.0,0.0,0.0,0.0,0.0,-3.9586,-3.8934,0.0,0.0,0.0,0.0,0.0,0.0,0.0,0.0,0.0,0.0,0.0,0.0,0.0,0.0,0.0,0.0,0.0,0.0,0.0,0.0,0.0,0.0,0.0,0.0,0.0,0.0,0.0,0.0,0.0,0.0,0.0,0.0,0.0,0.0,0.0,0.0,0.0,0.0,0.0,0.0,-3.5258,-3.5647,-3.5925,-3.5893,-3.5247,-3.4706,-3.4457,-3.3532,-3.2444,-3.1226,-3.0191,0.0,0.0,0.0,0.0,0.0,0.0,0.0,0.0,0.0,0.0,0.0,0.0,0.0,0.0,0.0,0.0,0.0,0.0,0.0,0.0,0.0,0.0,0.0,0.0,0.0,0.0,0.0,0.0,0.0,0.0,0.0,0.0,0.0,0.0,0.0,0.0,0.0,0.0,0.0,0.0,0.0,0.0,0.0,0.0,0.0,0.0,0.0,0.0,0.0,0.0,0.0,0.0,0.0,-4.3636,-4.3724,-4.3578,-4.2967,-4.3017,-4.3476,-4.1098,-4.0866,-4.2015,-4.0528,0.0,0.0,0.0,0.0,0.0,0.0,0.0,0.0,0.0,0.0,0.0,0.0,0.0,0.0,0.0,0.0,0.0,0.0,0.0,0.0,0.0,0.0,-3.7043,-3.6764,-3.7184,-3.7135,-3.5386,0.0,0.0,0.0,0.0,0.0,0.0,0.0,0.0,0.0,0.0,0.0,-3.4613,-3.4168,-3.3925,-3.4327,-3.3484,-3.2808,-3.2586,-3.1651,-3.0579,-2.9367,-2.8711,-2.8201,0.0,0.0,0.0,0.0,0.0,0.0,0.0,0.0,0.0,0.0,0.0,0.0,0.0,0.0,0.0,0.0,0.0,0.0,0.0,0.0,0.0,0.0,0.0,0.0,0.0,0.0,0.0,0.0,0.0,0.0,0.0,0.0,-3.9236,-4.0882,0.0,0.0,0.0,0.0,0.0,0.0,0.0,0.0,0.0,0.0,0.0,0.0,0.0,-4.0513,-4.0281,-4.2479,-4.3435,-4.3166,-4.4611,-4.4966,-4.4356,-4.4245,-4.4,-4.3548,-4.2433,0.0,-4.2256,-4.2013,0.0,0.0,0.0,0.0,0.0,0.0,0.0,0.0,0.0,0.0,0.0,0.0,0.0,0.0,0.0,0.0,0.0,0.0,0.0,0.0,0.0,0.0,-3.7043,-3.6764,-3.6596,-3.6232,-3.522,-3.5771,-3.6358,-3.6028,-3.5536,-3.5096,0.0,0.0,0.0,0.0,0.0,0.0,-3.3508,-3.3598,-3.3246,-3.2014,-3.1736,-3.1209,-3.0169,-2.9931,-2.9315,-2.8116,-2.7946,-2.786,-2.7807,-2.7807,0.0,0.0,0.0,0.0,0.0,0.0,0.0,0.0,0.0,0.0,0.0,0.0,0.0,0.0,0.0,0.0,0.0,0.0,0.0,0.0,0.0,0.0,0.0,0.0,0.0,0.0,0.0,0.0,0.0,-3.8345,-3.9855,-4.0076,-4.0677,-4.0432,0.0,0.0,0.0,0.0,0.0,0.0,0.0,0.0,0.0,-4.0207,-4.0602,-4.1127,-4.1847,-4.2969,-4.3767,-4.4221,-4.4978,-4.4986,-4.4396,-4.4465,-4.4087,-4.3337,-4.2602,-4.2306,-4.2226,-4.1233,-4.0361,-3.9505,0.0,0.0,0.0,0.0,-3.557,-3.5616,-3.6034,-3.6173,-3.614,-3.5925,0.0,0.0,0.0,0.0,0.0,0.0,0.0,-3.5845,-3.6027,-3.5775,-3.5523,-3.5716,-3.5648,-3.5463,-3.5078,-3.5665,-3.6009,-3.5073,-3.5122,-3.5048,-3.4138,-3.3125,0.0,0.0,0.0,-3.1977,-3.1619,-3.1716,-3.1519,-3.086,-3.0164,-2.9573,-2.9032,-2.7974,-2.7128,-2.659,-2.6556,-2.6556,-2.6556,-2.7367,-2.7534,0.0,0.0,0.0,0.0,0.0,0.0,0.0,0.0,0.0,0.0,0.0,0.0,0.0,0.0,0.0,0.0,0.0,0.0,0.0,0.0,0.0,0.0,0.0,0.0,0.0,0.0,0.0,0.0,-3.9227,-4.0096,-3.9611,-4.0342,-3.9962,0.0,0.0,0.0,0.0,0.0,0.0,-3.9364,-3.9577,-4.0158,-4.114,-4.1178,-4.1919,-4.3461,-4.348,-4.3983,-4.4966,-4.4824,-4.4553,-4.4152,-4.3921,-4.3344,-4.2522,-4.1848,-4.1459,-4.122,-4.0174,-3.961,-3.9256,-3.7664,-3.6913,-3.6628,-3.5903,-3.5621,-3.5672,-3.6228,-3.6253,-3.6007,-3.5615,-3.5211,-3.4599,-3.3058,0.0,0.0,0.0,0.0,-3.4655,-3.5132,-3.4489,-3.382,-3.4255,-3.4234,-3.4087,-3.4087,-3.4596,-3.4926,-3.4523,-3.4987,-3.4963,-3.3478,-3.2304,0.0,-3.1162,-3.0395,-2.9839,-2.9839,-2.957,-2.9297,-2.9119,-2.8282,-2.7677,-2.7487,-2.614,-2.5321,-2.5321,-2.5321,-2.5321,-2.5321,-2.6539,-2.6717,-2.5598,0.0,0.0,0.0,0.0,0.0,0.0,0.0,0.0,0.0,0.0,0.0,0.0,0.0,0.0,0.0,0.0,0.0,0.0,0.0,0.0,0.0,0.0,0.0,0.0,0.0,0.0,0.0,0.0,0.0,-4.0772,-4.0958,0.0,0.0,0.0,0.0,-3.6452,-3.7565,-3.8539,-3.909,-3.9844,-4.0856,-4.2187,-4.2208,-4.2788,-4.3957,-4.3957,-4.4181,-4.4618,-4.4114,-4.3846,-4.3772,-4.2502,-4.1526,-4.0775,-3.9913,-3.9182,-3.8661,-3.9529,-3.9394,-3.8554,-3.7576,-3.668,-3.5931,-3.5768,-3.5655,-3.5605,-3.5639,-3.5068,-3.4456,-3.5231,-3.4923,-3.4077,-3.3167,-3.2917,0.0,0.0,-3.2974,-3.3098,-3.3431,-3.291,-3.2378,-3.2643,-3.2137,-3.158,-3.158,-3.1617,-3.2553,-3.5569,-3.554,-3.4672,-3.3495,0.0,-3.1686,-3.0528,-2.9353,-2.8595,-2.8595,-2.7585,-2.6622,-2.591,-2.5775,-2.5454,-2.4759,-2.4608,-2.4558,-2.4558,-2.4558,-2.4558,-2.4558,-2.5304,-2.5999,-2.6607,-2.5723,0.0,0.0,0.0,0.0,0.0,0.0,0.0,0.0,0.0,0.0,0.0,0.0,0.0,0.0,0.0,0.0,0.0,0.0,0.0,0.0,0.0,0.0,0.0,0.0,0.0,0.0,0.0,0.0,-3.9981,-4.0881,0.0,-3.8383,-3.8331,-3.7987,-3.6889,-3.7306,-3.81,-3.9301,-3.9626,-4.0655,-4.2504,-4.2559,-4.2922,-4.366,-4.3162,-4.3089,-4.3428,-4.2707,-4.2061,-4.1397,-4.0921,-4.0065,-3.8922,-3.8121,-3.7977,-3.821,-3.7595,-3.7827,-3.8516,-3.7615,-3.7066,-3.6654,-3.5445,-3.4978,-3.486,-3.4167,-3.3706,-3.3473,-3.375,-3.2891,-3.1795,-3.2045,-3.2122,-3.2006,-3.1442,-3.1698,-3.1961,-3.1216,-3.0411,-2.9766,-2.9569,-2.9292,-2.9083,-2.9083,-2.9494,-3.0131,-3.1081,-3.162,-3.1784,-3.1377,-2.9812,-2.8476,-2.8056,-2.6811,-2.5928,-2.5928,-2.555,-2.5185,-2.4931,-2.4458,-2.4086,-2.3799,-2.3359,-2.2952,-2.2648,-2.336,-2.3659,-2.3347,-2.4096,-2.4265,-2.3752,-2.3131,-2.2998,0.0,0.0,0.0,0.0,0.0,0.0,0.0,0.0,0.0,0.0,0.0,0.0,0.0,0.0,0.0,0.0,0.0,0.0,0.0,0.0,0.0,0.0,0.0,0.0,0.0,-3.9045,-3.9388,-3.8825,-3.9767,-3.9726,-3.7853,-3.8126,-3.8077,-3.7281,-3.7694,-3.8431,-3.9438,-3.976,-4.0562,-4.1972,-4.2027,-4.2153,-4.2428,-4.1898,-4.1825,-4.2217,-4.15,-4.0677,-3.9746,-3.9283,-3.847,-3.7379,-3.6619,-3.6528,-3.6798,-3.5778,-3.5935,-3.6795,-3.6523,-3.6426,-3.623,-3.4756,-3.3999,-3.3522,-3.2171,-3.1719,-3.1661,-3.1322,-3.0467,-2.9654,-3.0237,-3.0429,-3.0283,-2.9639,-2.9876,-3.0087,-2.9032,-2.8356,-2.7855,-2.7482,-2.7402,-2.7402,-2.7402,-2.7813,-2.8082,-2.7755,-2.8748,-2.9464,-2.8979,-2.7596,-2.643,-2.6013,-2.4914,-2.4135,-2.4135,-2.3915,-2.3763,-2.3763,-2.3325,-2.3038,-2.3038,-2.2581,-2.2106,-2.1643,-2.2347,-2.27,-2.2475,-2.321,-2.3353,-2.2785,-2.214,-2.1645,-2.1365,0.0,0.0,0.0,0.0,0.0,0.0,0.0,0.0,0.0,0.0,0.0,0.0,0.0,0.0,0.0,0.0,0.0,0.0,0.0,0.0,0.0,0.0,0.0,-3.7962,-3.7767,-3.7395,-3.7513,-3.7665,-3.7516,-3.6793,-3.7853,-3.8286,-3.7569,-3.8702,-3.9469,-3.9487,-4.02,-4.0627,-4.0666,-4.0648,-4.0537,-4.0312,-4.0275,-4.0525,-4.1058,-4.047,-3.9798,-3.8982,-3.7641,-3.6755,-3.6181,-3.5391,-3.4757,-3.425,-3.4255,-3.3886,-3.3394,-3.4295,-3.4668,-3.4551,-3.3652,-3.2708,-3.1627,-2.9807,-2.9165,-2.9031,-2.8182,-2.7895,-2.7895,-2.7895,-2.7895,-2.7849,-2.7631,-2.7567,-2.7461,-2.6965,-2.6841,-2.6786,-2.6565,-2.6539,-2.6539,-2.6539,-2.6539,-2.6417,-2.6095,-2.7278,-2.79,-2.6495,-2.6243,-2.5819,-2.4635,-2.3848,0.0,-2.3359,-2.275,-2.2296,-2.2296,-2.2296,-2.2296,-2.2296,-2.2296,-2.2106,-2.1643,-2.1612,-2.1725,-2.1966,-2.2668,-2.3371,-2.3986,-2.2929,-2.1826,-2.0703,0.0,0.0,0.0,0.0,0.0,0.0,0.0,0.0,0.0,0.0,0.0,0.0,0.0,0.0,0.0,0.0,0.0,0.0,0.0,0.0,0.0,0.0,-3.4695,-3.6826,-3.6988,-3.7104,-3.7637,-3.7778,-3.7719,-3.7516,-3.7816,-3.7925,-3.772,-3.8116,-3.8574,-3.9123,-3.8854,-3.9094,-4.0005,-3.9525,-3.9587,-4.0275,-3.9716,-3.9707,-4.0212,-3.8902,-3.7947,-3.7322,-3.6372,-3.5407,-3.4475,-3.4247,-3.3822,-3.3298,-3.3393,-3.3344,-3.3256,-3.3566,-3.3706,-3.3574,-3.2129,-3.058,-2.9159,-2.8596,-2.836,-2.8277,-2.799,-2.7895,-2.7895,-2.7895,-2.7895,-2.775,-2.7078,-2.6869,-2.6634,-2.563,-2.5374,-2.5298,-2.4939,-2.485,-2.485,-2.485,-2.485,-2.4752,-2.4407,-2.4519,-2.4814,-2.5345,-2.4955,-2.4367,-2.3788,-2.3071,-2.2598,-2.2598,-2.2431,-2.2296,-2.2296,-2.2296,-2.2296,-2.2296,-2.2296,-2.2106,-2.1643,-2.1913,-2.1849,-2.1295,-2.1933,-2.2098,-2.1656,-2.1792,-2.1506,0.0,0.0,0.0,0.0,0.0,0.0,0.0,0.0,0.0,0.0,0.0,0.0,0.0,0.0,0.0,0.0,0.0,0.0,0.0,0.0,0.0,0.0,-3.362,-3.4391,-3.5992,-3.6208,-3.6468,-3.7231,-3.7025,-3.6981,-3.7279,-3.7307,-3.7446,-3.7765,-3.7843,-3.8044,-3.8507,-3.8142,-3.8088,-3.8534,-3.8127,-3.8134,-3.8655,-3.8417,-3.8562,-3.9057,-3.7989,-3.7153,-3.6498,-3.5666,-3.4689,-3.3635,-3.3635,-3.3164,-3.2397,-3.2483,-3.235,-3.2152,0.0,0.0,0.0,0.0,-2.8592,-2.7622,-2.7173,-2.6992,-2.6946,-2.6834,-2.6813,-2.6813,-2.6813,-2.6813,-2.6677,-2.6037,-2.5848,-2.566,-2.4767,-2.4553,-2.4486,-2.4266,-2.419,-2.419,-2.419,-2.419,-2.4094,-2.3774,-2.3286,0.0,-2.3554,-2.3419,-2.3161,-2.2965,-2.2567,-2.2296,-2.2296,-2.2296,-2.2296,-2.2296,-2.2296,-2.2296,-2.2296,-2.2296,0.0,0.0,0.0,-2.1484,-2.09,-2.1517,0.0,0.0,0.0,-2.0961,-2.0288,-2.1124,0.0,0.0,-2.3142,-2.356,0.0,0.0,0.0,0.0,0.0,0.0,0.0,0.0,0.0,0.0,0.0,0.0,0.0,0.0,0.0,0.0,-3.4241,-3.4616,-3.5367,-3.5504,-3.575,-3.6384,-3.5894,-3.575,-3.6415,-3.6554,-3.6906,-3.7601,-3.7837,-3.7923,-3.7896,-3.7891,0.0,0.0,0.0,-3.6541,-3.6274,-3.6742,-3.72,-3.764,-3.7304,-3.6806,-3.6119,-3.5151,-3.4198,-3.3259,-3.3164,-3.252,-3.1545,-3.1545,-3.111,-3.0534,-3.1407,-3.1203,-3.0176,-2.7851,-2.6934,-2.6718,-2.5811,0.0,0.0,-2.5346,-2.5317,-2.5303,-2.5269,-2.5264,-2.5198,-2.4903,-2.4814,-2.4746,-2.4366,-2.4275,-2.4266,-2.4209,-2.419,-2.419,-2.419,-2.419,-2.4103,-2.3816,-2.3131,-2.2395,-2.175,-2.1893,-2.2067,-2.2057,-2.211,-2.2192,-2.2192,-2.2245,-2.2296,-2.2296,-2.2296,0.0,-2.2296,-2.2296,-2.212,-2.1703,-2.1244,-2.0928,-2.0756,-2.1295,-2.1321,-2.0703,-2.0703,-2.0341,-1.9603,-1.9803,-1.9846,-1.9769,-2.2181,-2.2654,0.0,0.0,0.0,0.0,0.0,0.0,0.0,0.0,0.0,0.0,0.0,0.0,0.0,0.0,0.0,-3.2268,-3.3013,-3.3875,-3.5302,-3.5504,-3.5554,-3.5701,-3.5587,-3.5554,-3.5701,-3.6244,-3.666,-3.682,-3.7991,-3.8424,-3.7862,-3.786,-3.755,-3.6829,-3.618,-3.574,-3.5518,-3.562,-3.5787,-3.6047,-3.5333,0.0,-3.5206,-3.3738,-3.2808,-3.2326,-3.1676,-3.1113,-3.0654,-3.0654,-3.0216,-2.9599,-2.9928,-2.9121,-2.7695,-2.7187,-2.6562,-2.5918,-2.5664,-2.5549,-2.5498,-2.542,-2.5333,-2.5269,-2.5105,-2.5071,0.0,-2.498,-2.4962,-2.4911,-2.4727,-2.4685,-2.4599,-2.4275,-2.419,-2.419,-2.419,-2.419,-2.418,-2.4132,-2.325,-2.2416,-2.2067,-2.1365,-2.0747,-2.0492,-2.1008,-2.141,-2.141,-2.1938,-2.2296,-2.2296,-2.2296,-2.2296,-2.2296,-2.2296,-2.2268,-2.218,-2.1431,-2.1064,-2.1178,-2.1005,-2.0823,-2.0703,-2.0703,-2.0156,-1.9058,-1.9614,-1.9429,-1.858,-2.0091,-2.0629,0.0,0.0,0.0,0.0,0.0,0.0,0.0,0.0,0.0,0.0,0.0,-2.8483,0.0,0.0,-3.0646,-3.2103,-3.2627,-3.3294,-3.4566,-3.4758,-3.4953,-3.5439,-3.5504,-3.5504,-3.5504,-3.5831,-3.6196,-3.6584,-3.7323,-3.765,-3.7265,-3.7325,-3.6992,-3.6214,-3.5453,-3.4992,-3.4901,-3.4809,-3.4914,-3.518,-3.4243,-3.4022,-3.4344,-3.2724,-3.1818,-3.145,-3.0611,-3.006,-2.9723,-2.935,-2.8711,-2.8003,-2.8156,-2.7708,-2.6953,-2.6504,-2.6074,-2.5683,-2.5575,-2.5535,-2.5473,-2.5379,-2.5321,-2.5274,-2.5173,-2.5152,-2.5135,-2.5028,-2.4949,-2.4857,-2.4682,-2.4586,-2.4444,-2.4256,-2.419,-2.419,-2.419,-2.3878,-2.3602,-2.3602,-2.238,-2.1308,-2.1171,-2.0153,-1.951,-1.9933,-2.0335,-2.0737,-2.114,-2.1529,-2.1887,-2.2245,-2.2296,-2.2209,-2.1957,-2.1766,-2.1661,-2.1661,-2.1023,-2.0605,-2.049,-2.0312,-2.0072,-1.9813,-1.9794,-1.9372,-1.8496,-1.8564,-1.831,-1.7753,-1.8128,-1.8582,0.0,0.0,0.0,0.0,0.0,0.0,0.0,0.0,-2.6952,-2.6181,-2.6542,-2.7394,-2.8587,-2.9521,-3.0613,-3.2085,-3.25,-3.2925,-3.3876,-3.4177,-3.4576,-3.5392,-3.5504,-3.5504,-3.5504,-3.5504,-3.5765,-3.6337,-3.6456,-3.6485,-3.6489,-3.6545,-3.6285,-3.5616,-3.4878,-3.4421,-3.4286,-3.3982,-3.39,-3.3988,-3.3216,-3.2962,-3.3181,-3.1799,-3.1054,-3.0782,-2.9802,-2.9171,-2.8752,-2.7981,-2.7286,-2.6684,-2.6578,-2.6617,-2.664,-2.5936,-2.5683,-2.5683,-2.5559,-2.55,-2.549,-2.5359,-2.5308,-2.5284,-2.5259,-2.5229,-2.5208,-2.504,-2.493,-2.4799,-2.4636,-2.4461,-2.4312,-2.4275,-2.4228,-2.419,-2.419,-2.3566,-2.3006,-2.3006,-2.148,-2.0183,-2.0137,-1.9059,-1.8528,-1.9498,-1.9718,-2.0014,-2.0666,-2.1004,-2.1333,-2.172,-2.1891,-2.1786,-2.1324,-2.1101,-2.0959,-2.0862,-2.0516,-2.0072,-1.9566,-1.9548,-1.9281,-1.8746,-1.8727,-1.8477,-1.7947,-1.7504,-1.725,-1.7126,-1.6689,-1.7039,-3.3066,-3.1128,-2.9827,-3.022,-2.9019,-2.8069,0.0,0.0,-2.7588,-2.8079,-2.758,-2.7311,-2.806,-2.8288,-2.9015,-3.1029,-3.2069,-3.2925,-3.3876,-3.4758,-3.5359,-3.5504,-3.5504,-3.5504,-3.5504,-3.5504,-3.5537,-3.5619,-3.5692,-3.5736,-3.573,-3.5796,-3.5747,-3.5594,-3.4878,-3.4184,-3.3541,-3.2863,-3.207,-3.1168,-3.1398,-3.1416,-3.1202,-3.0605,-3.0441,-3.0553,-2.9211,-2.8305,-2.7701,-2.6835,-2.6567,-2.6618,-2.5858,-2.5637,-2.5743,-2.5645,-2.5658,-2.5683,-2.5607,-2.5552,-2.5498,-2.5401,-2.5357,-2.5269,-2.5088,-2.5034,-2.5028,-2.501,-2.4992,-2.4974,-2.4955,-2.4843,-2.4685,-2.4512,-2.4339,-2.419,-2.419,-2.3566,-2.3006,-2.3006,-2.148,-2.011,-1.9883,-1.8921,-1.8256,-1.837,-1.8751,-1.9058,-1.9159,-2.0344,-2.083,-1.9917,-2.039,-2.0613,-2.0215,-2.0686,-2.0829,-2.0399,-2.0331,-1.9902,-1.9024,-1.8987,-1.8727,-1.8204,-1.8204,-1.7927,-1.7394,-1.7333,-1.7055,-1.6595,-1.6543,-1.6861,-3.1395,-3.011,-2.9127,0.0,-2.7547,-2.6296,-2.6078,-2.5509,-2.4921,-2.4682,-2.5417,-2.6333,-2.7044,-2.7695,-2.8612,0.0,-3.1193,-3.2105,-3.3066,-3.4007,-3.4839,-3.5424,-3.5504,-3.5504,-3.5504,-3.5145,-3.4906,-3.4906,-3.4575,-3.456,-3.4994,-3.5058,-3.5234,-3.5577,-3.4472,-3.3711,-3.3406,-3.1816,-3.0916,-3.0682,-2.9964,-2.9796,-3.0107,-2.8971,-2.8187,-2.7726,-2.7247,-2.6631,-2.5941,-2.5653,-2.5616,-2.5691,-2.5437,-2.5418,-2.5551,-2.5594,-2.5636,-2.5683,-2.557,-2.5511,-2.5415,-2.4834,-2.4951,-2.5106,-2.4038,-2.4061,-2.4368,-2.387,-2.3998,-2.4179,-2.3677,-2.4083,-2.4479,-2.388,-2.3619,-2.3511,-2.3511,-2.2474,-2.1504,-2.138,-2.0363,-1.9417,-1.9158,-1.86,-1.8198,-1.8198,-1.8227,-1.8333,-1.8572,-1.9517,-2.0064,-1.9809,-1.9865,-1.992,-1.9996,-1.9421,-1.9427,-2.0251,-1.9416,-1.8909,-1.8897,-1.8593,-1.8185,-1.7646,-1.7329,-1.705,-1.6824,-1.6525,-1.6413,-1.65,-1.65,-1.6647,-2.893,0.0,0.0,-2.6031,-2.5009,-2.3964,-2.2822,-2.2557,-2.2309,-2.1596,-2.3066,-2.4766,-2.5799,-2.6889,-2.8108,-2.9585,-3.0809,-3.1815,-3.25,-3.3799,-3.4996,-3.5735,-3.5814,-3.5894,-3.6116,-3.5312,-3.4788,-3.4788,-3.4148,-3.4107,-3.4835,-3.47,-3.4818,-3.5295,-3.4044,-3.3305,-3.3102,-3.1309,-3.0347,-3.0213,-2.9195,-2.88,-2.8925,-2.7736,-2.6617,-2.5634,-2.5774,-2.5421,-2.4731,-2.4811,-2.4898,-2.4955,-2.5146,-2.5297,-2.5432,-2.5531,-2.5632,-2.5683,-2.5551,-2.5491,-2.5354,-2.4419,-2.4639,-2.5038,-2.3586,-2.3759,-2.4298,-2.3678,-2.3792,-2.3931,-2.3086,-2.3519,-2.3955,-2.3074,-2.2769,-2.2666,-2.2666,-2.1538,-2.0445,-2.0237,-1.9498,-1.8798,-1.8537,-1.827,-1.8082,-1.8082,-1.7916,-1.7906,-1.8198,-1.8496,-1.887,-1.9368,-1.8967,-1.8764,-1.9074,-1.8403,-1.8447,-1.951,-1.8564,-1.8018,-1.8175,-1.769,-1.7181,-1.6649,-1.6251,-1.6053,-1.607,-1.5668,-1.5668,-1.607,-1.6199,-1.6283,0.0,0.0,-2.1959,-2.1209,-2.0787,-2.0667,-2.0982,-2.0849,-2.0649,-2.0649,-2.1421,-2.2623,-2.4321,-2.571,-2.7261,-2.9456,-3.1341,-3.2558,-3.2593,-3.4875,-3.6538,-3.6538,-3.6584,-3.6873,0.0,-3.6352,-3.5474,-3.5474,-3.4851,-3.4797,-3.5529,-3.4968,-3.4585,-3.4518,-3.3795,-3.3051,-3.2344,-3.1546,-3.0448,-2.9045,-2.9334,-2.8742,-2.738,-2.725,-2.6545,-2.5413,-2.5423,-2.5079,-2.4512,-2.4501,-2.4631,-2.4825,-2.4968,-2.5096,-2.523,-2.5429,-2.5594,-2.5683,-2.5551,-2.5491,-2.5354,-2.4419,-2.4639,-2.5135,-2.4317,-2.462,-2.5269,-2.5231,-2.51,-2.4782,-2.3959,-2.3553,-2.3114,-2.2234,-2.1932,-2.1831,-2.1831,-2.1125,-2.0445,-2.0237,-1.9343,-1.8528,-1.8259,-1.7992,-1.7811,-1.7811,-1.7811,-1.78,-1.7822,-1.7265,-1.7164,-1.7877,-1.7252,-1.6787,-1.6802,-1.7954,-1.8418,-1.7819,-1.7971,-1.7577,-1.6433,-1.6005,-1.5519,-1.4973,-1.496,-1.4941,-1.4947,-1.4921,-1.4921,-1.4959,-1.5467,-1.5718,0.0,0.0,-2.1069,-2.0754,-2.0079,-1.956,-1.9992,-1.9857,-1.9597,-1.9275,-2.0436,-2.2033,-2.3741,-2.5147,-2.6869,-2.9394,-3.1734,-3.3237,-3.3128,-3.5428,-3.6831,-3.5969,-3.6256,0.0,0.0,0.0,0.0,-3.5523,-3.4075,-3.3706,-3.4872,-3.4301,-3.4103,-3.4501,-3.3778,-3.2814,-3.1562,-3.0835,-2.9719,-2.8197,-2.8097,-2.7253,-2.5779,-2.5968,-2.541,-2.4268,-2.4268,-2.4283,-2.4312,-2.4435,-2.4545,-2.4631,-2.4898,-2.5053,-2.5153,-2.541,-2.5558,-2.5621,-2.5522,-2.5491,-2.5354,-2.4419,-2.4639,-2.5038,-2.3663,-2.3836,-2.4375,-2.3793,-2.3592,-2.3328,-2.2385,-2.2388,-2.2384,-2.1439,-2.1065,-2.0933,-2.0933,-2.0184,-1.9423,-1.9191,-1.8704,-1.8249,-1.7982,-1.7867,-1.78,-1.78,-1.7612,-1.7638,-1.8058,-1.7543,-1.7228,-1.7478,-1.7014,-1.6696,-1.6696,-1.6757,-1.6933,-1.7278,-1.6636,-1.6142,-1.5919,-1.5429,-1.5095,-1.4896,-1.4551,-1.4538,-1.4896,-1.4538,-1.4551,-1.4896,-1.4713,-1.4801,0.0,-2.0359,-1.9425,-1.8563,-1.7896,-1.7445,-1.7213,-1.733,-1.747,-1.766,-1.9445,-2.1609,-2.369,-2.5484,-2.732,-2.9445,-3.1606,-3.3137,-3.3431,-3.5491,-3.6877,-3.665,-3.7001,-3.7296,0.0,0.0,0.0,-3.5919,-3.4254,-3.3606,-3.4518,-3.4172,-3.3892,-3.3751,-3.3537,-3.2696,-3.1207,-3.048,-2.9328,-2.779,-2.7041,-2.6096,-2.5005,-2.4956,-2.4398,-2.3522,-2.3522,-2.3703,-2.4026,-2.4164,-2.4284,-2.4426,-2.4795,-2.494,-2.5028,-2.535,-2.5529,-2.5593,-2.5541,-2.5541,-2.5371,-2.4477,-2.4702,-2.5089,-2.3708,-2.3872,-2.4356,-2.3509,-2.3208,-2.2863,-2.1611,-2.1565,-2.1601,-2.0662,-2.0303,-2.0172,-2.0172,-1.9612,-1.9008,-1.866,-1.846,-1.8229,-1.785,-1.78,-1.78,-1.78,-1.7514,-1.7449,-1.7892,-1.746,-1.7079,-1.6952,-1.6606,-1.6383,-1.6383,-1.6219,-1.6202,-1.6366,-1.5747,-1.5278,-1.507,-1.4556,-1.4287,-1.4287,-1.3954,-1.3954,-1.4287,-1.3954,-1.3966,-1.4287,-1.4166,-1.4262,-2.0357,-1.8807,-1.6859,-1.4826,-1.4504,-1.4394,-1.3171,-1.3735,-1.4869,-1.6132,-1.8611,-2.1366,0.0,0.0,-2.8533,-2.9686,-3.1138,-3.2499,-3.3496,-3.521,-3.6842,0.0,0.0,0.0,0.0,0.0,0.0,-3.66,-3.5286,-3.4514,-3.4496,-3.4533,-3.3871,-3.2403,-3.3009,-3.2583,-3.103,-3.0234,-2.9138,-2.7755,-2.6269,-2.5343,-2.4959,-2.4199,-2.3619,-2.3177,-2.3177,-2.3369,-2.3682,-2.3692,-2.3896,-2.4228,-2.4623,-2.4774,-2.482,-2.5232,-2.546,-2.5583,-2.5582,-2.5605,-2.546,-2.4622,-2.4808,-2.5203,-2.4435,-2.4691,-2.5077,-2.4269,-2.3908,-2.3375,-2.1724,-2.1134,-2.0746,-1.9979,-1.9701,-1.9608,-1.9608,-1.9423,-1.9156,-1.8688,-1.8576,-1.84,-1.7883,-1.78,-1.78,-1.78,-1.7514,-1.7308,-1.7308,-1.6989,-1.6646,-1.6326,-1.5997,-1.5799,-1.5799,-1.6308,-1.6186,-1.5133,-1.5284,-1.4946,-1.3911,-1.3442,-1.3198,-1.3198,-1.3198,-1.3198,-1.3198,-1.3198,-1.3198,-1.321,-1.376,-1.4042,-1.9424,-1.7204,-1.4997,-1.4433,-1.3797,-1.3478,-1.4134,-1.5633,-1.733,-1.8881,-2.1391,-2.3792,0.0,0.0,0.0,-3.0718,-3.2676,0.0,-3.4233,-3.6452,0.0,-3.6714,0.0,-3.8324,-3.7919,-3.7027,0.0,-3.66,-3.5309,-3.4501,-3.4498,-3.4041,-3.316,-3.1765,-3.2337,-3.1248,-2.8314,-2.7082,-2.6716,-2.7253,-2.5724,-2.4862,-2.4594,-2.3862,-2.3258,-2.2835,-2.2835,-2.3021,-2.3346,-2.3606,-2.3746,-2.3878,-2.4372,-2.458,-2.464,-2.5034,-2.5207,-2.5267,-2.5459,-2.5565,-2.5556,-2.528,-2.4876,-2.4466,-2.4252,-2.4336,-2.4303,-2.3445,-2.3164,-2.2848,-2.1627,-2.0778,-2.0174,-1.9875,-1.9701,-1.9608,-1.9608,-1.9323,-1.8974,-1.8651,-1.828,-1.796,-1.7822,-1.78,-1.78,-1.78,-1.7514,-1.7308,-1.7308,-1.6799,-1.638,-1.6315,-1.5997,-1.5799,-1.5799,-1.561,-1.5247,-1.4688,-1.4444,-1.403,-1.3391,-1.3267,-1.3198,-1.3198,-1.3198,-1.3198,-1.3198,-1.3198,-1.3198,-1.321,-1.3007,-1.3077,-1.9223,-1.6678,-1.3992,-1.34,-1.2819,-1.2681,-1.3747,-1.5918,-1.8562,-2.1429,-2.3981,0.0,0.0,0.0,0.0,0.0,0.0,0.0,-3.5129,-3.6595,-3.7448,0.0,-3.7836,0.0,-3.7214,-3.6745,-3.6375,-3.6132,-3.4845,-3.4074,-3.4073,-3.318,-3.2173,-3.111,-3.1388,-3.0198,-2.7331,-2.621,-2.587,-2.6254,-2.506,-2.4375,-2.4126,-2.3392,-2.2864,-2.251,-2.251,-2.2704,-2.3009,-2.3346,-2.3566,-2.3756,-2.4284,-2.4503,-2.4543,-2.4847,-2.5023,-2.5125,-2.5275,-2.5436,-2.5545,-2.5507,-2.5166,-2.4695,-2.4325,-2.4199,-2.3937,-2.273,-2.2352,-2.2098,-2.1112,-2.0504,-2.0093,-1.9927,-1.9792,-1.9669,-1.9609,-1.9361,-1.9034,-1.867,-1.8259,-1.7938,-1.7822,-1.78,-1.7755,-1.7595,-1.7296,-1.7027,-1.6888,-1.6525,-1.6246,-1.6109,-1.5912,-1.5799,-1.5799,-1.5566,-1.5149,-1.4549,-1.4294,-1.3868,-1.3232,-1.3198,-1.3198,-1.3198,-1.3198,-1.3198,-1.3198,-1.3198,-1.3094,-1.289,-1.2826,-1.2824,-1.9451,-1.6872,-1.3866,-1.2711,-1.2496,-1.2747,-1.353,-1.6472,-2.0207,-2.4302,0.0,-2.9247,-3.1907,-3.2577,-3.2894,-3.3202,0.0,-3.4262,-3.6084,-3.6385,-3.6844,-3.8047,-3.8232,-3.7793,-3.6596,-3.6492,-3.6178,-3.5429,-3.4203,-3.3499,-3.3499,-3.2287,-3.1211,-3.0381,-3.0045,-2.9,-2.7206,-2.6352,-2.5652,-2.5089,-2.4363,-2.3865,-2.3604,-2.2916,-2.246,-2.2209,-2.2265,-2.244,-2.2673,-2.2996,-2.3294,-2.3621,-2.4183,-2.4391,-2.4425,-2.4678,-2.4866,-2.5025,-2.5046,-2.5223,-2.5435,-2.5484,-2.5414,-2.5174,-2.4316,-2.4051,-2.3702,-2.2014,-2.1585,-2.1418,-2.0529,-2.0295,-2.0265,-2.0083,-1.9917,-1.9774,-1.9643,-1.9431,-1.9132,-1.8688,-1.8381,-1.8093,-1.7783,-1.7726,-1.7624,-1.7284,-1.6989,-1.6686,-1.6394,-1.6287,-1.6122,-1.5827,-1.5724,-1.5664,-1.5664,-1.5621,-1.5257,-1.4502,-1.4491,-1.4133,-1.3323,-1.3301,-1.3267,-1.3198,-1.3198,-1.3198,-1.3198,-1.3198,-1.296,-1.2508,-1.2925,-1.2855,-1.9745,-1.7509,-1.5354,-1.5111,-1.5554,-1.6347,-1.7652,-2.2222,0.0,0.0,0.0,-3.4617,-3.5319,-3.5822,-3.6072,-3.5839,0.0,0.0,0.0,0.0,-3.7343,0.0,0.0,0.0,0.0,-3.6492,0.0,0.0,-3.3933,-3.3499,-3.3499,-3.2255,-3.0937,-2.9716,-2.7575,-2.6505,-2.6633,-2.4934,-2.4239,-2.4536,-2.3802,-2.3365,-2.3193,-2.2785,-2.2273,-2.1733,-2.212,-2.2338,-2.2402,-2.2678,-2.2822,-2.2947,-2.3592,-2.384,-2.3911,-2.4391,-2.4572,-2.464,-2.4783,-2.4955,-2.5124,-2.5414,-2.5016,-2.4277,-2.3529,-2.3289,-2.2928,-2.1196,-2.1218,-2.1531,-2.0557,-2.0298,-2.0286,-2.0269,-2.0021,-1.9784,-1.9774,-1.9398,-1.8957,-1.8651,-1.8381,-1.804,-1.7486,-1.738,-1.7272,-1.6942,-1.6841,-1.6776,-1.6725,-1.6232,-1.587,-1.5813,-1.529,-1.4975,-1.4975,-1.4612,-1.4328,-1.4184,-1.4381,-1.4278,-1.3802,-1.3785,-1.3598,-1.3215,-1.3198,-1.3198,-1.3198,-1.3198,-1.296,-1.2508,-1.2579,-1.2372,-2.1461,-1.9438,-1.7652,-1.8189,-1.9206,-2.0623,-2.2579,0.0,0.0,0.0,-3.4888,-3.7016,-3.7613,0.0,0.0,0.0,0.0,0.0,0.0,0.0,0.0,0.0,0.0,0.0,0.0,-3.5968,-3.5564,-3.4578,-3.3858,-3.32,-3.2512,-3.0883,-2.9534,-2.8535,-2.6621,-2.574,-2.6032,-2.4408,-2.373,-2.397,-2.3624,-2.3369,-2.3189,-2.2681,-2.2325,-2.2109,-2.199,-2.2061,-2.2307,-2.2586,-2.2708,-2.2759,-2.3253,-2.3544,-2.3735,-2.4001,-2.4256,-2.452,-2.4607,-2.4756,-2.493,-2.5168,-2.5043,-2.4677,-2.3864,-2.3373,-2.2831,-2.154,-2.1149,-2.1006,-2.0489,-2.0338,-2.0279,-2.0171,-1.9909,-1.9676,-1.9553,-1.9331,-1.9092,-1.8852,-1.8585,-1.8262,-1.7832,-1.7647,-1.7455,-1.7113,-1.7064,-1.7002,-1.6828,-1.6514,-1.6328,-1.6328,-1.5872,-1.5442,-1.5091,-1.501,-1.4731,-1.4127,-1.4552,-1.4627,-1.423,-1.4016,-1.3785,-1.3564,-1.3323,-1.3198,-1.3198,-1.3198,-1.296,-1.2508,-1.2508,-1.2383,-2.3738,-2.2303,-2.1161,-2.209,-2.3779,-2.5674,-2.7348,-3.0564,0.0,0.0,-3.7268,-3.8822,-3.9796,0.0,0.0,0.0,0.0,0.0,0.0,0.0,0.0,0.0,0.0,0.0,0.0,-3.537,0.0,-3.4354,-3.3275,-3.2213,-3.1137,-2.952,-2.8278,-2.7615,-2.6303,-2.5615,-2.5615,-2.4268,-2.3595,-2.3595,-2.3595,-2.3441,-2.3161,-2.2567,-2.235,-2.2427,-2.1756,-2.1796,-2.231,-2.2426,-2.2512,-2.2652,-2.2972,-2.3247,-2.3493,-2.3649,-2.3971,-2.4347,-2.4409,-2.4578,-2.4749,-2.4917,-2.5121,-2.5154,-2.4343,-2.3625,-2.2893,-2.204,-2.1171,-2.051,-2.0437,-2.0366,-2.0273,-2.0053,-1.9836,-1.963,-1.9409,-1.9357,-1.9282,-1.9043,-1.878,-1.8499,-1.8149,-1.7877,-1.7572,-1.7248,-1.7243,-1.7162,-1.672,-1.6871,-1.6892,-1.6585,-1.633,-1.5882,-1.5136,-1.5444,-1.5278,-1.4311,-1.4877,-1.5058,-1.4643,-1.4246,-1.4,-1.3901,-1.3442,-1.3198,-1.3198,-1.3198,-1.296,-1.2508,-1.2508,-1.2455,-2.6125,-2.6119,-2.6652,-2.7415,-2.9874,-3.1923,-3.1295,0.0,0.0,-3.8094,-3.976,-4.1582,-4.2638,-4.2556,0.0,0.0,0.0,0.0,0.0,0.0,0.0,0.0,0.0,0.0,0.0,-3.4936,-3.4292,-3.3634,-3.133,-2.9906,-2.9786,-2.9026,-2.8278,-2.7615,-2.6303,-2.5615,-2.5615,-2.4268,-2.3595,-2.3595,-2.3595,-2.3287,-2.274,-2.2428,-2.2204,-2.2015,-2.1359,-2.1539,-2.2268,-2.1868,-2.1955,-2.236,-2.2652,-2.2772,-2.2873,-2.3488,-2.3735,-2.3808,-2.4133,-2.4357,-2.4551,-2.4741,-2.4923,-2.4919,-2.4295,-2.3585,-2.2847,-2.2032,-2.1224,-2.0585,-2.0511,-2.0438,-2.0318,-2.0056,-1.9974,-1.9896,-1.9624,-1.9569,-1.9456,-1.9077,-1.878,-1.8422,-1.7836,-1.7522,-1.7236,-1.6904,-1.7113,-1.7054,-1.6354,-1.7103,-1.7199,-1.5853,-1.579,-1.5431,-1.4383,-1.4946,-1.5174,-1.4755,-1.5367,-1.5536,-1.5058,-1.4658,-1.4262,-1.3917,-1.3442,-1.3198,-1.3198,-1.3198,-1.296,-1.2508,-1.2508,-1.2264,-2.9699,-3.0181,-3.1062,-3.2602,-3.4184,-3.5501,-3.6103,0.0,0.0,-3.934,-4.0712,-4.2076,-4.2807,-4.309,-4.2975,0.0,0.0,0.0,0.0,0.0,0.0,0.0,0.0,0.0,0.0,0.0,-3.4038,-3.2976,-3.0836,-2.9606,-2.9606,-2.8588,-2.7884,-2.76,-2.6303,-2.5615,-2.5615,-2.4268,-2.3595,-2.3595,-2.3595,-2.3266,-2.2709,-2.2586,-2.2194,-2.1586,-2.1592,-2.1569,-2.1539,-2.1869,-2.1957,-2.1928,-2.2312,-2.2563,-2.2733,-2.3009,-2.3357,-2.3714,-2.3847,-2.4077,-2.4348,-2.4543,-2.4734,-2.4784,-2.4265,-2.3554,-2.2763,-2.1973,-2.1162,-2.0525,-2.0517,-2.0425,-2.0271,-2.0058,-1.9988,-1.9958,-1.9762,-1.9669,-1.9495,-1.9175,-1.8842,-1.8462,-1.8069,-1.7783,-1.7566,-1.742,-1.7531,-1.7327,-1.6608,-1.726,-1.7225,-1.5764,-1.6254,-1.6111,-1.4628,-1.5361,-1.5595,-1.4853,-1.5439,-1.5726,-1.5536,-1.486,-1.4422,-1.4262,-1.3564,-1.3198,-1.3198,-1.3198,-1.3112,-1.2908,-1.2632,-1.2377,-3.3399,-3.4153,-3.5248,-3.7058,-3.7825,-3.8407,0.0,0.0,0.0,-4.0424,-4.1426,-4.2404,-4.3193,-4.3525,-4.3494,0.0,0.0,0.0,0.0,0.0,0.0,0.0,0.0,-3.5011,0.0,-3.4159,-3.335,-3.2018,-3.0462,-2.9517,-2.9295,-2.8229,-2.751,-2.7315,-2.6198,-2.551,-2.5315,-2.4178,-2.3595,-2.3595,-2.3595,-2.337,-2.2957,-2.2583,-2.2228,-2.1873,-2.1483,-2.13,-2.1327,-2.1744,-2.1796,-2.1658,-2.212,-2.2412,-2.2586,-2.2656,-2.3057,-2.3566,-2.3671,-2.3917,-2.4237,-2.4426,-2.461,-2.4613,-2.4151,-2.3495,-2.2772,-2.2206,-2.1305,-2.0498,-2.05,-2.043,-2.0327,-2.0165,-2.0099,-2.0043,-1.9915,-1.9767,-1.9565,-1.9261,-1.8876,-1.8508,-1.8249,-1.7982,-1.7833,-1.7922,-1.7916,-1.7654,-1.6908,-1.745,-1.7322,-1.5774,-1.6703,-1.6774,-1.5142,-1.58,-1.595,-1.5153,-1.5544,-1.5741,-1.5595,-1.4891,-1.4438,-1.4326,-1.3581,-1.3198,-1.3198,-1.3198,-1.3198,-1.3198,-1.2702,-1.2314,-3.6922,-3.796,-3.9382,-4.0488,-4.0938,-4.0965,0.0,0.0,0.0,-4.1596,-4.2154,-4.2911,-4.4323,-4.4261,-4.3881,0.0,0.0,0.0,0.0,0.0,0.0,0.0,0.0,-3.4518,-3.4503,-3.3305,-3.1973,-3.0627,-2.9939,-2.9295,-2.8652,-2.7974,-2.73,-2.6617,-2.5959,-2.5277,-2.4619,-2.3939,-2.3595,-2.3595,-2.3595,-2.3595,-2.355,-2.2278,-2.2284,-2.3156,-2.0751,-2.0591,-2.1949,-2.1279,-2.1244,-2.1658,-2.212,-2.2296,-2.2335,-2.2599,-2.2923,-2.3247,-2.3577,-2.3917,-2.4237,-2.4426,-2.4503,-2.4417,-2.3942,-2.3386,-2.2898,-2.2898,-2.1723,-2.0498,-2.05,-2.0507,-2.048,-2.042,-2.0342,-2.0266,-2.0123,-1.9936,-1.9676,-1.9273,-1.8876,-1.8508,-1.8249,-1.7982,-1.7883,-1.8156,-1.8198,-1.7931,-1.718,-1.775,-1.7535,-1.5787,-1.6921,-1.7214,-1.5819,-1.6054,-1.615,-1.5812,-1.5799,-1.5595,-1.5134,-1.4721,-1.431,-1.3917,-1.3442,-1.3198,-1.3198,-1.3198,-1.3198,-1.3185,-1.2651,-1.1897,-3.8929,-3.9612,-4.0697,-4.2361,-4.1849,-4.1154,-4.1953,0.0,0.0,0.0,-4.3053,-4.3645,-4.4436,-4.4261,-4.3711,-4.2812,0.0,0.0,0.0,0.0,0.0,0.0,-3.4957,-3.3799,0.0,-3.2183,-3.0971,-3.0537,-2.952,-2.8816,-2.8607,-2.7974,-2.7285,-2.6617,-2.5959,-2.5277,-2.4619,-2.3939,-2.3595,-2.3595,-2.3595,-2.337,-2.2972,-2.2568,-2.2335,-2.2158,-2.1194,-2.0916,-2.1136,-2.1327,-2.1322,-2.126,-2.202,-2.2296,-2.231,-2.2402,-2.2742,-2.323,-2.3323,-2.3724,-2.4209,-2.4266,-2.4393,-2.4472,-2.432,-2.3923,-2.3299,-2.2349,-2.1749,-2.1257,-2.0656,-2.0508,-2.0481,-2.0422,-2.0345,-2.0285,-2.026,-2.0016,-1.9712,-1.9395,-1.9083,-1.8789,-1.8518,-1.8249,-1.8156,-1.843,-1.8156,-1.7729,-1.7161,-1.7587,-1.752,-1.6462,-1.6403,-1.6329,-1.6059,-1.6399,-1.6501,-1.6163,-1.5926,-1.5595,-1.5119,-1.4705,-1.431,-1.3917,-1.3442,-1.3198,-1.3198,-1.3198,-1.3198,-1.3173,-1.2262,-1.1918,0.0,-4.1739,-4.2551,-4.3882,-4.307,0.0,0.0,0.0,0.0,0.0,0.0,0.0,0.0,0.0,0.0,0.0,0.0,0.0,0.0,0.0,0.0,0.0,0.0,0.0,0.0,-3.124,-3.0417,-3.0178,-2.919,-2.8607,-2.8607,-2.7974,-2.718,-2.6243,-2.5824,-2.5166,-2.4231,-2.3819,-2.3595,-2.3595,-2.3595,-2.34,-2.3032,-2.2808,-2.2598,-2.2373,-2.1463,-2.1076,0.0,-2.1292,-2.1228,-2.1087,-2.1959,-2.2296,-2.2296,-2.2296,-2.2594,-2.3033,-2.3153,-2.3555,-2.4026,-2.4161,-2.4393,-2.4607,-2.4607,-2.424,-2.3577,-2.2462,-2.1965,-2.1646,-2.1113,-2.0778,-2.0537,-2.0482,-2.0393,-2.0332,-2.0332,-2.005,-1.9724,-1.9449,-1.9185,-1.8914,-1.8659,-1.846,-1.844,-1.8715,-1.8381,-1.7994,-1.7697,-1.7831,-1.7627,-1.6794,-1.6614,-1.6505,-1.6404,-1.6184,-1.6062,-1.6107,-1.5927,-1.5595,-1.5119,-1.4705,-1.431,-1.3917,-1.3442,-1.3198,-1.3198,-1.2998,-1.2902,-1.2872,-1.1849,-1.1566,0.0,0.0,0.0,0.0,0.0,0.0,0.0,0.0,0.0,0.0,0.0,0.0,0.0,0.0,0.0,0.0,0.0,0.0,0.0,0.0,0.0,0.0,-3.3455,0.0,-3.0687,-3.0462,-3.0178,-2.9577,-2.8906,-2.8532,-2.8532,-2.7944,-2.7001,-2.5644,-2.5615,-2.4956,-2.361,-2.3595,-2.3595,-2.3595,-2.3595,-2.3595,-2.358,-2.2987,-2.3032,-2.349,-2.154,-2.1081,-2.1669,-2.1163,-2.0959,-2.1071,-2.1915,-2.2268,-2.2296,-2.2296,-2.2477,-2.2746,-2.3057,-2.3403,-2.3764,-2.4094,-2.4461,-2.4782,-2.4782,-2.4365,-2.3788,-2.3141,-2.2402,-2.179,-2.1799,-2.1203,-2.0586,-2.0605,-2.0507,-2.0408,-2.0408,-2.0088,-1.9748,-1.9482,-1.9231,-1.8957,-1.8716,-1.8642,-1.8725,-1.8984,-1.877,-1.8576,-1.8595,-1.8351,-1.779,-1.6804,-1.731,-1.7406,-1.6686,-1.5583,-1.5208,-1.5825,-1.5827,-1.5595,-1.5119,-1.4679,-1.4242,-1.3851,-1.3378,-1.3123,-1.3085,-1.2588,-1.2337,-1.2325,-1.1396,-1.1023,0.0,0.0,0.0,0.0,0.0,0.0,0.0,0.0,0.0,0.0,0.0,0.0,0.0,0.0,0.0,0.0,0.0,0.0,0.0,0.0,0.0,-3.3804,-3.3051,-3.2153,-3.0657,-3.0073,-2.9535,-2.8876,-2.8214,-2.7839,-2.7839,-2.769,-2.7001,-2.5644,-2.5615,-2.4956,-2.361,-2.3595,-2.3595,-2.3595,-2.3595,-2.3595,-2.358,-2.2987,-2.3032,-2.349,-2.154,-2.1081,-2.1649,-2.0798,-2.0682,-2.1039,-2.1568,-2.1988,-2.2296,-2.2296,-2.2477,-2.2708,-2.2797,-2.32,-2.3764,-2.4094,-2.4366,-2.4559,-2.4559,-2.4757,-2.4768,-2.3908,-2.3157,-2.2491,-2.1947,-2.1153,-2.0539,-2.0586,-2.0507,-2.0408,-2.0408,-2.0164,-1.9934,-1.9865,-1.9638,-1.9442,-1.938,-1.9107,-1.8974,-1.9206,-1.8707,-1.8371,-1.8566,-1.8187,-1.7583,-1.6783,-1.668,-1.6463,-1.5973,-1.618,-1.6394,-1.6567,-1.608,-1.5595,-1.5119,-1.4318,-1.3676,-1.3216,-1.2807,-1.2391,-1.1977,-1.1839,-1.1789,-1.1763,-1.1084,-1.1253,0.0,0.0,0.0,0.0,0.0,0.0,0.0,0.0,0.0,0.0,0.0,0.0,0.0,0.0,0.0,0.0,0.0,0.0,0.0,0.0,0.0,-3.2795,-3.2003,-3.1195,-3.0178,-2.9505,-2.8981,-2.8622,-2.7989,-2.7735,-2.8049,-2.7764,-2.7001,-2.5644,-2.5615,-2.4956,-2.361,-2.3595,-2.3595,-2.3595,-2.3595,-2.3595,-2.3595,-2.3251,-2.3152,-2.3122,-2.1754,-2.1201,-2.1195,-2.0569,-2.0449,-2.0732,-2.1368,-2.1764,-2.2003,-2.2223,-2.2402,-2.2523,-2.266,-2.3141,-2.3767,-2.4192,-2.4419,-2.4503,-2.4503,-2.4763,-2.4971,-2.4531,-2.3621,-2.277,-2.2886,-2.1702,-2.0612,-2.1093,-2.0808,-2.0435,-2.0414,-2.0215,-2.0025,-1.9919,-1.9738,-1.9562,-1.9485,-1.9285,-1.9142,-1.9158,-1.8717,-1.8391,-1.841,-1.7769,-1.7042,-1.6406,-1.6129,-1.5792,-1.5338,-1.6045,-1.6463,-1.6351,-1.5997,-1.5476,-1.4761,-1.4198,-1.3591,-1.2969,-1.2599,-1.2266,-1.1964,-1.1728,-1.1603,-1.159,-1.0983,-1.1309,0.0,0.0,0.0,0.0,0.0,0.0,0.0,0.0,0.0,0.0,0.0,0.0,0.0,0.0,0.0,0.0,0.0,0.0,-3.6082,-3.4372,-3.2939,-3.1518,-3.0748,-3.0073,-2.9367,-2.8861,-2.8562,-2.8457,-2.7929,-2.7803,-2.8256,-2.7748,-2.6832,-2.5465,-2.544,-2.4866,-2.361,-2.3505,-2.3505,-2.3595,-2.3505,-2.3505,-2.3595,-2.3595,-2.331,-2.2808,-2.2128,-2.153,-2.0966,-2.0526,-2.046,-2.0677,-2.1262,-2.1602,-2.1792,-2.2154,-2.2296,-2.2335,-2.2612,-2.3069,-2.3642,-2.4201,-2.4399,-2.4434,-2.4452,-2.4591,-2.4771,-2.4891,-2.3888,-2.3009,-2.3945,-2.244,-2.0899,-2.1718,-2.1186,-2.048,-2.04,-2.0261,-2.0072,-1.9912,-1.9732,-1.9589,-1.9416,-1.9335,-1.9235,-1.9077,-1.8825,-1.8576,-1.8351,-1.7535,-1.6774,-1.6207,-1.6054,-1.5704,-1.4977,-1.571,-1.6088,-1.58,-1.5775,-1.5305,-1.425,-1.4053,-1.3599,-1.2802,-1.2487,-1.226,-1.2137,-1.1864,-1.1625,-1.145,-1.1034,-1.1397,-4.5924,0.0,0.0,0.0,0.0,0.0,0.0,0.0,0.0,0.0,0.0,0.0,0.0,0.0,0.0,0.0,0.0,-3.6033,0.0,0.0,-3.2284,-3.0829,-3.0103,-2.9262,-2.8019,-2.8323,-2.8353,-2.7809,-2.766,-2.7376,-2.684,-2.6781,-2.6095,-2.4708,-2.4722,-2.438,-2.361,-2.3092,-2.3092,-2.3595,-2.3092,-2.3122,-2.3595,-2.3595,-2.355,-2.343,-2.2823,-2.2493,-2.2298,-2.1128,-2.1162,-2.1938,-2.1323,-2.1648,-2.2421,-2.2341,-2.2296,-2.2335,-2.2612,-2.2772,-2.2972,-2.3603,-2.3936,-2.4091,-2.4219,-2.4393,-2.4543,-2.4575,-2.4114,-2.3701,-2.4105,-2.286,-2.1586,-2.1834,-2.1186,-2.048,-2.04,-2.0335,-2.0263,-2.0226,-1.9981,-1.9768,-1.9725,-1.9497,-1.9289,-1.9251,-1.9076,-1.8923,-1.8887,-1.8535,-1.8042,-1.733,-1.7571,-1.7143,-1.553,-1.5893,-1.6068,-1.5731,-1.5722,-1.5143,-1.3861,-1.356,-1.3065,-1.2315,-1.2141,-1.169,-1.0957,-1.1848,-1.1773,-1.0845,-1.1274,-1.1801,-4.5932,-4.5445,0.0,0.0,0.0,0.0,0.0,0.0,0.0,0.0,0.0,0.0,0.0,0.0,0.0,0.0,0.0,-3.4069,-3.3119,-3.1818,-3.0612,-2.9585,-2.8918,-2.8423,-2.8184,-2.7731,-2.7345,-2.7037,-2.6628,-2.6269,-2.5919,-2.5643,-2.5178,-2.4521,-2.4238,-2.3954,-2.361,-2.3002,-2.3002,-2.3595,-2.331,-2.3325,-2.3595,-2.3595,-2.3415,-2.3107,-2.2823,-2.2493,-2.2119,-2.15,-2.1527,-2.1961,-2.1766,-2.1771,-2.1901,-2.1924,-2.2092,-2.2335,-2.2612,-2.2708,-2.281,-2.3488,-2.3769,-2.3885,-2.4133,-2.4257,-2.4357,-2.4469,-2.4091,-2.3807,-2.4508,-2.3203,-2.1843,-2.2407,-2.1523,-2.0539,-2.0474,-2.0391,-2.0305,-2.0114,-1.9938,-1.9737,-1.9553,-1.9398,-1.9259,-1.915,-1.906,-1.8949,-1.8798,-1.8333,-1.7897,-1.7644,-1.7248,-1.6712,-1.5992,-1.5906,-1.5825,-1.5703,-1.5566,-1.5039,-1.4056,-1.3577,-1.3044,-1.2384,-1.249,-1.2247,-1.1623,-1.2137,-1.1974,-1.1199,-1.1462,-1.1889,-4.5726,-4.5116,0.0,0.0,0.0,0.0,0.0,0.0,0.0,0.0,0.0,0.0,0.0,0.0,0.0,-3.6152,-3.4217,-3.253,-3.1762,-3.0289,-2.9048,-2.8419,-2.7747,-2.7487,-2.7806,-2.6878,-2.6229,-2.6229,-2.5728,-2.5315,-2.5147,-2.4746,-2.442,-2.4259,-2.3865,-2.3642,-2.361,-2.3152,-2.3152,-2.3595,-2.3445,-2.346,-2.3595,-2.3595,-2.334,-2.2912,-2.2912,-2.2628,-2.2128,-2.1979,-2.2009,-2.2139,-2.208,-2.1781,-2.1392,-2.1532,-2.1899,-2.2321,-2.2537,-2.2612,-2.2712,-2.3369,-2.3577,-2.366,-2.4074,-2.419,-2.4237,-2.4384,-2.4134,-2.3997,-2.4863,-2.3568,-2.2185,-2.2935,-2.1829,-2.0585,-2.0513,-2.0617,-2.0558,-2.0088,-2.0057,-1.997,-1.9506,-1.9357,-1.9316,-1.9356,-1.934,-1.928,-1.9066,-1.8538,-1.8168,-1.8075,-1.7196,-1.6553,-1.6413,-1.6066,-1.5873,-1.5936,-1.5827,-1.5455,-1.4758,-1.4169,-1.3651,-1.3235,-1.325,-1.3078,-1.2695,-1.2823,-1.262,-1.2097,-1.221,-1.2445,-4.5066,-4.4519,0.0,0.0,0.0,0.0,0.0,0.0,0.0,0.0,0.0,0.0,0.0,0.0,-3.4317,-3.3816,-3.2041,-3.0902,-3.1432,-2.9858,-2.8378,-2.7679,-2.7006,-2.6324,-2.5688,-2.5536,-2.5481,-2.5481,-2.5425,-2.5091,-2.4436,-2.445,-2.4187,-2.3496,-2.3557,-2.3596,-2.3595,-2.355,-2.355,-2.3595,-2.3032,-2.3062,-2.3595,-2.3595,-2.358,-2.3535,-2.3535,-2.3505,-2.3415,-2.2868,-2.2972,-2.3308,-2.1915,-2.1462,-2.1572,-2.1583,-2.1899,-2.231,-2.2307,-2.2321,-2.2429,-2.3038,-2.3242,-2.3357,-2.4006,-2.419,-2.4199,-2.4218,-2.4466,-2.4768,-2.5036,-2.4013,-2.294,-2.307,-2.1829,-2.0585,-2.0513,-2.1081,-2.1337,-2.0446,-2.068,-2.0739,-1.9918,-1.9518,-1.9546,-2.0285,-2.0395,-2.0386,-2.037,-2.0323,-2.0002,-1.9256,-1.8725,-1.7945,-1.6775,-1.6635,-1.6627,-1.6636,-1.6951,-1.6825,-1.6085,-1.5485,-1.5226,-1.537,-1.4486,-1.3869,-1.3618,-1.4108,-1.4067,-1.3563,-1.4068,-1.4119,-4.4991,-4.4821,0.0,0.0,0.0,0.0,0.0,0.0,0.0,0.0,0.0,0.0,0.0,0.0,-3.5366,-3.2641,-3.1994,-3.1137,-2.9292,-2.8391,-2.7507,-2.6313,-2.5964,-2.5701,-2.5425,-2.4979,-2.4709,-2.4709,-2.3936,-2.3353,-2.3077,-2.2831,-2.2768,-2.2894,-2.2987,-2.3209,-2.3595,-2.3595,-2.3595,-2.3595,-2.3355,-2.3547,-2.4095,-2.4095,-2.4266,-2.4576,-2.4576,-2.441,-2.408,-2.3856,-2.3709,-2.3488,-2.2355,-2.2157,-2.2408,-2.1819,-2.1899,-2.2296,-2.2296,-2.2296,-2.2363,-2.2751,-2.3033,-2.3288,-2.3753,-2.4026,-2.419,-2.419,-2.4486,-2.4814,-2.4892,-2.4324,-2.3752,-2.3776,-2.2971,-2.2051,-2.1482,-2.1532,-2.1407,-2.0421,-2.0325,-2.0429,-2.042,-2.0327,-2.0485,-2.1205,-2.1308,-2.1308,-2.1308,-2.1308,-2.0978,-2.0152,-1.9332,-1.8199,-1.6595,-1.7335,-1.7474,-1.6507,-1.7343,-1.7378,-1.6315,-1.6593,-1.6235,-1.5064,-1.5046,-1.4761,-1.4202,-1.4406,-1.4503,-1.4509,-1.4502,-1.4521,-4.466,-4.4521,0.0,0.0,0.0,0.0,0.0,0.0,0.0,0.0,0.0,0.0,0.0,0.0,0.0,0.0,-3.1387,-3.0379,-2.759,-2.7025,-2.6302,-2.4696,-2.4518,-2.4476,-2.4428,-2.3945,-2.367,-2.367,-2.283,-2.2308,-2.2331,-2.2062,-2.22,-2.2846,-2.2942,-2.3187,-2.3595,-2.3595,-2.3595,-2.3595,-2.3595,-2.3879,-2.441,-2.441,-2.4692,-2.5202,-2.5202,-2.4989,-2.4637,-2.4637,-2.4306,-2.3723,-2.3134,-2.3059,-2.3182,-2.2277,-2.2247,-2.2615,-2.2381,-2.2296,-2.2349,-2.2612,-2.2935,-2.3259,-2.3599,-2.3927,-2.419,-2.419,-2.4486,-2.4804,-2.4804,-2.451,-2.4197,-2.4197,-2.3666,-2.3008,-2.2402,-2.2211,-2.1845,-2.0869,-2.0754,-2.0821,-2.0851,-2.1047,-2.141,-2.2077,-2.218,-2.2088,-2.1831,-2.1794,-2.1321,-2.0053,-1.929,-1.8342,-1.7011,-1.7947,-1.8152,-1.7099,-1.7927,-1.7996,-1.694,-1.7406,-1.7014,-1.5552,-1.5825,-1.5735,-1.5227,-1.5227,-1.5345,-1.5563,-1.533,-1.5212,-4.3926,-4.3405,0.0,0.0,0.0,0.0,0.0,0.0,0.0,0.0,0.0,0.0,0.0,0.0,0.0,-3.1429,-2.9852,-2.8114,-2.675,-2.6009,-2.4824,-2.2818,-2.2604,-2.2517,-2.2304,-2.2297,-2.2297,-2.2297,-2.2297,-2.2331,-2.2389,-2.2525,-2.2857,-2.3474,-2.357,-2.3595,-2.3595,-2.3595,-2.3595,-2.3595,-2.3595,-2.3879,-2.441,-2.441,-2.4697,-2.5221,-2.5205,-2.5221,-2.5221,-2.5186,-2.4788,-2.42,-2.4184,-2.4067,-2.3786,-2.2994,-2.2995,-2.3291,-2.2564,-2.2296,-2.2349,-2.2612,-2.2923,-2.3247,-2.3588,-2.3927,-2.419,-2.419,-2.4486,-2.4804,-2.4804,-2.451,-2.4217,-2.4217,-2.3666,-2.3125,-2.3105,-2.3118,-2.2818,-2.1887,-2.2182,-2.2254,-2.121,-2.1575,-2.2232,-2.2904,-2.3006,-2.2712,-2.1923,-2.1812,-2.0988,-1.8856,-1.8622,-1.8499,-1.8211,-1.845,-1.8604,-1.8604,-1.8843,-1.8761,-1.8229,-1.7891,-1.7586,-1.732,-1.6993,-1.6802,-1.6802,-1.6802,-1.6802,-1.6802,-1.6802,-1.6372,-4.3884,0.0,0.0,0.0,0.0,0.0,0.0,0.0,0.0,0.0,0.0,0.0,0.0,0.0,0.0,-2.9841,-2.9268,-2.811,-2.4955,-2.4325,-2.36,-2.1994,-2.1829,-2.1809,-2.1747,-2.1732,-2.1732,-2.1732,-2.1408,-2.1366,-2.1799,-2.1914,-2.2263,-2.2913,-2.3356,-2.3595,-2.3595,-2.3595,-2.3595,-2.3595,-2.3595,-2.4074,-2.4969,-2.4969,-2.5433,-2.6229,-2.5712,-2.5588,-2.5693,-2.4802,-2.3991,-2.3339,-2.3156,-2.3047,-2.3012,-2.3141,-2.2935,-2.2682,-2.297,-2.2719,-2.2307,-2.2385,-2.2768,-2.3212,-2.3323,-2.3753,-2.419,-2.419,-2.4486,-2.4804,-2.4804,-2.4924,-2.5066,-2.5106,-2.5016,-2.4766,-2.4141,-2.353,-2.2998,-2.2682,-2.2228,-2.2134,-2.284,-2.3012,-2.3274,-2.3952,-2.3934,-2.3768,-2.352,-2.2997,-2.2181,-2.0979,-2.0307,-1.9447,-1.8231,-1.8713,-1.8845,-1.8292,-1.8846,-1.8999,-1.8499,-1.8393,-1.8104,-1.7597,-1.7304,-1.7039,-1.6802,-1.6802,-1.693,-1.715,-1.6917,-1.6796,-4.337,0.0,0.0,0.0,0.0,0.0,0.0,0.0,0.0,0.0,0.0,-3.4881,-3.4554,-3.3854,0.0,-2.9329,-2.8768,-2.7427,-2.3772,-2.3241,-2.2635,-2.1029,-2.0815,-2.0903,-2.1169,-2.1182,-2.1182,-2.1182,-2.088,-2.087,-2.126,-2.1556,-2.1993,-2.2672,-2.329,-2.3595,-2.3595,-2.3595,-2.3595,-2.3595,-2.3595,-2.4158,-2.5202,-2.5202,-2.5746,-2.6657,-2.593,-2.5681,-2.5762,-2.469,-2.4011,-2.357,-2.3405,-2.3351,-2.3398,-2.3725,-2.3359,-2.2801,-2.3241,-2.2919,-2.2296,-2.2296,-2.2712,-2.32,-2.32,-2.3671,-2.4218,-2.4294,-2.4543,-2.4818,-2.4876,-2.5132,-2.5424,-2.5473,-2.5573,-2.5525,-2.5019,-2.4236,-2.3601,-2.355,-2.3065,-2.2898,-2.3697,-2.3942,-2.4154,-2.4556,-2.4184,-2.3805,-2.3722,-2.2923,-2.2063,-2.1242,-2.0686,-1.9857,-1.8573,-1.8987,-1.9095,-1.861,-1.904,-1.9162,-1.8886,-1.8798,-1.8539,-1.8066,-1.7782,-1.7562,-1.7351,-1.7248,-1.7301,-1.7502,-1.7301,-1.7224,0.0,0.0,0.0,0.0,0.0,0.0,0.0,0.0,0.0,0.0,0.0,-3.4455,-3.432,-3.2147,-3.0138,-2.9436,-2.8214,-2.626,-2.3049,-2.2616,-2.1916,-2.0029,-1.9798,-2.0012,-2.0566,-2.0616,-2.0616,-2.0616,-2.0616,-2.0666,-2.0797,-2.1366,-2.1993,-2.2672,-2.329,-2.3595,-2.3595,-2.3595,-2.3595,-2.3595,-2.3595,-2.4137,-2.5125,-2.5182,-2.5713,-2.6573,-2.5964,-2.5592,-2.5355,-2.4745,-2.4423,-2.4305,-2.4305,-2.4305,-2.4321,-2.444,-2.4,-2.3325,-2.3444,-2.297,-2.231,-2.2321,-2.2721,-2.32,-2.3242,-2.3714,-2.4275,-2.4444,-2.4654,-2.4849,-2.4968,-2.5187,-2.5413,-2.5465,-2.5551,-2.5628,-2.5682,-2.5019,-2.4413,-2.4499,-2.434,-2.4175,-2.4062,-2.4459,-2.4799,-2.4804,-2.4012,-2.3357,-2.3197,-2.2301,-2.1388,-2.0598,-2.0508,-2.0172,-1.9374,-1.9374,-1.9445,-1.9468,-1.9357,-1.9305,-1.932,-1.9127,-1.8861,-1.8622,-1.8341,-1.8187,-1.8156,-1.7916,-1.78,-1.78,-1.7867,-1.7747,0.0,0.0,0.0,0.0,0.0,0.0,0.0,0.0,0.0,0.0,-3.4605,-3.4155,-3.2987,-3.1803,-3.0316,-2.8197,-2.7114,-2.5468,-2.2343,-2.1928,-2.138,-1.9952,-1.9798,-1.9849,-1.9974,-1.9987,-1.9987,-1.9987,-1.9987,-2.0233,-2.0784,-2.1366,-2.1993,-2.2672,-2.329,-2.3595,-2.3595,-2.3595,-2.3595,-2.3595,-2.3595,-2.3927,-2.4592,-2.5012,-2.5417,-2.5862,-2.6285,-2.5473,-2.39,-2.4321,-2.3831,-2.2784,-2.2784,-2.2784,-2.2919,-2.4068,-2.3663,-2.2699,-2.3864,-2.3393,-2.2335,-2.255,-2.289,-2.3247,-2.3522,-2.4001,-2.4435,-2.4486,-2.4723,-2.4962,-2.4998,-2.5154,-2.5339,-2.5417,-2.5503,-2.5603,-2.5629,-2.4977,-2.4589,-2.5218,-2.4728,-2.4386,-2.4972,-2.5003,-2.493,-2.4825,-2.4473,-2.4292,-2.4392,-2.4064,-2.357,-2.2854,-2.2801,-2.2464,-2.1671,-2.0912,-2.0532,-2.069,-1.9821,-1.9365,-1.9527,-1.9182,-1.8861,-1.8622,-1.8341,-1.811,-1.79,-1.7833,-1.78,-1.7817,-1.8386,-1.8621,0.0,0.0,0.0,0.0,0.0,0.0,0.0,0.0,0.0,-3.4753,-3.393,-3.3224,-3.2446,-3.1413,-2.9953,-2.7765,-2.6768,-2.5139,-2.1786,-2.1531,-2.1124,-1.9598,-1.9648,-1.9798,-1.9798,-1.9475,-1.9423,-1.9773,-1.9228,-1.9319,-2.0257,-2.0965,-2.1583,-2.2193,-2.3106,-2.3595,-2.3595,-2.3595,-2.3595,-2.3595,-2.3595,-2.4012,-2.4796,-2.5335,-2.5442,-2.523,-2.5511,-2.4795,-2.3393,-2.3427,-2.3071,-2.249,-2.2349,-2.2374,-2.2648,-2.3992,-2.3797,-2.2987,-2.4118,-2.378,-2.2807,-2.2729,-2.2935,-2.3259,-2.3599,-2.406,-2.4528,-2.4615,-2.4823,-2.5022,-2.5111,-2.5219,-2.5303,-2.5333,-2.544,-2.5559,-2.5598,-2.5307,-2.5156,-2.5561,-2.5227,-2.4986,-2.5371,-2.5286,-2.5072,-2.4821,-2.4771,-2.4752,-2.4797,-2.4708,-2.4347,-2.3577,-2.3162,-2.2602,-2.179,-2.0854,-2.0345,-2.037,-1.9792,-1.9456,-1.9464,-1.9261,-1.9034,-1.8798,-1.8528,-1.8259,-1.7992,-1.7992,-1.7927,-1.7828,-1.8839,-1.9178,0.0,0.0,0.0,0.0,0.0,0.0,0.0,0.0,0.0,-3.5004,-3.3472,-3.2349,-3.2077,-3.0859,-2.9334,-2.7624,-2.6651,-2.4951,-2.1639,-2.1402,-2.0914,-1.9189,-1.9283,-1.9468,-1.9468,-1.8879,-1.8785,-1.9417,-1.85,-1.8378,-1.9484,-2.0408,-2.1107,-2.1545,-2.2877,-2.3595,-2.3595,-2.3595,-2.3595,-2.3595,-2.3595,-2.4055,-2.4891,-2.555,-2.5513,-2.4927,-2.4622,-2.4085,-2.3342,-2.275,-2.2559,-2.2612,-2.2388,-2.244,-2.2785,-2.4052,-2.3949,-2.3325,-2.4203,-2.3932,-2.3161,-2.2881,-2.2972,-2.3271,-2.3671,-2.4145,-2.4602,-2.4753,-2.4917,-2.5094,-2.5259,-2.5308,-2.5308,-2.5308,-2.5395,-2.5493,-2.5564,-2.5635,-2.5683,-2.5703,-2.5657,-2.5588,-2.5508,-2.5391,-2.5224,-2.4923,-2.4956,-2.4968,-2.4889,-2.4867,-2.4565,-2.3878,-2.3209,-2.2552,-2.1874,-2.0886,-2.0249,-2.0158,-1.9962,-1.9787,-1.9594,-1.9704,-1.9591,-1.9217,-1.8851,-1.8537,-1.827,-1.827,-1.8225,-1.8176,-1.9405,-1.9794,0.0,0.0,0.0,0.0,0.0,0.0,0.0,0.0,0.0,0.0,-3.3468,-3.2511,-3.1165,-2.9946,-2.871,-2.7366,-2.6121,-2.4619,-2.2566,-2.1539,-2.0516,-1.915,-1.8499,-1.8139,-1.8139,-1.7912,-1.7859,-1.8124,-1.8003,-1.8039,-1.8394,-2.0003,-2.0927,-2.101,-2.2681,-2.3595,-2.3595,-2.3595,-2.3595,-2.3595,-2.3595,-2.3576,-2.3592,-2.4777,-2.537,-2.5461,-2.4798,-2.4085,-2.3393,-2.3291,-2.2897,-2.2349,-2.2307,-2.2307,-2.2533,-2.3964,-2.3628,-2.2634,-2.4017,-2.3596,-2.2524,-2.2975,-2.3165,-2.3323,-2.3937,-2.4435,-2.4768,-2.479,-2.5012,-2.5264,-2.5284,-2.5308,-2.5308,-2.5308,-2.5359,-2.5434,-2.551,-2.5563,-2.5633,-2.5683,-2.5657,-2.5559,-2.5438,-2.5409,-2.5348,-2.5259,-2.5094,-2.5065,-2.5203,-2.5077,-2.5009,-2.5055,-2.4969,-2.4854,-2.4744,-2.3195,-2.2271,-2.2379,-2.1453,-2.086,-2.079,-2.1318,-2.1145,-2.0056,-1.9317,-1.8807,-1.8547,-1.8547,-1.89,-1.9553,-2.0374,-2.1089,0.0,0.0,0.0,0.0,0.0,0.0,0.0,0.0,-3.691,-3.5569,-3.476,-3.3746,-3.1925,-3.0352,-2.8986,-2.7898,-2.6552,-2.482,-2.2394,-2.1886,-2.1004,-1.8808,-1.8528,-1.835,-1.7932,-1.7455,-1.7368,-1.7877,-1.7227,-1.737,-1.8577,-1.9782,-2.0717,-2.1334,-2.2805,-2.3595,-2.3595,-2.3595,-2.3595,-2.3595,-2.3595,-2.351,-2.3363,-2.3784,-2.395,-2.3947,-2.4332,-2.3848,-2.2784,-2.2784,-2.2677,-2.2514,-2.2363,-2.2402,-2.262,-2.3549,-2.346,-2.3004,-2.3661,-2.346,-2.2949,-2.3142,-2.32,-2.3351,-2.4135,-2.4559,-2.4825,-2.4891,-2.5096,-2.5308,-2.5308,-2.5308,-2.5308,-2.5308,-2.5312,-2.5364,-2.5488,-2.5554,-2.5629,-2.5683,-2.5657,-2.5566,-2.5463,-2.5425,-2.5376,-2.5308,-2.5219,-2.5203,-2.5298,-2.5219,-2.5208,-2.5279,-2.4909,-2.462,-2.462,-2.3444,-2.2719,-2.2686,-2.2214,-2.1874,-2.1733,-2.2008,-2.1925,-2.1395,-2.0247,-1.9542,-1.9261,-1.9422,-1.9825,-2.0502,-2.1586,-2.2085,0.0,0.0,0.0,0.0,0.0,0.0,0.0,0.0,-3.7469,0.0,-3.598,-3.4974,-3.2885,-3.1049,-2.943,-2.8187,-2.6928,-2.529,-2.2867,-2.253,-2.1621,-1.9121,-1.8795,-1.8443,-1.7693,-1.6859,-1.6662,-1.7347,-1.6432,-1.6689,-1.8708,-1.962,-2.0604,-2.1722,-2.295,-2.3595,-2.3595,-2.3595,-2.3595,-2.3595,-2.3595,-2.3502,-2.3292,-2.3296,-2.2989,-2.2577,-2.3528,-2.3308,-2.2296,-2.2296,-2.2412,-2.2573,-2.2374,-2.2426,-2.2659,-2.3189,-2.3274,-2.3154,-2.3442,-2.3386,-2.324,-2.3287,-2.3335,-2.3464,-2.4256,-2.4639,-2.4821,-2.4962,-2.5146,-2.5308,-2.5308,-2.5308,-2.5308,-2.5308,-2.5308,-2.5339,-2.546,-2.5563,-2.5636,-2.5683,-2.5657,-2.557,-2.5503,-2.545,-2.5372,-2.5308,-2.5308,-2.5308,-2.5308,-2.5308,-2.5308,-2.5308,-2.4755,-2.4394,-2.4394,-2.3624,-2.3088,-2.2981,-2.2939,-2.2812,-2.2615,-2.2776,-2.2748,-2.2492,-2.15,-2.078,-2.0363,-2.0309,-2.0689,-2.1536,-2.2537,-2.2872,0.0,0.0,0.0,0.0,0.0,0.0,0.0,0.0,-3.7802,-3.6874,-3.6555,-3.5748,-3.3487,-3.1679,-2.9851,-2.7693,-2.6871,-2.6084,-2.4992,-2.3544,-2.2094,-2.0726,-1.9076,-1.7745,-1.694,-1.5858,-1.544,-1.6047,-1.5617,-1.6209,-1.8231,-1.9453,-2.0648,-2.1852,-2.2993,-2.3595,-2.3595,-2.3595,-2.3595,-2.3595,-2.3595,-2.3402,-2.3054,-2.3731,-2.342,-2.2319,-2.2398,-2.2364,-2.2296,-2.2296,-2.231,-2.2324,-2.231,-2.231,-2.2409,-2.3122,-2.297,-2.2505,-2.3519,-2.3365,-2.2837,-2.3466,-2.3671,-2.3788,-2.4338,-2.4639,-2.4821,-2.4962,-2.5146,-2.5308,-2.5308,-2.5308,-2.5308,-2.5308,-2.5308,-2.5339,-2.546,-2.5603,-2.5703,-2.5703,-2.5657,-2.557,-2.5503,-2.5444,-2.5383,-2.5308,-2.5308,-2.5308,-2.5308,-2.5308,-2.5308,-2.5308,-2.5269,-2.525,-2.525,-2.4509,-2.4028,-2.4024,-2.3837,-2.3644,-2.3455,-2.4056,-2.3935,-2.2978,-2.3077,-2.2728,-2.1879,-2.0939,-2.1311,-2.2905,-2.2978,-2.3382,0.0,0.0,0.0,0.0,0.0,0.0,0.0,-3.7825,-3.7296,-3.6959,-3.6842,-3.6197,-3.4109,-3.2406,-3.0704,-2.8881,-2.7813,-2.6755,-2.5493,-2.4636,-2.3278,-2.097,-2.0127,-1.9007,-1.7157,-1.6634,-1.6336,-1.6203,-1.635,-1.7147,-1.8732,-1.9971,-2.1173,-2.2387,-2.318,-2.3595,-2.3595,-2.3595,-2.3595,-2.3595,-2.3948,-2.3809,-2.3274,-2.366,-2.3375,-2.2548,-2.2365,-2.2296,-2.2296,-2.2296,-2.2296,-2.2296,-2.2296,-2.2296,-2.233,-2.2598,-2.2651,-2.2611,-2.3002,-2.3079,-2.3093,-2.3555,-2.3783,-2.3996,-2.453,-2.4795,-2.4974,-2.5192,-2.5279,-2.5308,-2.5342,-2.5363,-2.5383,-2.5411,-2.5465,-2.5513,-2.5554,-2.5635,-2.5703,-2.5703,-2.5657,-2.557,-2.5503,-2.5447,-2.5372,-2.5308,-2.5308,-2.5308,-2.5308,-2.5308,-2.5308,-2.5308,-2.5308,-2.5308,-2.5308,-2.5038,-2.487,-2.487,-2.4802,-2.4673,-2.448,-2.4822,-2.4738,-2.4179,-2.3797,-2.3368,-2.2823,-2.2567,-2.2969,-2.3966,-2.3966,-2.4053,0.0,0.0,0.0,0.0,0.0,0.0,0.0,0.0,-3.7462,-3.7431,-3.7202,-3.642,-3.4529,-3.334,-3.1998,-3.0006,-2.8991,-2.8054,-2.6958,-2.6281,-2.5123,-2.3014,-2.1716,-2.0289,-1.8389,-1.7393,-1.6935,-1.7123,-1.7182,-1.8026,-1.9936,-2.0811,-2.1781,-2.2966,-2.3385,-2.3595,-2.3595,-2.3595,-2.3595,-2.3595,-2.3886,-2.3767,-2.329,-2.3577,-2.3338,-2.271,-2.2804,-2.2629,-2.231,-2.2402,-2.2422,-2.2453,-2.2558,-2.2598,-2.2598,-2.2598,-2.2704,-2.2868,-2.2996,-2.3177,-2.3426,-2.3764,-2.4002,-2.4254,-2.4662,-2.4917,-2.5088,-2.536,-2.5406,-2.5387,-2.5415,-2.5428,-2.5444,-2.5501,-2.5552,-2.5602,-2.5602,-2.5658,-2.5683,-2.5662,-2.5606,-2.5549,-2.5488,-2.5404,-2.535,-2.5303,-2.5308,-2.5308,-2.5308,-2.5308,-2.5308,-2.5308,-2.5308,-2.5308,-2.5308,-2.5308,-2.5269,-2.5208,-2.516,-2.5043,-2.4838,-2.4904,-2.4869,-2.47,-2.4254,-2.3977,-2.3862,-2.3613,-2.3872,-2.4591,-2.4537,-2.4393,0.0,0.0,0.0,0.0,0.0,0.0,-3.8448,0.0,-3.8385,-3.8283,-3.7585,-3.6463,-3.4671,-3.4431,-3.3641,-3.103,-3.0359,-3.0002,-2.9533,-2.8489,-2.7538,-2.6872,-2.3859,-2.1461,-2.0518,-1.8072,-1.7169,-1.8726,-1.8,-1.8799,-2.173,-2.1939,-2.2468,-2.3558,-2.3595,-2.3595,-2.3595,-2.3595,-2.3616,-2.3586,-2.3402,-2.3214,-2.3046,-2.3503,-2.3365,-2.2825,-2.3561,-2.3302,-2.2383,-2.263,-2.2721,-2.2746,-2.3081,-2.32,-2.32,-2.32,-2.32,-2.3247,-2.3577,-2.3714,-2.3785,-2.4103,-2.4339,-2.4546,-2.4752,-2.4941,-2.5161,-2.5435,-2.5493,-2.5491,-2.5496,-2.5498,-2.55,-2.5503,-2.554,-2.5605,-2.5605,-2.5641,-2.5682,-2.5606,-2.5549,-2.5488,-2.5408,-2.5333,-2.5284,-2.5284,-2.5298,-2.5293,-2.5293,-2.5293,-2.5298,-2.5279,-2.5284,-2.5284,-2.5308,-2.5284,-2.5208,-2.5016,-2.4864,-2.4708,-2.4512,-2.4321,-2.4303,-2.4486,-2.4512,-2.467,-2.4979,-2.4017,-2.3987,-2.4804,-2.4591,-2.4393,-3.8668,0.0,0.0,0.0,0.0,0.0,0.0,0.0,-3.8357,-3.7656,-3.7318,-3.6776,-3.5541,-3.4878,-3.424,-3.3394,-3.2323,-3.1447,-3.0909,-3.029,-2.9112,-2.7037,-2.5627,-2.3888,-2.1565,-2.0309,-1.967,-1.9743,-1.9857,-2.0507,-2.1838,-2.2672,-2.3271,-2.3595,-2.3595,-2.3595,-2.3595,-2.3595,-2.3525,-2.3391,-2.3725,-2.3869,-2.3866,-2.3848,-2.4168,-2.4689,-2.3779,-2.3553,-2.3783,-2.3279,-2.3057,-2.3069,-2.3165,-2.32,-2.32,-2.32,-2.3357,-2.3577,-2.3671,-2.3943,-2.4284,-2.4383,-2.4628,-2.4885,-2.4993,-2.5158,-2.5344,-2.552,-2.5543,-2.5492,-2.5492,-2.5468,-2.5447,-2.5493,-2.5502,-2.5534,-2.5534,-2.5545,-2.5561,-2.5598,-2.5513,-2.5415,-2.5406,-2.5226,-2.5088,-2.5088,-2.5006,-2.4948,-2.4948,-2.4948,-2.4975,-2.5077,-2.5088,-2.5146,-2.5298,-2.5163,-2.5052,-2.4991,-2.4864,-2.4708,-2.4512,-2.4602,-2.4528,-2.4284,-2.4652,-2.4852,-2.4862,-2.4676,-2.4715,-2.493,-2.4643,-2.4393,0.0,0.0,0.0,0.0,0.0,0.0,-3.834,-3.834,-3.8339,-3.7396,-3.6863,-3.6395,-3.578,-3.5305,-3.4961,-3.487,-3.4187,-3.3372,-3.2516,-3.1875,-3.0846,-2.9087,-2.718,-2.5273,-2.3382,-2.1803,-2.0979,-2.1175,-2.1275,-2.1713,-2.2555,-2.3235,-2.3595,-2.3595,-2.3595,-2.3595,-2.3595,-2.3815,-2.3717,-2.3299,-2.4204,-2.4514,-2.4242,-2.4469,-2.4997,-2.5683,-2.4415,-2.424,-2.4766,-2.4028,-2.3617,-2.3414,-2.3566,-2.3628,-2.3628,-2.3628,-2.3735,-2.3927,-2.4001,-2.4238,-2.452,-2.4591,-2.4802,-2.5027,-2.511,-2.5275,-2.5463,-2.5576,-2.5545,-2.5507,-2.5498,-2.5478,-2.5453,-2.55,-2.5491,-2.5491,-2.5491,-2.5488,-2.5479,-2.5515,-2.5456,-2.5391,-2.5363,-2.524,-2.5135,-2.5135,-2.5061,-2.5019,-2.5019,-2.5019,-2.5037,-2.5124,-2.5135,-2.5168,-2.5279,-2.5179,-2.5065,-2.493,-2.4842,-2.467,-2.4393,-2.4486,-2.4478,-2.4339,-2.4538,-2.467,-2.4678,-2.4891,-2.4937,-2.4783,-2.458,-2.4393,0.0,0.0,0.0,0.0,0.0,0.0,-3.7773,-3.7969,-3.8221,-3.7377,-3.6484,-3.5795,-3.5636,-3.5655,-3.5679,-3.5611,-3.5651,-3.5286,-3.412,-3.3298,-3.2582,-3.1892,-2.8633,-2.6199,-2.5672,-2.3147,-2.1972,-2.3041,-2.2553,-2.2636,-2.3663,-2.364,-2.3646,-2.3786,-2.3732,-2.3724,-2.3773,-2.4246,-2.4169,-2.3542,-2.4793,-2.5045,-2.4396,-2.5107,-2.5654,-2.5975,-2.5111,-2.4994,-2.5339,-2.4762,-2.4201,-2.3795,-2.4134,-2.4247,-2.4218,-2.4256,-2.4256,-2.4257,-2.4461,-2.4534,-2.4591,-2.4756,-2.4911,-2.5075,-2.5194,-2.5354,-2.5503,-2.5579,-2.5545,-2.5481,-2.5481,-2.5473,-2.5488,-2.5488,-2.5488,-2.5488,-2.5488,-2.5431,-2.5391,-2.5383,-2.5387,-2.5364,-2.5308,-2.5274,-2.5269,-2.5269,-2.5253,-2.5243,-2.5243,-2.5243,-2.5248,-2.5264,-2.5269,-2.5274,-2.5303,-2.5274,-2.5143,-2.4835,-2.4811,-2.4639,-2.4275,-2.4247,-2.4321,-2.4495,-2.4312,-2.433,-2.4503,-2.4818,-2.4811,-2.4503,-2.4503,-2.4393,0.0,0.0,0.0,0.0,-3.7559,0.0,-3.8262,-3.7949,-3.7499,-3.7259,-3.6954,-3.6524,-3.5818,-3.5642,-3.5621,-3.5596,-3.5652,-3.5537,-3.5078,-3.4601,-3.3682,-3.2066,-3.0157,-2.8621,-2.7723,-2.6277,-2.5512,-2.5737,-2.4708,-2.4171,-2.4395,-2.3894,-2.4051,-2.5029,-2.4533,-2.445,-2.4875,-2.4989,-2.5026,-2.4996,-2.526,-2.518,-2.4795,-2.495,-2.5208,-2.5486,-2.4679,-2.4727,-2.5339,-2.4762,-2.4338,-2.4142,-2.4526,-2.4486,-2.4247,-2.4551,-2.4575,-2.4469,-2.467,-2.4809,-2.4917,-2.4949,-2.5126,-2.5337,-2.5426,-2.5465,-2.5508,-2.552,-2.5463,-2.5418,-2.5418,-2.5376,-2.5344,-2.5344,-2.5344,-2.5344,-2.5344,-2.5326,-2.5327,-2.5322,-2.5327,-2.5317,-2.5293,-2.5163,-2.5071,-2.5071,-2.4975,-2.4908,-2.4908,-2.4908,-2.4942,-2.5053,-2.5071,-2.5116,-2.5298,-2.5152,-2.5022,-2.4962,-2.4862,-2.4768,-2.4685,-2.4537,-2.4452,-2.4503,-2.4461,-2.4461,-2.4503,-2.4719,-2.4719,-2.4503,-2.4503,-2.4393,0.0,0.0,0.0,-3.6641,-3.6973,0.0,0.0,-3.6992,-3.6913,-3.5539,-3.5882,-3.615,-3.5177,-3.5351,-3.5626,-3.5562,-3.5601,-3.5604,-3.5461,-3.5158,-3.4449,-3.3107,-3.1419,-3.0023,-2.9177,-2.779,-2.6962,-2.6962,-2.6348,-2.5988,-2.5988,-2.5683,-2.5587,-2.5847,-2.5521,-2.5401,-2.5498,-2.5737,-2.5798,-2.5702,-2.6507,-2.6406,-2.5502,-2.5666,-2.5844,-2.5933,-2.4722,-2.4707,-2.5495,-2.4906,-2.4583,-2.452,-2.4723,-2.4678,-2.4528,-2.4723,-2.4738,-2.4678,-2.4836,-2.4937,-2.5015,-2.5163,-2.5284,-2.5411,-2.5526,-2.5525,-2.5492,-2.5465,-2.5406,-2.5346,-2.5346,-2.5336,-2.5308,-2.5308,-2.5308,-2.5308,-2.5308,-2.5308,-2.5308,-2.5308,-2.5654,-2.5808,-2.5365,-2.5214,-2.5152,-2.5152,-2.509,-2.5056,-2.5056,-2.5056,-2.5086,-2.5146,-2.5152,-2.537,-2.5899,-2.5463,-2.5296,-2.5621,-2.5177,-2.4876,-2.4804,-2.47,-2.4599,-2.4503,-2.4401,-2.4348,-2.4348,-2.4444,-2.4444,-2.4348,-2.4348,-2.421,0.0,-3.5879,-3.5996,-3.5996,-3.6406,-3.6426,0.0,0.0,0.0,-3.3986,-3.4534,-3.5178,0.0,-3.4944,-3.5385,-3.529,-3.5452,-3.56,-3.5574,-3.5419,-3.4971,-3.4192,-3.2511,-3.1189,-3.0611,-2.9196,-2.8184,-2.7908,-2.792,-2.7874,-2.7729,-2.7668,-2.7476,-2.7127,-2.698,-2.6749,-2.6435,-2.6808,-2.6819,-2.6478,-2.7781,-2.7718,-2.6431,-2.6553,-2.6542,-2.6344,-2.4892,-2.4727,-2.5487,-2.5032,-2.4835,-2.4842,-2.4876,-2.4861,-2.4811,-2.4881,-2.4862,-2.4862,-2.5011,-2.5069,-2.511,-2.5336,-2.5411,-2.5468,-2.5548,-2.5535,-2.5473,-2.5406,-2.5344,-2.5308,-2.5308,-2.5308,-2.5308,-2.5308,-2.5308,-2.5308,-2.5308,-2.5308,-2.5346,-2.5519,-2.6115,-2.639,-2.5673,-2.5692,-2.5808,-2.5808,-2.5654,-2.5615,-2.5788,-2.5519,-2.5365,-2.5538,-2.5558,-2.5846,-2.6544,-2.6115,-2.5953,-2.6338,-2.5701,-2.5171,-2.4842,-2.4782,-2.4647,-2.4462,-2.4275,-2.419,-2.419,-2.419,-2.419,-2.419,-2.419,-2.4016,0.0,-3.541,-3.5996,-3.5996,-3.5488,-3.4941,-3.4746,0.0,-3.3984,-3.4433,0.0,-3.3713,-3.4445,0.0,0.0,0.0,-3.5097,-3.5582,-3.5515,-3.5541,-3.5271,-3.4526,-3.3562,-3.2863,-3.2592,-3.1943,-3.1038,-2.98,-2.9806,-2.9605,-2.8946,-2.8665,-2.9002,-3.0006,-2.9454,-2.8995,-2.8737,-2.8782,-2.8582,-2.8141,-2.8314,-2.8118,-2.7578,-2.6914,-2.6303,-2.5754,-2.4843,-2.4623,-2.4907,-2.4968,-2.498,-2.4992,-2.5176,-2.5068,-2.484,-2.5132,-2.513,-2.5004,-2.5203,-2.5302,-2.5352,-2.5383,-2.5471,-2.5568,-2.552,-2.5507,-2.5463,-2.5357,-2.5317,-2.5308,-2.5308,-2.5308,-2.5308,-2.5308,-2.5308,-2.5308,-2.5308,-2.5308,-2.5538,-2.6288,-2.6524,-2.6563,-2.6467,-2.7082,-2.7601,-2.7601,-2.6948,-2.6736,-2.7505,-2.625,-2.5596,-2.6365,-2.6447,-2.6486,-2.6601,-2.7217,-2.7308,-2.6619,-2.646,-2.5979,-2.5024,-2.4685,-2.4435,-2.4237,-2.4209,-2.419,-2.419,-2.419,-2.419,-2.419,-2.419,-2.4016,0.0,-3.4941,-3.5879,-3.5371,-3.5351,-3.5195,-3.418,-3.4043,-3.3828,-3.2611,0.0,0.0,0.0,0.0,0.0,0.0,-3.498,-3.5546,-3.557,-3.604,-3.6193,-3.5619,-3.5055,-3.4513,-3.3991,-3.4196,-3.3503,-3.143,-3.2039,-3.1952,-3.0679,-3.0801,-3.0938,-3.1034,-3.075,-3.0462,-3.0152,-2.9635,-2.9404,-2.9435,-2.8968,-2.8419,-2.778,-2.6979,-2.6267,-2.566,-2.4849,-2.4659,-2.493,-2.498,-2.5077,-2.5184,-2.5315,-2.5255,-2.5109,-2.5248,-2.5253,-2.5198,-2.5269,-2.5348,-2.5417,-2.5481,-2.5572,-2.5644,-2.558,-2.5537,-2.5471,-2.5383,-2.5326,-2.5308,-2.5308,-2.5308,-2.5308,-2.5308,-2.5692,-2.6058,-2.6058,-2.6447,-2.6928,-2.7274,-2.7736,-2.8044,-2.8044,-2.7972,-2.7895,-2.7895,-2.7582,-2.7486,-2.7857,-2.7255,-2.6948,-2.7313,-2.7351,-2.7351,-2.7351,-2.7236,-2.6986,-2.6621,-2.6028,-2.5476,-2.503,-2.4678,-2.4452,-2.4375,-2.4266,-2.419,-2.419,-2.419,-2.419,-2.419,-2.419,-2.4016,-3.4238,-3.4687,-3.5488,-3.4863,-3.5,-3.4902,-3.3418,-3.3555,-3.3535,-3.1806,-3.2043,0.0,0.0,0.0,0.0,0.0,0.0,-3.5522,0.0,-3.6405,-3.6879,-3.6532,-3.6425,-3.6157,-3.5571,-3.6132,-3.5563,-3.3249,-3.4179,-3.4064,-3.2338,-3.2711,-3.2798,-3.2399,-3.2166,-3.1941,-3.1706,-3.0853,-3.0352,-3.0191,-2.961,-2.8941,-2.8201,-2.739,-2.671,-2.6158,-2.533,-2.5024,-2.5088,-2.5088,-2.5189,-2.533,-2.5379,-2.5379,-2.535,-2.535,-2.5333,-2.5326,-2.5361,-2.5398,-2.5477,-2.5595,-2.566,-2.5683,-2.563,-2.5554,-2.5495,-2.5415,-2.5346,-2.5308,-2.5308,-2.5308,-2.5365,-2.5596,-2.6135,-2.6678,-2.6909,-2.7448,-2.7972,-2.8184,-2.8703,-2.9184,-2.941,-2.8967,-2.8582,-2.8582,-2.8371,-2.8319,-2.8544,-2.8179,-2.7992,-2.8203,-2.8222,-2.8222,-2.8222,-2.764,-2.7066,-2.6549,-2.5482,-2.4865,-2.4865,-2.4572,-2.4428,-2.4428,-2.4266,-2.419,-2.419,-2.419,-2.419,-2.419,-2.419,-2.4016,-3.5137,-3.4707,-3.4726,-3.4707,-3.4082,-3.3262,-3.2422,-3.2266,-3.248,-3.3164,-3.1902,-3.1445,-3.3959,0.0,0.0,0.0,0.0,0.0,0.0,-3.6405,-3.6999,-3.6972,-3.7472,-3.7763,-3.7614,-3.7744,-3.7132,-3.5425,-3.5998,-3.5608,-3.3736,-3.3966,-3.4364,-3.4866,-3.4133,-3.3725,-3.3702,-3.29,-3.1739,-3.021,-3.0173,-2.9883,-2.9318,-2.8444,-2.7831,-2.7399,-2.6581,-2.5878,-2.5279,-2.5279,-2.532,-2.5406,-2.5402,-2.5438,-2.5484,-2.5484,-2.544,-2.5401,-2.5463,-2.5543,-2.5603,-2.5662,-2.5703,-2.5683,-2.563,-2.5554,-2.5495,-2.5427,-2.5342,-2.5308,-2.5308,-2.5308,-2.5519,-2.6365,-2.6582,-2.6832,-2.7678,-2.7876,-2.8126,-2.8915,-2.9088,-2.9377,-3.0212,-3.0346,-3.0327,-3.0327,-2.9602,-2.9371,-3.0212,-2.8909,-2.8203,-2.8973,-2.9069,-2.9069,-2.9069,-2.905,-2.8244,-2.6416,-2.5179,-2.452,-2.452,-2.4321,-2.4209,-2.4209,-2.4199,-2.419,-2.419,-2.419,-2.419,-2.419,-2.419,-2.4016,-3.4021,-3.453,-3.5106,-3.404,-3.3987,-3.3836,-3.2499,-3.2207,-3.2246,-3.2433,-3.1963,-3.1958,-3.3313,0.0,0.0,0.0,0.0,0.0,0.0,0.0,-3.8441,-3.9514,-3.9744,-3.934,-3.8086,-3.8522,-3.7989,-3.5761,-3.6081,-3.5557,-3.3667,-3.3974,-3.4451,-3.4968,-3.4747,-3.4582,-3.4582,-3.3974,-3.2845,-3.1251,-3.0899,-3.032,-2.9542,-2.8142,-2.7508,-2.7419,-2.6047,-2.5392,-2.5293,-2.5342,-2.5379,-2.5404,-2.5506,-2.5526,-2.5491,-2.5491,-2.5495,-2.5488,-2.5547,-2.5572,-2.5606,-2.5682,-2.5703,-2.5683,-2.563,-2.5554,-2.5495,-2.5427,-2.5342,-2.5308,-2.5308,-2.5308,-2.5519,-2.639,-2.7044,-2.7678,-2.853,-2.914,-2.9635,-2.991,-2.9967,-3.0038,-3.0346,-3.0404,-3.0404,-3.0404,-3.0154,-3.0077,-3.0365,-2.9904,-2.9654,-2.9929,-2.9429,-2.8824,-2.8166,-2.7044,-2.6078,-2.5344,-2.4926,-2.4639,-2.4512,-2.4312,-2.419,-2.419,-2.419,-2.419,-2.419,-2.419,-2.419,-2.419,-2.419,-2.4141,-3.3732,-3.4221,-3.4646,-3.3907,-3.3916,-3.3758,-3.2431,-3.2124,-3.2205,-3.2455,-3.2228,-3.2436,-3.3848,0.0,0.0,0.0,0.0,0.0,0.0,-3.8402,-3.9312,-3.9965,-4.0252,-4.0038,-3.9117,-3.9547,-3.8978,-3.6718,-3.6838,-3.6155,-3.4212,-3.4566,-3.512,-3.5719,-3.5645,-3.5645,-3.5743,-3.5128,-3.3847,-3.1936,-3.1591,-3.0861,-2.9767,-2.8392,-2.7718,-2.7555,-2.6176,-2.5461,-2.5317,-2.5368,-2.5411,-2.5453,-2.5558,-2.5595,-2.5566,-2.5566,-2.5566,-2.559,-2.563,-2.5635,-2.5636,-2.5683,-2.5683,-2.566,-2.5607,-2.5753,-2.5845,-2.5498,-2.5809,-2.6154,-2.5846,-2.5981,-2.6447,-2.7294,-2.7909,-2.8549,-2.9371,-3.0,-3.0404,-3.0404,-3.0404,-3.0404,-3.0404,-3.0404,-3.0404,-3.0404,-3.0404,-3.0404,-3.0404,-3.0404,-3.0404,-3.0404,-2.9621,-2.8612,-2.7343,-2.6079,-2.5194,-2.483,-2.4925,-2.4957,-2.4828,-2.4975,-2.5181,-2.5474,-2.5199,-2.5052,-2.5052,-2.4768,-2.4493,-2.419,-2.419,-2.419]},{"header":{"parameterUnit":"m.s-1","parameterCategory":1,"la1":30.6,"la2":29.2853,"lo1":-89.7004,"lo2":-87.6739,"dy":0.0162,"dx":0.0183,"nx":112,"ny":82,"refTime":"2023-02-26T06:00:00:Z","depth":0,"parameterNumber":3,"parameterNumberName":"V-component_of_WINDS"},"data":[0.0,0.0,0.0,0.0,0.0,0.0,0.0,0.0,0.0,0.0,0.0,0.0,0.0,0.0,0.0,0.0,0.0,0.0,0.0,0.0,0.0,0.0,0.0,0.0,0.0,0.0,0.0,0.0,0.0,0.0,0.0,0.0,0.0,0.0,0.0,0.0,0.0,0.0,0.0,0.0,0.0,0.0,0.0,0.0,0.0,0.0,0.0,0.0,0.0,0.0,0.0,0.0,0.0,0.0,0.0,0.0,0.0,0.0,0.0,0.0,0.0,0.0,0.0,0.0,0.0,0.0,0.0,0.0,0.0,0.0,0.0,0.0,0.0,0.0,0.0,0.0,0.0,0.0,0.0,0.0,0.0,0.0,0.0,0.0,0.0,0.0,0.0,0.0,0.0,0.0,-0.0096,-0.0296,-0.2915,-0.4677,-0.4743,-0.8643,-1.1199,-1.1458,0.0,0.0,0.0,0.0,0.0,0.0,0.0,0.0,0.0,0.0,0.0,0.0,0.0,0.0,0.0,0.0,0.0,0.0,0.0,0.0,0.0,0.0,0.0,0.0,0.0,0.0,0.0,0.0,0.0,0.0,0.0,0.0,0.0,0.0,0.0,0.0,0.0,0.0,0.0,0.0,0.0,0.0,0.0,0.0,0.0,0.0,0.0,0.0,0.0,0.0,0.0,0.0,0.0,0.0,0.0,0.0,0.0,0.0,0.0,0.0,0.0,0.0,0.0,0.0,0.0,0.0,0.0,0.0,0.0,0.0,0.0,0.0,0.0,0.0,0.0,0.0,0.0,0.0,0.0,0.0,0.0,0.0,0.0,0.0,0.0,0.0,0.0,0.0,0.0,0.0,0.0,0.0,0.0,0.0,0.0,0.0,0.0,0.0,0.0,0.0,0.0,0.0,0.0,0.0,-0.0422,-0.1578,-0.326,-0.4761,-0.5952,-0.9697,-1.1805,-1.1359,0.0,0.0,0.0,0.0,0.0,0.0,0.0,0.0,0.0,0.0,0.0,0.0,0.0,0.0,0.0,0.0,0.0,0.0,0.0,0.0,0.0,0.0,0.0,0.0,0.0,0.0,0.0,0.0,0.0,0.0,0.0,0.0,0.0,0.0,0.0,0.0,0.0,0.0,0.0,0.0,0.0,0.0,0.0,0.0,0.0,0.0,0.0,0.0,0.0,0.0,0.0,0.0,0.0,0.0,0.0,0.0,0.0,0.0,0.0,0.0,0.0,0.0,0.0,0.0,0.0,0.0,0.0,0.0,0.0,0.0,0.0,0.0,0.0,0.0,0.0,0.0,0.0,0.0,0.0,0.0,0.0,0.0,0.0,0.0,0.0,0.0,0.0,0.0,0.0,0.0,0.0,0.0,0.0,0.0,0.0,0.0,0.0,0.0,0.0,0.0,0.0,0.0,0.0,-0.1206,-0.1337,-0.1951,-0.4005,-0.5611,-0.6248,-0.9937,-1.1929,-1.1352,-1.5162,0.0,0.0,0.0,0.0,0.0,0.0,0.0,0.0,0.0,0.0,0.0,0.0,0.0,0.0,0.0,0.0,0.0,0.0,0.0,0.0,0.0,0.0,0.0,0.0,0.0,0.0,0.0,0.0,0.0,0.0,0.0,0.0,0.0,0.0,0.0,0.0,0.0,0.0,0.0,0.0,0.0,0.0,0.0,0.0,0.0,0.0,0.0,0.0,0.0,0.0,0.0,0.0,0.0,0.0,0.0,0.0,0.0,0.0,0.0,0.0,0.0,0.0,0.0,0.0,0.0,0.0,0.0,0.0,0.0,0.0,0.0,0.0,0.0,0.0,0.0,0.0,0.0,0.0,0.0,0.0,0.0,0.0,0.0,0.0,0.0,0.0,0.0,0.0,0.0,0.0,0.0,0.0,0.0,0.0,0.0,0.0,0.0,0.0,0.0,0.0,0.0,0.0,-0.178,-0.2598,-0.2915,-0.4922,-0.6492,-0.7099,-1.0167,-1.2032,-1.2098,-1.5889,0.0,0.0,0.0,0.0,0.0,0.0,0.0,0.0,0.0,0.0,0.0,0.0,0.0,0.0,0.0,0.0,0.0,0.0,0.0,0.0,0.0,0.0,0.0,0.0,0.0,0.0,0.0,0.0,0.0,0.0,0.0,0.0,0.0,0.0,0.0,0.0,0.0,0.0,0.0,0.0,0.0,0.0,0.0,0.0,0.0,0.0,0.0,0.0,0.0,0.0,0.0,0.0,0.0,0.0,0.0,0.0,0.0,0.0,0.0,0.0,0.0,0.0,0.0,0.0,0.0,0.0,0.0,0.0,0.0,0.0,0.0,0.0,0.0,0.0,0.0,0.0,0.0,0.0,0.0,0.0,0.0,0.0,0.0,0.0,0.0,0.0,0.0,0.0,0.0,0.0,0.0,0.0,0.0,0.0,0.0,0.0,0.0,0.0,0.0,0.0,0.0,0.0,-0.3641,-0.4357,-0.5584,-0.5889,-0.7039,-0.9537,-1.0865,-1.2368,-1.4231,-1.6541,0.0,0.0,0.0,0.0,0.0,0.0,0.0,0.0,0.0,0.0,0.0,0.0,0.0,0.0,0.0,0.0,0.0,0.0,0.0,0.0,0.0,0.0,0.0,0.0,0.0,0.0,0.0,0.0,0.0,0.0,0.0,0.0,0.0,0.0,0.0,0.0,0.0,0.0,0.0,0.0,0.0,0.0,0.0,0.0,0.0,0.0,0.0,0.0,0.0,0.0,0.0,0.0,0.0,0.0,0.0,0.0,0.0,0.0,0.0,0.0,0.0,0.0,0.0,0.0,0.0,0.0,0.0,0.0,0.0,0.0,0.0,0.0,0.0,0.0,0.0,0.0,0.0,0.0,0.0,0.0,0.0,0.0,0.0,0.0,0.0,0.0,0.0,0.0,0.0,0.0,0.0,0.0,0.0,0.0,0.0,0.0,0.0,0.0,0.0,0.0,0.0,0.0,-0.4487,-0.5331,-0.5914,-0.7518,-0.8905,-0.9899,-1.1637,-1.3217,-1.4513,0.0,0.0,0.0,0.0,0.0,0.0,0.0,0.0,0.0,0.0,0.0,0.0,0.0,0.0,0.0,0.0,0.0,0.0,0.0,0.0,0.0,0.0,0.0,0.0,0.0,0.0,0.0,0.0,0.0,0.0,0.0,0.0,0.0,0.0,0.0,0.0,0.0,0.0,0.0,0.0,0.0,0.0,0.0,0.0,0.0,0.0,0.0,0.0,0.0,0.0,0.0,0.0,0.0,0.0,0.0,0.0,0.0,0.0,0.0,0.0,0.0,0.0,0.0,0.0,0.0,0.0,0.0,0.0,0.0,0.0,0.0,0.0,0.0,0.0,0.0,0.0,0.0,0.0,0.0,0.0,0.0,0.0,0.0,0.0,0.0,0.0,0.0,0.0,0.0,0.0,0.0,0.0,0.0,0.0,0.0,0.0,0.0,0.0,0.0,0.0,0.0,0.0,-0.4891,-0.567,-0.656,-0.6976,-0.8698,-1.0105,-1.0871,-1.2204,-1.3528,-1.4865,0.0,0.0,0.0,0.0,0.0,0.0,0.0,0.0,0.0,0.0,0.0,0.0,0.0,0.0,0.0,0.0,0.0,0.0,0.0,0.0,0.0,0.0,0.0,0.0,0.0,0.0,0.0,0.0,0.0,0.0,0.0,0.0,0.0,0.0,0.0,0.0,0.0,0.0,0.0,0.0,0.0,0.0,0.0,0.0,0.0,0.0,0.0,0.0,0.0,0.0,0.0,0.0,0.0,0.0,0.0,0.0,0.0,0.0,0.0,0.0,0.0,0.0,0.0,0.0,0.0,0.0,0.0,0.0,0.0,0.0,0.0,0.0,0.0,0.0,0.0,0.0,0.0,0.0,0.0,0.0,0.0,0.0,0.0,0.0,0.0,0.0,0.0,0.0,0.0,0.0,0.0,0.0,0.0,0.0,0.0,0.0,0.0,0.0,0.0,0.0,0.0,0.0,-0.7182,-0.7319,-0.8059,-0.9161,-0.9343,-1.0306,-1.2785,-1.2458,-1.3135,0.0,0.0,0.0,0.0,0.0,0.0,0.0,0.0,0.0,0.0,0.0,0.0,0.0,0.0,0.0,0.0,0.0,0.0,0.0,0.0,0.0,0.0,0.0,0.0,0.0,0.0,0.0,0.0,0.0,0.0,0.0,0.0,0.0,0.0,0.0,0.0,0.0,0.0,0.0,0.0,0.0,0.0,0.0,0.0,0.0,0.0,0.0,0.0,0.0,0.0,0.0,0.0,0.0,0.0,0.0,0.0,0.0,0.0,0.0,0.0,0.0,0.0,0.0,0.0,0.0,0.0,0.0,0.0,0.0,0.0,0.0,0.0,0.0,0.0,0.0,0.0,0.0,0.0,0.0,0.0,0.0,0.0,0.0,0.0,0.0,0.0,0.0,0.0,0.0,0.0,0.0,0.0,0.0,0.0,0.0,0.0,0.0,0.0,0.0,0.0,0.0,0.0,0.0,-0.8132,-0.8363,-0.8838,-0.9237,-1.0859,-1.2188,-1.2927,-1.3306,-1.4139,-1.5621,0.0,0.0,0.0,0.0,0.0,0.0,0.0,0.0,0.0,0.0,0.0,0.0,0.0,0.0,0.0,0.0,0.0,0.0,0.0,0.0,0.0,0.0,0.0,0.0,0.0,0.0,0.0,0.0,0.0,0.0,0.0,0.0,0.0,0.0,0.0,0.0,0.0,0.0,0.0,0.0,0.0,0.0,0.0,0.0,0.0,0.0,0.0,0.0,0.0,0.0,0.0,0.0,0.0,0.0,0.0,0.0,0.0,0.0,0.0,0.0,0.0,0.0,0.0,0.0,0.0,0.0,0.0,0.0,0.0,0.0,0.0,0.0,0.0,0.0,0.0,0.0,0.0,0.0,0.0,0.0,0.0,0.0,0.0,0.0,0.0,0.0,0.0,0.0,0.0,0.0,0.0,0.0,0.0,0.0,0.0,0.0,0.0,0.0,0.0,0.0,0.0,0.0,-0.9091,-0.9195,-0.9589,-1.0278,-1.1587,-1.2585,-1.3022,-1.34,-1.3931,-1.4776,0.0,0.0,0.0,0.0,0.0,0.0,0.0,0.0,0.0,0.0,0.0,0.0,0.0,0.0,0.0,0.0,0.0,0.0,0.0,0.0,0.0,0.0,0.0,0.0,0.0,0.0,0.0,0.0,0.0,0.0,0.0,0.0,0.0,0.0,0.0,0.0,0.0,0.0,0.0,0.0,0.0,0.0,0.0,0.0,0.0,0.0,0.0,0.0,0.0,0.0,0.0,0.0,0.0,0.0,0.0,0.0,0.0,0.0,0.0,0.0,0.0,0.0,0.0,0.0,0.0,0.0,0.0,0.0,0.0,0.0,0.0,0.0,0.0,0.0,0.0,0.0,0.0,0.0,0.0,0.0,0.0,0.0,0.0,0.0,0.0,0.0,0.0,0.0,0.0,0.0,0.0,0.0,0.0,0.0,0.0,0.0,0.0,0.0,0.0,0.0,0.0,0.0,-1.0089,-0.9948,-1.0417,-1.1723,-1.1746,-1.2095,-1.3239,-1.3074,-1.314,-1.3622,0.0,0.0,0.0,0.0,0.0,0.0,0.0,0.0,0.0,0.0,0.0,0.0,0.0,0.0,0.0,0.0,0.0,0.0,0.0,0.0,0.0,0.0,0.0,0.0,0.0,0.0,0.0,0.0,0.0,0.0,0.0,0.0,0.0,0.0,0.0,0.0,0.0,0.0,0.0,0.0,0.0,0.0,0.0,0.0,0.0,0.0,0.0,0.0,0.0,0.0,0.0,0.0,0.0,0.0,0.0,0.0,0.0,0.0,0.0,0.0,-0.397,-0.4505,0.0,0.0,0.0,0.0,0.0,0.0,0.0,0.0,0.0,0.0,0.0,0.0,0.0,0.0,0.0,0.0,0.0,0.0,0.0,0.0,0.0,0.0,0.0,0.0,0.0,0.0,0.0,0.0,0.0,0.0,0.0,0.0,0.0,0.0,0.0,0.0,0.0,0.0,0.0,0.0,-1.0802,-1.1169,-1.1478,-1.1578,-1.2338,-1.3226,-1.4233,-1.4052,-1.4134,-1.4653,-1.5333,0.0,0.0,0.0,0.0,0.0,0.0,0.0,0.0,0.0,0.0,0.0,0.0,0.0,0.0,0.0,0.0,0.0,0.0,0.0,0.0,0.0,0.0,0.0,0.0,0.0,0.0,0.0,0.0,0.0,0.0,0.0,0.0,0.0,0.0,0.0,0.0,0.0,0.0,0.0,0.0,0.0,0.0,0.0,0.0,0.0,0.0,0.0,0.0,0.0,0.0,0.0,0.0,0.0,0.0,0.0,0.0,0.0,0.0,0.0,-0.2551,-0.362,0.0,0.0,0.0,0.0,0.0,0.0,0.0,0.0,0.0,0.0,0.0,0.0,0.0,0.0,0.0,0.0,0.0,0.0,0.0,0.0,0.0,0.0,0.0,0.0,0.0,0.0,0.0,0.0,0.0,0.0,0.0,0.0,0.0,0.0,0.0,0.0,0.0,0.0,0.0,0.0,-1.1883,-1.2014,-1.2107,-1.214,-1.2916,-1.3627,-1.4141,-1.4277,-1.4572,-1.5104,-1.5259,0.0,0.0,0.0,0.0,0.0,0.0,0.0,0.0,0.0,0.0,0.0,0.0,0.0,0.0,0.0,0.0,0.0,0.0,0.0,0.0,0.0,0.0,0.0,0.0,0.0,0.0,0.0,0.0,0.0,0.0,0.0,0.0,0.0,0.0,0.0,0.0,0.0,0.0,0.0,0.0,0.0,0.0,0.0,0.0,0.0,0.0,0.0,0.0,0.0,0.0,0.0,0.0,0.0,0.4683,0.4596,0.4292,0.3193,0.2443,0.1851,-0.1121,-0.2723,-0.3353,-0.417,0.0,0.0,0.0,0.0,0.0,0.0,0.0,0.0,0.0,0.0,0.0,0.0,0.0,0.0,0.0,0.0,0.0,0.0,0.0,0.0,0.0,0.0,-1.0186,-1.1416,-1.1903,-1.2245,-1.2705,0.0,0.0,0.0,0.0,0.0,0.0,0.0,0.0,0.0,0.0,0.0,-1.2941,-1.2903,-1.2938,-1.3091,-1.3528,-1.3884,-1.3958,-1.4383,-1.4873,-1.541,-1.5146,-1.5272,0.0,0.0,0.0,0.0,0.0,0.0,0.0,0.0,0.0,0.0,0.0,0.0,0.0,0.0,0.0,0.0,0.0,0.0,0.0,0.0,0.0,0.0,0.0,0.0,0.0,0.0,0.0,0.0,0.0,0.0,0.0,0.0,1.0973,0.7808,0.0,0.0,0.0,0.0,0.0,0.0,0.0,0.0,0.0,0.0,0.0,0.0,0.0,0.954,0.8424,0.8787,0.8394,0.7127,0.7365,0.6871,0.5741,0.5531,0.4188,0.1997,0.1528,0.0,-0.203,-0.2202,0.0,0.0,0.0,0.0,0.0,0.0,0.0,0.0,0.0,0.0,0.0,0.0,0.0,0.0,0.0,0.0,0.0,0.0,0.0,0.0,0.0,0.0,-1.0186,-1.1416,-1.2378,-1.3008,-1.2819,-1.3019,-1.3233,-1.3113,-1.2978,-1.2817,0.0,0.0,0.0,0.0,0.0,0.0,-1.3623,-1.4522,-1.4932,-1.4337,-1.4338,-1.4595,-1.5042,-1.5168,-1.5423,-1.5948,-1.5932,-1.5964,-1.6095,-1.6095,0.0,0.0,0.0,0.0,0.0,0.0,0.0,0.0,0.0,0.0,0.0,0.0,0.0,0.0,0.0,0.0,0.0,0.0,0.0,0.0,0.0,0.0,0.0,0.0,0.0,0.0,0.0,0.0,0.0,1.2877,1.1995,1.0411,0.986,0.9195,0.0,0.0,0.0,0.0,0.0,0.0,0.0,0.0,0.0,1.1056,1.1165,1.102,1.0579,1.0763,1.0205,0.8947,0.9049,0.8388,0.6982,0.6249,0.5218,0.3934,0.2512,0.1246,0.0138,-0.117,-0.1983,-0.2589,0.0,0.0,0.0,0.0,-0.5395,-0.5482,-0.6192,-0.6419,-0.6494,-0.6902,0.0,0.0,0.0,0.0,0.0,0.0,0.0,-0.7497,-0.8732,-0.9712,-1.0734,-1.1994,-1.2667,-1.2951,-1.2811,-1.3025,-1.3106,-1.2766,-1.3307,-1.3717,-1.3362,-1.3425,0.0,0.0,0.0,-1.3987,-1.383,-1.4287,-1.453,-1.4186,-1.4428,-1.4704,-1.4952,-1.4992,-1.5115,-1.5352,-1.5371,-1.5371,-1.5371,-1.584,-1.6708,0.0,0.0,0.0,0.0,0.0,0.0,0.0,0.0,0.0,0.0,0.0,0.0,0.0,0.0,0.0,0.0,0.0,0.0,0.0,0.0,0.0,0.0,0.0,0.0,0.0,0.0,0.0,0.0,1.3795,1.3611,1.2966,1.2865,1.2313,0.0,0.0,0.0,0.0,0.0,0.0,1.1241,1.1348,1.1658,1.2333,1.2344,1.2318,1.2257,1.2263,1.1682,1.0485,1.0143,0.9368,0.8283,0.6858,0.5947,0.5457,0.3477,0.2309,0.1575,-0.0394,-0.121,-0.1285,-0.2304,-0.2703,-0.2842,-0.3892,-0.4453,-0.4815,-0.5738,-0.6189,-0.6349,-0.632,-0.6685,-0.7157,-0.6989,0.0,0.0,0.0,0.0,-0.7643,-0.9168,-0.989,-1.0623,-1.2214,-1.2502,-1.2449,-1.2449,-1.2592,-1.2712,-1.2565,-1.3387,-1.4037,-1.3696,-1.3921,0.0,-1.4325,-1.4214,-1.4113,-1.4113,-1.4223,-1.4249,-1.4124,-1.4488,-1.4677,-1.4577,-1.4601,-1.4619,-1.4619,-1.4619,-1.4619,-1.4619,-1.5361,-1.6172,-1.7024,0.0,0.0,0.0,0.0,0.0,0.0,0.0,0.0,0.0,0.0,0.0,0.0,0.0,0.0,0.0,0.0,0.0,0.0,0.0,0.0,0.0,0.0,0.0,0.0,0.0,0.0,0.0,0.0,0.0,1.4639,1.5979,0.0,0.0,0.0,0.0,1.1756,1.0994,1.1142,1.2419,1.2754,1.3621,1.5147,1.5206,1.4733,1.3807,1.3807,1.314,1.1799,1.0438,0.9771,0.9654,0.8069,0.6623,0.5413,0.5078,0.3687,0.1519,0.0388,-0.0086,-0.0168,-0.1271,-0.1682,-0.1804,-0.2815,-0.3826,-0.4727,-0.4771,-0.5319,-0.6037,-0.6252,-0.6197,-0.6047,-0.5923,-0.5878,0.0,0.0,-0.5888,-0.6396,-0.8568,-0.8934,-0.9246,-1.144,-1.1697,-1.1455,-1.1455,-1.1469,-1.1808,-1.2946,-1.3024,-1.3006,-1.3448,0.0,-1.3328,-1.3832,-1.4356,-1.4649,-1.4649,-1.5055,-1.5177,-1.4809,-1.4769,-1.4622,-1.4187,-1.4136,-1.4143,-1.4143,-1.4143,-1.4143,-1.4143,-1.4609,-1.5086,-1.5517,-1.6905,0.0,0.0,0.0,0.0,0.0,0.0,0.0,0.0,0.0,0.0,0.0,0.0,0.0,0.0,0.0,0.0,0.0,0.0,0.0,0.0,0.0,0.0,0.0,0.0,0.0,0.0,0.0,0.0,1.7229,1.8095,0.0,1.6789,1.632,1.5929,1.5516,1.512,1.5345,1.6279,1.6413,1.6581,1.685,1.6872,1.6315,1.514,1.4967,1.4209,1.2864,1.2196,1.0927,0.9178,0.8605,0.7607,0.6208,0.5358,0.4495,0.3595,0.1765,0.0619,-0.0042,-0.041,-0.0566,-0.068,-0.1741,-0.2369,-0.2897,-0.4119,-0.4775,-0.5152,-0.5761,-0.58,-0.5606,-0.565,-0.5664,-0.5644,-0.5579,-0.5589,-0.6104,-0.7928,-0.8149,-0.836,-1.029,-1.0661,-1.055,-1.055,-1.0735,-1.1153,-1.2009,-1.2977,-1.3696,-1.3847,-1.426,-1.4666,-1.4839,-1.4557,-1.4298,-1.4298,-1.4455,-1.4504,-1.4358,-1.4121,-1.3906,-1.374,-1.3486,-1.3486,-1.3879,-1.3794,-1.3902,-1.4272,-1.473,-1.5089,-1.5315,-1.6272,-1.7252,0.0,0.0,0.0,0.0,0.0,0.0,0.0,0.0,0.0,0.0,0.0,0.0,0.0,0.0,0.0,0.0,0.0,0.0,0.0,0.0,0.0,0.0,0.0,0.0,0.0,1.952,2.0395,1.9782,2.0978,2.1346,2.0127,1.9689,1.914,1.8284,1.7878,1.787,1.839,1.8487,1.8378,1.8087,1.8056,1.7406,1.6075,1.5874,1.5172,1.3921,1.3284,1.1904,1.0048,0.9476,0.8485,0.7097,0.6251,0.5459,0.4641,0.3169,0.1726,0.0401,0.012,0.0,-0.0079,-0.0796,-0.1299,-0.1867,-0.3701,-0.4317,-0.445,-0.5242,-0.5372,-0.5262,-0.5332,-0.5365,-0.5408,-0.556,-0.5672,-0.6121,-0.7711,-0.7964,-0.8152,-0.9631,-0.9973,-0.9973,-0.9973,-1.0157,-1.0499,-1.1179,-1.2351,-1.3389,-1.3783,-1.4327,-1.4763,-1.4943,-1.4348,-1.3899,-1.3899,-1.3773,-1.3685,-1.3685,-1.3467,-1.3301,-1.3301,-1.3037,-1.3152,-1.3755,-1.3661,-1.3944,-1.4735,-1.5217,-1.5604,-1.588,-1.6345,-1.7026,-1.7928,0.0,0.0,0.0,0.0,0.0,0.0,0.0,0.0,0.0,0.0,0.0,0.0,0.0,0.0,0.0,0.0,0.0,0.0,0.0,0.0,0.0,0.0,0.0,1.8669,2.1695,2.3709,2.2207,2.4695,2.5724,2.378,2.297,2.1771,1.9871,1.8981,1.851,1.8518,1.8745,1.8891,1.8855,1.8847,1.8101,1.6595,1.658,1.6066,1.4995,1.3541,1.2644,1.2244,1.066,0.9207,0.798,0.7846,0.656,0.4547,0.451,0.3263,0.1276,0.0374,0.0038,0.0,0.0,-0.0678,-0.1831,-0.3396,-0.3969,-0.408,-0.4716,-0.4887,-0.4887,-0.4887,-0.4887,-0.5036,-0.5747,-0.5954,-0.634,-0.7924,-0.8334,-0.8574,-0.9472,-0.9659,-0.9659,-0.9659,-0.9659,-0.9877,-1.0543,-1.116,-1.1951,-1.3174,-1.3371,-1.3512,-1.4009,-1.3734,0.0,-1.3486,-1.3135,-1.2905,-1.2905,-1.2905,-1.2905,-1.2905,-1.2905,-1.3152,-1.3755,-1.3768,-1.4277,-1.5416,-1.5946,-1.644,-1.6991,-1.7083,-1.7206,-1.741,0.0,0.0,0.0,0.0,0.0,0.0,0.0,0.0,0.0,0.0,0.0,0.0,0.0,0.0,0.0,0.0,0.0,0.0,0.0,0.0,0.0,0.0,2.4748,2.3801,2.4656,2.5323,2.5267,2.5964,2.6289,2.5724,2.4499,2.3526,2.3002,2.1675,2.1053,2.1352,2.1151,2.0787,2.0219,1.9868,1.8671,1.6631,1.6349,1.5691,1.4636,1.3776,1.2835,1.1857,1.1163,0.9653,0.7643,0.7592,0.6766,0.5386,0.4619,0.3578,0.2362,0.1355,0.0552,0.0,0.0,-0.0601,-0.1528,-0.2565,-0.3325,-0.3974,-0.4684,-0.4887,-0.4887,-0.4887,-0.4887,-0.4924,-0.5019,-0.5071,-0.5358,-0.6748,-0.7096,-0.7433,-0.874,-0.9045,-0.9045,-0.9045,-0.9045,-0.9254,-0.9923,-1.0566,-1.144,-1.281,-1.2887,-1.2956,-1.3562,-1.332,-1.3047,-1.3047,-1.2983,-1.2905,-1.2905,-1.2905,-1.2905,-1.2905,-1.2905,-1.3152,-1.3755,-1.3396,-1.3686,-1.4876,-1.5429,-1.6203,-1.7264,-1.7687,-1.7728,0.0,0.0,0.0,0.0,0.0,0.0,0.0,0.0,0.0,0.0,0.0,0.0,0.0,0.0,0.0,0.0,0.0,0.0,0.0,0.0,0.0,0.0,2.6031,2.7295,2.7431,2.7471,2.7418,2.7174,2.7585,2.7678,2.7209,2.6366,2.5376,2.4291,2.3361,2.269,2.2288,2.2021,2.1604,2.0922,2.0648,1.9588,1.7616,1.6954,1.6072,1.4993,1.4062,1.3157,1.2301,1.202,1.0523,0.8153,0.8153,0.7239,0.5676,0.5036,0.4008,0.2707,0.0,0.0,0.0,0.0,-0.0312,-0.0904,-0.199,-0.2718,-0.3309,-0.437,-0.4728,-0.4728,-0.4728,-0.4728,-0.4824,-0.5356,-0.5494,-0.5806,-0.716,-0.7536,-0.775,-0.8593,-0.8804,-0.8804,-0.8804,-0.8804,-0.9008,-0.9666,-0.9974,0.0,-1.1937,-1.2452,-1.2805,-1.3192,-1.3062,-1.2905,-1.2905,-1.2905,-1.2905,-1.2905,-1.2905,-1.2905,-1.2905,-1.2905,0.0,0.0,0.0,-1.4322,-1.5785,-1.6362,0.0,0.0,0.0,-1.7589,-1.7024,-1.8122,0.0,0.0,-2.0117,-2.112,0.0,0.0,0.0,0.0,0.0,0.0,0.0,0.0,0.0,0.0,0.0,0.0,0.0,0.0,0.0,0.0,2.8226,2.924,2.9742,2.9792,2.9404,2.8426,2.9197,2.9404,2.8386,2.8176,2.7123,2.4828,2.4396,2.3639,2.2211,2.1987,0.0,0.0,0.0,2.0412,1.8933,1.792,1.6806,1.5543,1.4273,1.3487,1.3146,1.2837,1.136,0.9067,0.9042,0.7695,0.5562,0.5562,0.4441,0.2604,0.1543,0.0681,0.0,0.0,0.0,-0.0204,-0.1579,0.0,0.0,-0.3901,-0.4436,-0.4519,-0.4598,-0.4625,-0.4869,-0.6122,-0.6475,-0.6804,-0.8182,-0.8566,-0.8593,-0.8752,-0.8804,-0.8804,-0.8804,-0.8804,-0.8982,-0.9562,-0.9434,-0.9622,-1.0874,-1.1949,-1.2676,-1.2734,-1.2798,-1.2812,-1.2812,-1.2876,-1.2905,-1.2905,-1.2905,0.0,-1.2905,-1.2905,-1.3128,-1.3661,-1.4329,-1.5486,-1.7225,-1.7829,-1.789,-1.741,-1.741,-1.7144,-1.6595,-1.7674,-1.8266,-1.8435,-2.0459,-2.1498,0.0,0.0,0.0,0.0,0.0,0.0,0.0,0.0,0.0,0.0,0.0,0.0,0.0,0.0,0.0,2.8991,2.9595,3.0036,2.9819,2.9792,2.9702,2.9495,2.9663,2.9702,2.9495,2.8636,2.7877,2.737,2.5686,2.442,2.3774,2.258,2.168,2.121,2.0889,1.9964,1.844,1.8198,1.7022,1.4793,1.432,0.0,1.2857,1.2321,1.0898,0.8851,0.8636,0.7362,0.544,0.544,0.4347,0.2525,0.0882,0.0159,0.0,0.0,0.0,-0.0113,-0.1008,-0.1703,-0.2343,-0.3234,-0.3984,-0.4598,-0.5136,-0.53,0.0,-0.5624,-0.5706,-0.5923,-0.6799,-0.702,-0.7316,-0.8507,-0.8804,-0.8804,-0.8804,-0.8804,-0.8831,-0.8962,-0.9188,-0.9573,-1.0261,-1.0769,-1.1235,-1.1772,-1.2129,-1.233,-1.233,-1.2666,-1.2905,-1.2905,-1.2905,-1.2905,-1.2905,-1.2905,-1.2954,-1.3065,-1.4084,-1.5269,-1.6546,-1.72,-1.7511,-1.741,-1.741,-1.733,-1.716,-1.7855,-1.8681,-1.9579,-1.996,-2.072,0.0,0.0,0.0,0.0,0.0,0.0,0.0,0.0,0.0,0.0,0.0,2.9431,0.0,0.0,3.0646,3.1002,3.1302,3.1252,3.0581,3.0482,3.0317,2.9869,2.9792,2.9792,2.9792,2.9275,2.8727,2.8136,2.6377,2.4861,2.3912,2.2371,2.1357,2.0908,2.0469,1.9898,1.9098,1.8362,1.7123,1.5388,1.4403,1.3444,1.2543,1.1911,1.0531,0.8574,0.8382,0.7148,0.5208,0.4714,0.3971,0.3005,0.163,0.0635,0.0,0.0,0.0,-0.0168,-0.1256,-0.1898,-0.2397,-0.3539,-0.4181,-0.457,-0.4893,-0.5003,-0.5085,-0.5406,-0.576,-0.6226,-0.6961,-0.7429,-0.7883,-0.8619,-0.8804,-0.8804,-0.8804,-0.8691,-0.8591,-0.8591,-0.8731,-0.8935,-0.9205,-0.9694,-1.0401,-1.1451,-1.177,-1.1973,-1.2174,-1.2398,-1.2637,-1.2876,-1.2905,-1.3017,-1.3324,-1.3634,-1.38,-1.38,-1.4652,-1.5527,-1.6408,-1.6781,-1.7068,-1.7338,-1.7359,-1.7481,-1.7706,-1.8282,-1.8837,-1.9416,-1.9654,-2.0457,0.0,0.0,0.0,0.0,0.0,0.0,0.0,0.0,3.0397,3.233,3.2414,3.2288,3.2886,3.25,3.2259,3.2793,3.2713,3.2285,3.1315,3.1044,3.0658,2.9895,2.9792,2.9792,2.9792,2.9792,2.9417,2.8518,2.6976,2.5429,2.3924,2.234,2.1214,2.0615,2.0137,1.9873,1.9795,1.8499,1.7273,1.612,1.4615,1.3359,1.2365,1.1653,1.0353,0.8645,0.823,0.7003,0.5199,0.4369,0.3865,0.3513,0.2735,0.1511,0.0203,0.0226,0.0112,-0.0196,-0.1535,-0.2091,-0.2426,-0.3818,-0.4377,-0.4515,-0.4653,-0.4704,-0.4814,-0.5351,-0.5928,-0.6529,-0.7122,-0.783,-0.8401,-0.8566,-0.8699,-0.8804,-0.8804,-0.8577,-0.8402,-0.8402,-0.8353,-0.8334,-0.8444,-0.904,-0.9877,-1.1031,-1.1355,-1.1584,-1.1901,-1.2096,-1.2347,-1.273,-1.2863,-1.3155,-1.3782,-1.4367,-1.4744,-1.488,-1.532,-1.593,-1.6637,-1.6659,-1.6909,-1.7442,-1.7463,-1.7727,-1.8263,-1.8688,-1.8949,-1.9062,-1.9497,-2.0352,2.4301,2.6527,2.9056,2.9632,3.1051,3.2792,0.0,0.0,3.5872,3.6677,3.7443,3.7591,3.6322,3.6045,3.5513,3.4086,3.3136,3.2285,3.1315,3.0482,2.9934,2.9792,2.9792,2.9792,2.9792,2.9792,2.9753,2.9624,2.8074,2.6504,2.5077,2.3413,2.1959,2.0654,2.0137,1.9736,1.9365,1.8783,1.764,1.5924,1.5018,1.3905,1.2606,1.1557,1.0519,0.9487,0.817,0.6926,0.5888,0.5643,0.4774,0.3563,0.3347,0.2327,0.0983,0.098,0.056,-0.0112,-0.095,-0.1647,-0.2343,-0.3231,-0.3959,-0.4598,-0.5218,-0.5378,-0.5406,-0.5487,-0.5569,-0.5651,-0.5733,-0.6281,-0.702,-0.767,-0.8321,-0.8804,-0.8804,-0.8577,-0.8402,-0.8402,-0.8353,-0.8459,-0.8931,-0.928,-0.9554,-0.9716,-1.0447,-1.0975,-1.1034,-1.1716,-1.2239,-1.2355,-1.2741,-1.3227,-1.3828,-1.4384,-1.4926,-1.5477,-1.5565,-1.608,-1.7167,-1.7209,-1.7463,-1.8007,-1.8007,-1.8283,-1.8817,-1.8874,-1.9151,-1.9603,-1.9672,-2.0094,2.9021,3.0242,3.151,0.0,3.4864,3.6276,3.848,3.9093,3.9402,4.008,3.9896,3.9133,3.7567,3.6919,3.6213,0.0,3.4041,3.3101,3.2141,3.123,3.0419,2.9856,2.9792,2.9792,2.9792,2.949,2.9289,2.9289,2.7502,2.5925,2.4732,2.315,2.175,2.0644,1.9902,1.9463,1.9287,1.8369,1.7225,1.5887,1.5144,1.3973,1.2394,1.1558,1.0329,0.8775,0.7652,0.6856,0.6318,0.5834,0.527,0.4675,0.42,0.3093,0.1675,0.1257,0.0643,-0.0168,-0.134,-0.1952,-0.2391,-0.349,-0.4147,-0.4512,-0.4591,-0.4677,-0.4737,-0.464,-0.4992,-0.536,-0.5276,-0.6256,-0.7309,-0.7529,-0.8075,-0.8557,-0.8557,-0.8208,-0.796,-0.8287,-0.8202,-0.8242,-0.8781,-0.9223,-0.9498,-0.9498,-1.0103,-1.0745,-1.1297,-1.196,-1.2598,-1.3173,-1.3717,-1.4013,-1.3904,-1.4469,-1.5042,-1.5574,-1.5934,-1.6473,-1.7278,-1.7605,-1.8027,-1.8554,-1.8182,-1.8444,-1.9354,-1.8968,-1.909,-1.9708,-1.9708,-1.9839,3.2271,0.0,0.0,3.7089,3.851,3.9785,4.1814,4.2091,4.2068,4.2614,4.1613,4.012,3.8339,3.7438,3.6631,3.5651,3.4442,3.338,3.2713,3.1312,3.0088,2.9392,2.9326,2.9197,2.8922,2.9045,2.9126,2.9126,2.7224,2.5585,2.4619,2.2913,2.1494,2.0429,1.9705,1.9228,1.9111,1.8076,1.7082,1.6107,1.5401,1.4242,1.2727,1.1737,1.0284,0.8453,0.7818,0.7289,0.6858,0.633,0.5977,0.5733,0.503,0.3837,0.2421,0.1673,0.0811,-0.0224,-0.1675,-0.2202,-0.2413,-0.3759,-0.4345,-0.4443,-0.4132,-0.4163,-0.4257,-0.4175,-0.4732,-0.5305,-0.5144,-0.6329,-0.7553,-0.7358,-0.7784,-0.825,-0.825,-0.7866,-0.7669,-0.8202,-0.8201,-0.8296,-0.8817,-0.9359,-0.9716,-0.9716,-1.0059,-1.0547,-1.1234,-1.1897,-1.2609,-1.3405,-1.4163,-1.4431,-1.3986,-1.4671,-1.5206,-1.5381,-1.6066,-1.6619,-1.7023,-1.7499,-1.8026,-1.8571,-1.8088,-1.8265,-1.9151,-1.8672,-1.8672,-1.9151,-1.9348,-1.9405,0.0,0.0,3.901,4.0418,4.2384,4.4195,4.4997,4.4585,4.4031,4.4031,4.2964,4.1344,3.9017,3.8116,3.7265,3.5733,3.3905,3.2629,3.2593,3.005,2.8164,2.8164,2.8136,2.7723,0.0,2.853,2.9767,2.9767,2.7784,2.6162,2.5226,2.3145,2.135,1.9979,1.9512,1.9082,1.8627,1.8213,1.7535,1.6685,1.5844,1.5002,1.4064,1.2168,1.0523,0.9155,0.9128,0.8574,0.767,0.7637,0.7208,0.6507,0.5764,0.4566,0.3182,0.2449,0.1257,-0.0224,-0.1675,-0.2202,-0.2413,-0.3759,-0.4345,-0.446,-0.426,-0.4341,-0.4484,-0.4477,-0.4964,-0.5437,-0.5175,-0.6201,-0.7232,-0.6904,-0.7392,-0.7919,-0.7919,-0.7689,-0.7669,-0.8202,-0.8511,-0.8837,-0.9379,-0.9922,-1.0283,-1.0283,-1.0283,-1.0303,-1.0342,-1.1212,-1.1991,-1.2402,-1.3449,-1.4117,-1.4099,-1.5065,-1.5454,-1.4952,-1.5795,-1.6319,-1.6326,-1.6719,-1.7197,-1.7726,-1.7711,-1.7727,-1.7773,-1.7743,-1.7743,-1.7788,-1.8433,-1.8732,0.0,0.0,4.0689,4.2552,4.4316,4.5803,4.6532,4.6079,4.5341,4.4863,4.2966,4.0686,3.8365,3.7459,3.6729,3.5657,3.418,3.3165,3.3273,3.1552,3.0026,2.9322,2.9557,0.0,0.0,0.0,0.0,2.8193,2.7471,2.6334,2.4702,2.3574,2.2041,1.9969,1.9502,1.8945,1.8223,1.7803,1.7158,1.6279,1.5176,1.4225,1.342,1.2247,1.0917,0.959,0.959,0.917,0.8401,0.791,0.7563,0.7208,0.5977,0.4898,0.3871,0.2643,0.1563,0.0447,-0.1505,-0.2202,-0.2413,-0.3759,-0.4345,-0.4443,-0.4146,-0.4176,-0.4271,-0.4195,-0.4319,-0.4561,-0.4784,-0.5634,-0.6471,-0.6631,-0.7151,-0.7645,-0.7645,-0.7697,-0.7922,-0.8469,-0.8921,-0.9399,-0.9942,-1.0186,-1.0303,-1.0303,-1.0582,-1.0915,-1.1312,-1.2198,-1.2836,-1.2992,-1.3655,-1.4103,-1.4103,-1.4061,-1.4398,-1.5252,-1.5581,-1.6037,-1.6666,-1.7173,-1.7519,-1.7713,-1.7264,-1.7249,-1.7713,-1.7249,-1.7264,-1.7713,-1.8169,-1.8649,0.0,3.9956,4.2016,4.3998,4.543,4.6503,4.7131,4.6505,4.5659,4.4977,4.2544,4.0006,3.8282,3.7254,3.6419,3.564,3.4643,3.3868,3.3578,3.2096,3.0738,2.9878,3.0096,2.9667,0.0,0.0,0.0,2.7687,2.7247,2.6493,2.5194,2.3761,2.2115,2.028,1.9607,1.8877,1.8018,1.7598,1.6975,1.6085,1.495,1.3949,1.3086,1.2409,1.1409,1.0167,1.0167,0.9788,0.9133,0.8646,0.8302,0.7937,0.647,0.5444,0.461,0.3169,0.1981,0.081,-0.1143,-0.1814,-0.1997,-0.306,-0.3719,-0.403,-0.3755,-0.3968,-0.4267,-0.4119,-0.4249,-0.4496,-0.4668,-0.5302,-0.594,-0.6096,-0.6597,-0.7045,-0.7045,-0.7332,-0.7801,-0.8553,-0.8978,-0.9439,-1.0176,-1.0303,-1.0303,-1.0303,-1.0706,-1.1143,-1.1536,-1.2283,-1.284,-1.3007,-1.3477,-1.3778,-1.3778,-1.3609,-1.393,-1.4866,-1.524,-1.5683,-1.6231,-1.6745,-1.7026,-1.7026,-1.6592,-1.6592,-1.7026,-1.6592,-1.6607,-1.7026,-1.7455,-1.793,3.921,4.1268,4.3214,4.4798,4.5826,4.6536,4.6896,4.6001,4.4927,4.4323,4.1678,3.9249,0.0,0.0,3.6275,3.5694,3.5351,3.4775,3.3789,3.1912,3.0505,0.0,0.0,0.0,0.0,0.0,0.0,2.8211,2.726,2.6663,2.659,2.3789,2.1787,2.0892,1.9883,1.8954,1.8051,1.7632,1.6992,1.6146,1.5281,1.4265,1.3132,1.2732,1.1938,1.0838,1.0838,1.0466,0.984,0.9814,0.9413,0.8699,0.7235,0.6234,0.5446,0.3996,0.2536,0.1061,-0.0419,-0.1006,-0.1195,-0.1803,-0.258,-0.3234,-0.3081,-0.3663,-0.4337,-0.4197,-0.4647,-0.5102,-0.4791,-0.5172,-0.5583,-0.5353,-0.5766,-0.6206,-0.6206,-0.6641,-0.7377,-0.8492,-0.8736,-0.9099,-1.0118,-1.0303,-1.0303,-1.0303,-1.0706,-1.1,-1.1,-1.1486,-1.2011,-1.2443,-1.2925,-1.3198,-1.3198,-1.3745,-1.4039,-1.3927,-1.4792,-1.5243,-1.5148,-1.5566,-1.5799,-1.5799,-1.5799,-1.5799,-1.5799,-1.5799,-1.5799,-1.5814,-1.6398,-1.6697,4.0158,4.2447,4.4658,4.509,4.6023,4.6809,4.6595,4.5081,4.3301,4.1792,3.879,3.6202,0.0,0.0,0.0,3.669,3.7015,0.0,3.6871,3.5355,0.0,3.2339,0.0,3.0758,2.8704,2.9784,0.0,2.8211,2.8212,2.7814,2.6651,2.5478,2.3872,2.1781,2.085,1.9907,1.883,1.7967,1.735,1.6906,1.6035,1.5012,1.3844,1.3432,1.2628,1.1541,1.1541,1.1166,1.0517,1.002,0.9684,0.9406,0.7978,0.731,0.6891,0.4894,0.3908,0.3354,0.1864,0.0279,-0.1228,-0.1906,-0.2286,-0.2464,-0.2442,-0.2585,-0.2876,-0.3269,-0.3436,-0.3695,-0.4498,-0.4725,-0.482,-0.521,-0.5766,-0.6206,-0.6206,-0.6985,-0.7884,-0.8574,-0.9339,-0.9981,-1.0264,-1.0303,-1.0303,-1.0303,-1.0706,-1.1,-1.1,-1.1763,-1.2372,-1.249,-1.2925,-1.3198,-1.3198,-1.3659,-1.4063,-1.434,-1.4859,-1.5277,-1.561,-1.5741,-1.5799,-1.5799,-1.5799,-1.5799,-1.5799,-1.5799,-1.5799,-1.5814,-1.6207,-1.67,4.099,4.2887,4.4717,4.4878,4.5453,4.5533,4.3935,4.2153,3.9919,3.6838,3.409,0.0,0.0,0.0,0.0,0.0,0.0,0.0,3.7343,3.6436,3.5074,0.0,3.2387,0.0,2.9801,3.0223,3.0119,2.8934,2.866,2.8151,2.7286,2.5865,2.4354,2.2707,2.1572,2.0369,1.9093,1.831,1.7738,1.7377,1.6705,1.5754,1.4568,1.416,1.3367,1.2286,1.2286,1.1882,1.1191,1.0517,1.0064,0.9658,0.8243,0.7696,0.7503,0.5937,0.4949,0.4289,0.344,0.1918,0.0279,-0.0139,-0.0714,-0.124,-0.1222,-0.1692,-0.2252,-0.2539,-0.2744,-0.3032,-0.3651,-0.3939,-0.4202,-0.4761,-0.5373,-0.5873,-0.6136,-0.688,-0.7739,-0.8533,-0.9379,-1.002,-1.0264,-1.0303,-1.038,-1.0572,-1.1019,-1.1431,-1.1634,-1.2144,-1.2579,-1.2785,-1.303,-1.3198,-1.3198,-1.3442,-1.3852,-1.4454,-1.4705,-1.5134,-1.577,-1.5799,-1.5799,-1.5799,-1.5799,-1.5799,-1.5799,-1.5799,-1.5885,-1.6025,-1.6052,-1.6377,4.1595,4.2832,4.3979,4.4327,4.4124,4.3034,4.0,3.7882,3.5265,3.0757,0.0,2.7998,2.8983,3.0646,3.2679,3.5295,0.0,3.8219,3.6559,3.6148,3.5117,3.2711,3.2223,3.1712,3.0708,3.062,3.0357,2.9729,2.8699,2.8109,2.8109,2.5798,2.4166,2.3418,2.198,2.059,1.9272,1.8753,1.8255,1.7731,1.7338,1.6517,1.5329,1.4811,1.4035,1.3017,1.292,1.2535,1.1898,1.1216,1.0585,0.9935,0.8534,0.7984,0.7877,0.7047,0.5941,0.4836,0.4727,0.3798,0.2589,0.2286,0.1332,0.0275,0.0186,-0.0735,-0.1787,-0.1829,-0.2221,-0.2654,-0.268,-0.3078,-0.3619,-0.4154,-0.4805,-0.5437,-0.5959,-0.6619,-0.744,-0.8492,-0.9139,-0.9696,-1.0293,-1.039,-1.0563,-1.1038,-1.1486,-1.1957,-1.2354,-1.2526,-1.2738,-1.3163,-1.3135,-1.3085,-1.3085,-1.3136,-1.3498,-1.4251,-1.4428,-1.486,-1.5668,-1.5712,-1.5741,-1.5799,-1.5799,-1.5799,-1.5799,-1.5799,-1.5969,-1.6301,-1.5997,-1.6053,4.1629,4.2533,4.3358,4.3422,4.1601,3.9103,3.6394,3.3024,0.0,0.0,0.0,2.4352,2.572,2.6749,2.8821,3.3421,0.0,0.0,0.0,0.0,3.4671,0.0,0.0,0.0,0.0,3.062,0.0,0.0,2.8473,2.8109,2.8109,2.6826,2.5108,2.2905,2.1934,2.0989,2.0024,1.97,1.9194,1.8489,1.81,1.725,1.5978,1.5046,1.4258,1.3613,1.3128,1.2832,1.2642,1.1931,1.1566,1.1316,0.9953,0.9451,0.9268,0.7984,0.7337,0.7036,0.6438,0.5647,0.4628,0.2783,0.2024,0.1698,0.1104,0.0737,0.03,-0.0786,-0.1158,-0.1482,-0.2456,-0.2785,-0.3009,-0.3597,-0.453,-0.5324,-0.5437,-0.6656,-0.7925,-0.8574,-0.9139,-0.9795,-1.0715,-1.0886,-1.1057,-1.159,-1.1737,-1.1829,-1.1902,-1.2597,-1.3112,-1.3181,-1.2801,-1.2538,-1.2538,-1.2842,-1.31,-1.3256,-1.404,-1.4721,-1.5195,-1.521,-1.5404,-1.5784,-1.5799,-1.5799,-1.5799,-1.5799,-1.5969,-1.6301,-1.6246,-1.638,4.0682,4.1449,4.1839,4.0497,3.8416,3.5363,3.0306,0.0,0.0,0.0,1.9041,1.9578,2.1334,0.0,0.0,0.0,0.0,0.0,0.0,0.0,0.0,0.0,0.0,0.0,0.0,3.0181,2.9842,2.895,2.8411,2.7858,2.7281,2.5971,2.4509,2.2953,2.1994,2.1313,2.0893,2.0165,1.9605,1.9281,1.9087,1.834,1.7159,1.6365,1.5344,1.4187,1.3608,1.319,1.2847,1.2104,1.1789,1.169,1.072,1.0115,0.971,0.9033,0.8323,0.7643,0.7289,0.6691,0.5842,0.4381,0.3408,0.2703,0.2403,0.1737,0.0972,0.0329,-0.0369,-0.1101,-0.1995,-0.2475,-0.2918,-0.3807,-0.4918,-0.5852,-0.6118,-0.6846,-0.7593,-0.8172,-0.8716,-0.933,-1.0089,-1.0447,-1.0802,-1.13,-1.1375,-1.1468,-1.1756,-1.2192,-1.2473,-1.2473,-1.2456,-1.2338,-1.2058,-1.2679,-1.3061,-1.3002,-1.3749,-1.4374,-1.4768,-1.4997,-1.521,-1.5433,-1.5668,-1.5799,-1.5799,-1.5799,-1.5969,-1.6301,-1.6301,-1.6396,3.9215,3.9623,3.9382,3.6855,3.4278,3.0597,2.409,2.0664,0.0,0.0,1.4259,1.5538,1.7459,0.0,0.0,0.0,0.0,0.0,0.0,0.0,0.0,0.0,0.0,0.0,0.0,2.9679,0.0,2.8762,2.7921,2.703,2.6185,2.477,2.3728,2.312,2.2071,2.1493,2.1493,2.0363,1.9798,1.9798,1.9798,1.928,1.8258,1.7591,1.6388,1.4774,1.423,1.3586,1.2881,1.2399,1.2159,1.1981,1.1266,1.0686,1.0185,0.9917,0.9112,0.8117,0.799,0.7456,0.6718,0.5982,0.4855,0.3731,0.3475,0.2431,0.13,0.1155,0.0231,-0.0851,-0.1451,-0.2051,-0.2827,-0.4103,-0.513,-0.6002,-0.6683,-0.6831,-0.7042,-0.7767,-0.8337,-0.8898,-0.9549,-1.0089,-1.0611,-1.1094,-1.1065,-1.1119,-1.1465,-1.1487,-1.1421,-1.1213,-1.1783,-1.1995,-1.1588,-1.2367,-1.2877,-1.2857,-1.3425,-1.395,-1.4358,-1.4752,-1.5013,-1.5104,-1.5566,-1.5799,-1.5799,-1.5799,-1.5969,-1.6301,-1.6301,-1.6342,3.731,3.6788,3.5529,3.3036,2.8473,2.3514,1.9319,0.0,0.0,1.0923,1.2108,1.3913,1.5624,1.7194,0.0,0.0,0.0,0.0,0.0,0.0,0.0,0.0,0.0,0.0,0.0,2.9315,2.8775,2.8222,2.6289,2.5039,2.4938,2.4356,2.3728,2.312,2.2071,2.1493,2.1493,2.0363,1.9798,1.9798,1.9798,1.9497,1.8871,1.78,1.6618,1.538,1.4852,1.3954,1.2954,1.3433,1.329,1.2715,1.1981,1.1665,1.1466,1.0244,0.971,0.9529,0.8903,0.8209,0.7477,0.6745,0.5955,0.507,0.3794,0.2792,0.1949,0.1299,0.0533,-0.0225,-0.0828,-0.1429,-0.2315,-0.3989,-0.4474,-0.4891,-0.6023,-0.6264,-0.6605,-0.7683,-0.8337,-0.901,-0.9963,-1.058,-1.1113,-1.1645,-1.13,-1.0891,-1.057,-1.0481,-1.0131,-0.9338,-1.0328,-1.1058,-1.1061,-1.1546,-1.2016,-1.2436,-1.2952,-1.3476,-1.395,-1.4342,-1.4737,-1.5089,-1.5566,-1.5799,-1.5799,-1.5799,-1.5969,-1.6301,-1.6301,-1.6461,3.4015,3.3299,3.1471,2.7538,2.333,1.8976,1.4449,0.0,0.0,0.949,1.0909,1.2613,1.4064,1.5524,1.72,0.0,0.0,0.0,0.0,0.0,0.0,0.0,0.0,0.0,0.0,0.0,2.8561,2.767,2.5875,2.4788,2.4788,2.3935,2.3346,2.3108,2.2071,2.1493,2.1493,2.0363,1.9798,1.9798,1.9798,1.9522,1.897,1.8536,1.7497,1.6009,1.5437,1.472,1.3954,1.3467,1.3324,1.3372,1.272,1.2187,1.174,1.1191,1.0491,0.9762,0.9484,0.8942,0.8235,0.7503,0.6772,0.5864,0.4333,0.3336,0.2593,0.185,0.1109,0.0313,-0.0649,-0.1607,-0.2691,-0.4081,-0.4408,-0.4631,-0.548,-0.5943,-0.6428,-0.7217,-0.8095,-0.893,-0.9658,-1.0215,-1.0659,-1.0859,-1.0717,-1.0411,-0.9979,-1.0142,-0.997,-0.9102,-1.0181,-1.0867,-1.0603,-1.1549,-1.2239,-1.238,-1.2897,-1.3284,-1.3476,-1.4133,-1.458,-1.4737,-1.5433,-1.5799,-1.5799,-1.5799,-1.587,-1.6011,-1.6205,-1.6057,2.9484,2.8849,2.6925,2.2322,1.8859,1.542,0.0,0.0,0.0,0.8408,0.9754,1.1312,1.2692,1.4195,1.5669,0.0,0.0,0.0,0.0,0.0,0.0,0.0,0.0,2.9377,0.0,2.8599,2.7984,2.6866,2.5561,2.4713,2.4582,2.3634,2.3032,2.2869,2.1983,2.1405,2.1242,2.0288,1.9798,1.9798,1.9798,1.961,1.9221,1.8907,1.808,1.686,1.6115,1.5475,1.4864,1.3852,1.3586,1.3732,1.3128,1.2584,1.2104,1.1888,1.1091,1.0064,0.9865,0.9361,0.8672,0.7937,0.7348,0.6624,0.5023,0.3853,0.2998,0.2481,0.163,0.0626,-0.0582,-0.1541,-0.2406,-0.3397,-0.377,-0.4055,-0.4644,-0.5389,-0.6145,-0.6868,-0.7915,-0.8878,-0.9399,-0.9942,-1.0244,-1.0088,-1.0059,-0.9887,-0.9421,-0.9772,-0.98,-0.9084,-1.0086,-1.0712,-1.0553,-1.1745,-1.2546,-1.263,-1.2985,-1.3267,-1.3408,-1.41,-1.4564,-1.4674,-1.5418,-1.5799,-1.5799,-1.5799,-1.5799,-1.5799,-1.5826,-1.5411,2.3579,2.3319,2.1773,1.7921,1.5153,1.2573,0.0,0.0,0.0,0.7381,0.8528,1.0006,1.1618,1.3006,1.4364,0.0,0.0,0.0,0.0,0.0,0.0,0.0,0.0,2.89,2.8888,2.7946,2.6829,2.5699,2.5121,2.4582,2.4042,2.3421,2.2857,2.2334,2.1782,2.1257,2.0704,2.0087,1.9798,1.9798,1.9798,1.9798,1.9761,1.8694,1.8166,1.801,1.6954,1.6123,1.544,1.49,1.4329,1.3732,1.3128,1.2905,1.2798,1.208,1.1366,1.0686,1.0038,0.9361,0.8672,0.7937,0.7696,0.7378,0.5776,0.4255,0.3091,0.3091,0.202,0.0626,-0.0582,-0.0918,-0.1073,-0.1674,-0.2273,-0.2871,-0.3413,-0.4465,-0.5642,-0.6778,-0.7915,-0.8878,-0.9399,-0.9942,-1.0118,-0.9578,-0.9498,-0.9334,-0.8872,-0.9216,-0.9373,-0.9023,-0.9794,-1.0523,-1.1051,-1.1961,-1.2703,-1.3151,-1.3198,-1.3408,-1.3868,-1.4278,-1.469,-1.5089,-1.5566,-1.5799,-1.5799,-1.5799,-1.5799,-1.5784,-1.511,-1.4593,1.9835,1.9696,1.8173,1.547,1.3346,1.122,0.8631,0.0,0.0,0.0,0.871,1.0126,1.1647,1.3006,1.4255,1.5371,0.0,0.0,0.0,0.0,0.0,0.0,2.8244,2.836,0.0,2.7005,2.5988,2.5624,2.477,2.418,2.4004,2.3421,2.2844,2.2334,2.1782,2.1257,2.0704,2.0087,1.9798,1.9798,1.9798,1.961,1.9233,1.8895,1.8534,1.8104,1.6934,1.6563,1.6662,1.483,1.4213,1.4306,1.3296,1.2905,1.2881,1.2642,1.1807,1.0771,1.0568,0.9736,0.8752,0.8533,0.8103,0.7599,0.7089,0.5854,0.4292,0.2769,0.1712,0.0742,-0.0563,-0.0895,-0.1051,-0.1652,-0.2251,-0.2738,-0.2915,-0.4186,-0.5513,-0.6232,-0.7349,-0.8316,-0.8857,-0.9399,-0.9578,-0.9039,-0.9578,-0.9752,-0.891,-0.9524,-0.9887,-0.9456,-1.02,-1.068,-1.0629,-1.1483,-1.221,-1.2685,-1.3012,-1.3408,-1.3885,-1.4294,-1.469,-1.5089,-1.5566,-1.5799,-1.5799,-1.5799,-1.5799,-1.5769,-1.4646,-1.4652,0.0,1.5295,1.4703,1.2842,1.1541,0.0,0.0,0.0,0.0,0.0,0.0,0.0,0.0,0.0,0.0,0.0,0.0,0.0,0.0,0.0,0.0,0.0,0.0,0.0,0.0,2.6214,2.5523,2.5322,2.4494,2.4004,2.4004,2.3421,2.2757,2.202,2.1669,2.1117,2.0377,1.9987,1.9798,1.9798,1.9798,1.9635,1.9284,1.9096,1.892,1.8732,1.738,1.7143,0.0,1.5118,1.4352,1.4594,1.3358,1.2905,1.2905,1.2905,1.2172,1.1141,1.0889,1.009,0.9133,0.8883,0.8103,0.7289,0.7289,0.6354,0.4904,0.2957,0.1946,0.1205,0.0138,-0.0363,-0.065,-0.1029,-0.1762,-0.2361,-0.2361,-0.392,-0.547,-0.5993,-0.7078,-0.8077,-0.8602,-0.8978,-0.9019,-0.848,-0.9139,-0.9467,-0.8847,-0.9481,-0.9897,-0.9623,-1.0231,-1.0515,-1.0126,-1.1279,-1.2242,-1.2726,-1.3042,-1.3408,-1.3885,-1.4294,-1.469,-1.5089,-1.5566,-1.5799,-1.5799,-1.5559,-1.541,-1.5409,-1.4406,-1.4508,0.0,0.0,0.0,0.0,0.0,0.0,0.0,0.0,0.0,0.0,0.0,0.0,0.0,0.0,0.0,0.0,0.0,0.0,0.0,0.0,0.0,0.0,2.8072,0.0,2.5749,2.5561,2.5322,2.4763,2.4255,2.3941,2.3941,2.3396,2.2606,2.1518,2.1493,2.0941,1.9811,1.9798,1.9798,1.9798,1.9798,1.9798,1.9786,1.9246,1.9284,1.971,1.8114,1.7689,1.8022,1.5695,1.4744,1.4583,1.343,1.2954,1.2905,1.2905,1.2427,1.1715,1.1091,1.0389,0.9692,0.9008,0.783,0.6669,0.6669,0.6019,0.4948,0.3588,0.2651,0.193,0.1262,0.0578,0.0045,0.0,-0.0918,-0.1808,-0.1808,-0.361,-0.5384,-0.5886,-0.6952,-0.7925,-0.8431,-0.8594,-0.8459,-0.7912,-0.8357,-0.8736,-0.8695,-0.9199,-0.9559,-0.9604,-1.0019,-1.0125,-0.9731,-1.1348,-1.2564,-1.3074,-1.3163,-1.3408,-1.3885,-1.4237,-1.462,-1.5017,-1.5492,-1.5709,-1.5664,-1.5035,-1.4736,-1.4721,-1.4295,-1.4141,0.0,0.0,0.0,0.0,0.0,0.0,0.0,0.0,0.0,0.0,0.0,0.0,0.0,0.0,0.0,0.0,0.0,0.0,0.0,0.0,0.0,2.7866,2.7733,2.6979,2.5724,2.5234,2.4782,2.423,2.3622,2.3308,2.3308,2.3183,2.2606,2.1518,2.1493,2.0941,1.9811,1.9798,1.9798,1.9798,1.9798,1.9798,1.9786,1.9246,1.9284,1.971,1.8114,1.7689,1.8045,1.6176,1.513,1.4629,1.3873,1.331,1.2905,1.2905,1.2427,1.1789,1.1616,1.0788,0.9692,0.9008,0.8182,0.745,0.745,0.6144,0.4618,0.4216,0.3487,0.2563,0.1414,0.09,0.0583,0.0112,-0.0918,-0.1808,-0.1808,-0.3284,-0.4648,-0.4769,-0.5771,-0.6647,-0.6768,-0.7502,-0.7884,-0.7301,-0.8403,-0.9159,-0.8756,-0.9518,-0.9973,-0.9641,-0.9973,-1.0362,-1.0723,-1.1488,-1.1993,-1.212,-1.2791,-1.3408,-1.3885,-1.3796,-1.3917,-1.4328,-1.4798,-1.4767,-1.4274,-1.4109,-1.4049,-1.4019,-1.3416,-1.3681,0.0,0.0,0.0,0.0,0.0,0.0,0.0,0.0,0.0,0.0,0.0,0.0,0.0,0.0,0.0,0.0,0.0,0.0,0.0,0.0,0.0,2.7155,2.6854,2.6176,2.5322,2.4757,2.4318,2.4017,2.3434,2.3221,2.3484,2.3246,2.2606,2.1518,2.1493,2.0941,1.9811,1.9798,1.9798,1.9798,1.9798,1.9798,1.9798,1.951,1.9384,1.9359,1.8254,1.779,1.7706,1.6215,1.541,1.5028,1.4143,1.36,1.3286,1.2992,1.2642,1.2261,1.1922,1.0914,0.9633,0.8626,0.8023,0.7696,0.7696,0.6664,0.5393,0.5019,0.4271,0.3301,0.1952,0.1256,0.0742,0.0138,-0.0704,-0.1474,-0.1741,-0.2954,-0.4142,-0.4713,-0.5567,-0.6285,-0.652,-0.7091,-0.7468,-0.7426,-0.8382,-0.9119,-0.9079,-0.9598,-0.974,-0.9118,-0.9406,-0.963,-0.9584,-1.0544,-1.1528,-1.2378,-1.2925,-1.3276,-1.3437,-1.3327,-1.3561,-1.4184,-1.459,-1.4618,-1.4259,-1.3947,-1.3797,-1.3782,-1.3118,-1.3508,0.0,0.0,0.0,0.0,0.0,0.0,0.0,0.0,0.0,0.0,0.0,0.0,0.0,0.0,0.0,0.0,0.0,0.0,2.4568,2.4292,2.4374,2.6155,2.5858,2.5234,2.4587,2.4217,2.3966,2.3879,2.3384,2.3382,2.4026,2.3387,2.2564,2.1701,2.1489,2.0865,1.9811,1.9723,1.9723,1.9798,1.9723,1.9723,1.9798,1.9798,1.956,1.9096,1.8568,1.8066,1.7553,1.6363,1.5878,1.5723,1.4443,1.3928,1.3849,1.3148,1.2905,1.2798,1.2055,1.1065,0.9884,0.8481,0.7957,0.7851,0.7857,0.7343,0.6637,0.6005,0.5132,0.4031,0.2569,0.1643,0.089,0.0166,-0.0462,-0.1073,-0.1673,-0.2622,-0.3698,-0.4826,-0.5588,-0.62,-0.6662,-0.6894,-0.7168,-0.7683,-0.8234,-0.8736,-0.9199,-0.9373,-0.9179,-0.8415,-0.8785,-0.8772,-0.8026,-0.9463,-1.1109,-1.2766,-1.2889,-1.2814,-1.2691,-1.2793,-1.3247,-1.4124,-1.4429,-1.4546,-1.4496,-1.4139,-1.3855,-1.3645,-1.3178,-1.3613,0.3715,0.0,0.0,0.0,0.0,0.0,0.0,0.0,0.0,0.0,0.0,0.0,0.0,0.0,0.0,0.0,0.0,2.3011,0.0,0.0,2.4885,2.564,2.5259,2.4499,2.3459,2.3766,2.3791,2.3283,2.3158,2.3433,2.422,2.3076,2.2436,2.2443,2.1396,2.0503,1.9811,1.9334,1.9334,1.9798,1.9334,1.9359,1.9798,1.9798,1.9761,1.966,1.9108,1.8832,1.8669,1.7572,1.7099,1.6872,1.5209,1.4533,1.4352,1.3292,1.2905,1.2798,1.2055,1.1665,1.1266,0.9928,0.9039,0.8561,0.8606,0.8103,0.7503,0.7396,0.6293,0.4688,0.272,0.2025,0.1533,0.0286,-0.0462,-0.1073,-0.1673,-0.2339,-0.3028,-0.3726,-0.4705,-0.5459,-0.554,-0.6359,-0.7021,-0.7126,-0.7635,-0.8057,-0.8139,-0.8545,-0.863,-0.8127,-0.888,-0.9235,-0.8764,-0.9763,-1.0686,-1.1377,-1.1423,-1.1515,-1.1708,-1.1997,-1.2534,-1.3352,-1.3484,-1.3388,-1.3115,-1.4152,-1.4062,-1.2954,-1.3436,-1.4064,0.3615,0.6437,0.0,0.0,0.0,0.0,0.0,0.0,0.0,0.0,0.0,0.0,0.0,0.0,0.0,0.0,0.0,2.3635,2.5014,2.4305,2.3917,2.4661,2.4211,2.3797,2.3597,2.3948,2.4034,2.3763,2.4134,2.4496,2.4866,2.3964,2.3173,2.2618,2.1681,2.0731,1.9811,1.9259,1.9259,1.9798,1.956,1.9572,1.9798,1.9798,1.9648,1.9346,1.9108,1.8832,1.8519,1.8041,1.7825,1.7665,1.6551,1.589,1.5407,1.3933,1.3176,1.2798,1.2055,1.1789,1.1591,1.0244,0.9573,0.9228,0.8903,0.856,0.8209,0.7803,0.6823,0.5496,0.3827,0.2695,0.1767,0.0807,0.007,-0.0583,-0.1185,-0.1784,-0.2583,-0.3796,-0.4718,-0.5497,-0.6118,-0.6656,-0.7105,-0.7447,-0.7725,-0.7995,-0.8296,-0.8331,-0.8156,-0.7718,-0.8343,-0.863,-0.8236,-0.9091,-1.0057,-1.1046,-1.1206,-1.123,-1.1131,-1.1621,-1.2244,-1.2965,-1.3482,-1.3782,-1.3882,-1.4496,-1.4302,-1.3346,-1.366,-1.4169,0.3498,0.6391,0.0,0.0,0.0,0.0,0.0,0.0,0.0,0.0,0.0,0.0,0.0,0.0,0.0,2.4673,2.4576,2.4236,2.4538,2.3664,2.3313,2.4165,2.375,2.3633,2.4278,2.4468,2.4567,2.4567,2.5063,2.5481,2.5646,2.4585,2.3634,2.287,2.1773,2.0733,1.9811,1.9384,1.9384,1.9798,1.9673,1.9685,1.9798,1.9798,1.9585,1.9183,1.9183,1.8945,1.8568,1.8442,1.8468,1.8495,1.7484,1.6563,1.5614,1.4285,1.342,1.2822,1.2236,1.2055,1.1823,1.0466,1.0038,0.9891,0.9061,0.8804,0.8672,0.8129,0.7235,0.6122,0.4749,0.3234,0.1892,0.1252,0.0548,-0.0157,-0.0761,-0.1396,-0.2274,-0.3723,-0.4723,-0.5608,-0.6456,-0.6831,-0.7174,-0.7722,-0.7814,-0.7961,-0.8365,-0.8109,-0.7735,-0.7349,-0.7905,-0.8253,-0.8094,-0.8723,-0.9608,-1.0673,-1.1108,-1.1126,-1.0722,-1.1397,-1.213,-1.2865,-1.3513,-1.4056,-1.4507,-1.4654,-1.4391,-1.3733,-1.3893,-1.4285,0.3151,0.4876,0.0,0.0,0.0,0.0,0.0,0.0,0.0,0.0,0.0,0.0,0.0,0.0,2.2392,2.3623,2.4753,2.5644,2.6258,2.4943,2.4184,2.4922,2.4531,2.4494,2.5244,2.5314,2.5315,2.5315,2.537,2.5701,2.6377,2.4079,2.3003,2.3598,2.1211,1.9888,1.9798,1.9761,1.9761,1.9798,1.9284,1.9309,1.9798,1.9798,1.9786,1.9748,1.9748,1.9723,1.9648,1.9146,1.9233,1.9471,1.7315,1.5451,1.3975,1.3849,1.342,1.2881,1.2847,1.2822,1.2593,1.1174,1.0745,1.0491,0.9185,0.8804,0.8778,0.8725,0.7685,0.6261,0.4781,0.3295,0.2007,0.1285,0.0548,-0.0157,-0.0761,-0.1474,-0.2149,-0.2714,-0.4254,-0.546,-0.543,-0.6295,-0.7114,-0.7483,-0.7524,-0.7546,-0.7591,-0.7548,-0.7404,-0.7056,-0.8021,-0.8874,-0.9419,-0.9508,-0.96,-0.9702,-1.0541,-1.0848,-1.0446,-1.1251,-1.2139,-1.307,-1.3072,-1.3248,-1.3589,-1.4231,-1.419,-1.3533,-1.4161,-1.4685,0.3097,0.481,0.0,0.0,0.0,0.0,0.0,0.0,0.0,0.0,0.0,0.0,0.0,0.0,2.2422,2.3824,2.4717,2.5327,2.5576,2.5063,2.4822,2.5245,2.5128,2.5091,2.537,2.581,2.6095,2.6095,2.6121,2.628,2.6547,2.4483,2.3219,2.3095,2.1342,2.022,1.9798,1.9798,1.9798,1.9798,1.9597,1.9367,1.9123,1.9123,1.8874,1.8436,1.8436,1.8688,1.9111,1.8891,1.9199,1.9622,1.7703,1.6321,1.5293,1.4204,1.342,1.2905,1.2905,1.2905,1.2749,1.1749,1.1141,1.0644,0.9718,0.9133,0.8804,0.8804,0.775,0.6475,0.5919,0.3989,0.213,0.1845,0.0877,-0.0072,-0.0281,-0.1152,-0.2038,-0.2598,-0.3836,-0.5094,-0.5952,-0.6458,-0.6978,-0.7639,-0.7756,-0.7756,-0.7756,-0.7756,-0.7635,-0.7335,-0.7835,-0.8246,-0.8342,-0.8785,-0.8855,-0.8388,-0.9441,-1.0134,-1.0269,-1.0596,-1.1342,-1.2584,-1.2908,-1.3408,-1.411,-1.4375,-1.4221,-1.3709,-1.4251,-1.4426,0.3074,0.4483,0.0,0.0,0.0,0.0,0.0,0.0,0.0,0.0,0.0,0.0,0.0,0.0,0.0,0.0,2.4193,2.4711,2.4788,2.4656,2.4689,2.5076,2.5114,2.5291,2.5742,2.6246,2.652,2.652,2.6554,2.6409,2.6031,2.4341,2.309,2.2451,2.1161,2.0245,1.9798,1.9798,1.9798,1.9798,1.9798,1.9423,1.8688,1.8688,1.8313,1.7605,1.7605,1.7907,1.8355,1.8355,1.8567,1.8744,1.7591,1.6676,1.5821,1.4467,1.3599,1.3057,1.2954,1.2905,1.2774,1.2055,1.1341,1.0661,0.9987,0.9335,0.8804,0.8804,0.775,0.6588,0.6588,0.4404,0.2197,0.2197,0.1085,0.0,0.0,-0.0824,-0.1743,-0.2309,-0.3427,-0.4711,-0.6078,-0.651,-0.6982,-0.7927,-0.8045,-0.8012,-0.7919,-0.7905,-0.7892,-0.7874,-0.804,-0.8166,-0.8205,-0.8512,-0.8489,-0.7974,-0.8599,-0.9293,-0.9954,-1.0125,-1.0735,-1.188,-1.242,-1.3,-1.365,-1.365,-1.3487,-1.3175,-1.3504,-1.3607,0.2927,0.3607,0.0,0.0,0.0,0.0,0.0,0.0,0.0,0.0,0.0,0.0,0.0,0.0,0.0,2.1752,2.3114,2.4012,2.4086,2.3625,2.3609,2.4415,2.4507,2.5062,2.6464,2.6572,2.6572,2.6572,2.6572,2.6031,2.4757,2.3428,2.2412,2.1794,2.0489,1.9798,1.9798,1.9798,1.9798,1.9798,1.9798,1.9423,1.8688,1.8688,1.8274,1.7578,1.7567,1.7578,1.7578,1.7594,1.7276,1.6788,1.6777,1.6081,1.5044,1.4579,1.4023,1.3447,1.3027,1.2905,1.2774,1.2055,1.1366,1.0686,1.0012,0.9335,0.8804,0.8804,0.775,0.6588,0.6588,0.4404,0.2199,0.2199,0.1085,0.0,0.0,-0.058,-0.1246,-0.1699,-0.2994,-0.4351,-0.551,-0.6314,-0.717,-0.8224,-0.8402,-0.8295,-0.7952,-0.7912,-0.8109,-0.8643,-0.8683,-0.8898,-0.943,-0.8999,-0.8675,-0.8675,-0.8193,-0.8378,-0.9439,-0.9943,-1.0436,-1.0981,-1.1516,-1.1792,-1.1792,-1.1792,-1.1792,-1.1792,-1.1792,-1.2253,0.1916,0.0,0.0,0.0,0.0,0.0,0.0,0.0,0.0,0.0,0.0,0.0,0.0,0.0,0.0,2.027,2.1022,2.2012,2.3527,2.3593,2.3963,2.5134,2.5278,2.5423,2.586,2.5899,2.5899,2.5899,2.5457,2.4851,2.4052,2.2742,2.1735,2.1134,2.0258,1.9798,1.9798,1.9798,1.9798,1.9798,1.9798,1.915,1.7934,1.7934,1.7235,1.6034,1.5757,1.6106,1.6845,1.7086,1.6916,1.6418,1.5582,1.5038,1.466,1.4008,1.3476,1.3096,1.3262,1.315,1.2847,1.2632,1.1758,1.0762,1.0568,0.9718,0.8804,0.8804,0.775,0.6588,0.6588,0.4845,0.2911,0.2335,0.1065,0.0,0.0,-0.0513,-0.1155,-0.181,-0.2631,-0.3704,-0.5168,-0.6032,-0.6839,-0.7754,-0.8358,-0.8651,-0.8532,-0.837,-0.8211,-0.8132,-0.7974,-0.7759,-0.7482,-0.7489,-0.7423,-0.7228,-0.7258,-0.7773,-0.8898,-0.907,-0.955,-1.0417,-1.0971,-1.1412,-1.1792,-1.1792,-1.1608,-1.1244,-1.1627,-1.1733,0.2036,0.0,0.0,0.0,0.0,0.0,0.0,0.0,0.0,0.0,0.0,1.9136,1.9799,1.9251,0.0,1.9876,2.0378,2.1236,2.2956,2.319,2.3593,2.4677,2.4807,2.4911,2.5173,2.5187,2.5187,2.5187,2.4829,2.4221,2.3354,2.2273,2.1424,2.082,2.0156,1.9798,1.9798,1.9798,1.9798,1.9798,1.9798,1.9044,1.7605,1.7605,1.68,1.5391,1.4971,1.5203,1.5825,1.5843,1.5705,1.5416,1.4696,1.4415,1.4338,1.3906,1.3486,1.3164,1.3418,1.3232,1.2905,1.2905,1.195,1.0788,1.0788,0.9865,0.8725,0.8454,0.7503,0.6534,0.6231,0.48,0.3206,0.2397,0.1284,0.0362,0.0055,-0.0291,-0.0747,-0.144,-0.2145,-0.3091,-0.4606,-0.5776,-0.667,-0.7186,-0.7799,-0.8313,-0.8605,-0.857,-0.8414,-0.8101,-0.7915,-0.7622,-0.7153,-0.7052,-0.6926,-0.6774,-0.6906,-0.7308,-0.7992,-0.8247,-0.8768,-0.9581,-1.0138,-1.0552,-1.0895,-1.1094,-1.1048,-1.0725,-1.1048,-1.1132,0.0,0.0,0.0,0.0,0.0,0.0,0.0,0.0,0.0,0.0,0.0,1.9893,1.9814,1.9459,1.9432,2.0136,2.0546,2.117,2.2355,2.2517,2.2794,2.3502,2.3595,2.3849,2.4455,2.4515,2.4515,2.4515,2.4515,2.3985,2.2746,2.2077,2.1424,2.082,2.0156,1.9798,1.9798,1.9798,1.9798,1.9798,1.9798,1.9071,1.7715,1.7633,1.6778,1.5342,1.499,1.4775,1.4639,1.425,1.4065,1.3997,1.3997,1.3997,1.4007,1.4075,1.3821,1.3467,1.3535,1.3262,1.2881,1.2822,1.1891,1.0788,1.0745,0.9762,0.8566,0.7883,0.7128,0.634,0.5678,0.4498,0.3289,0.248,0.1675,0.0923,0.0252,0.0055,-0.0186,-0.0802,-0.1622,-0.2621,-0.3892,-0.545,-0.6529,-0.6588,-0.7027,-0.7561,-0.8158,-0.8449,-0.8479,-0.814,-0.8104,-0.7997,-0.773,-0.7244,-0.6934,-0.687,-0.695,-0.6979,-0.6937,-0.7558,-0.8152,-0.8683,-0.9219,-0.9518,-0.9578,-1.0059,-1.0303,-1.0303,-1.0342,-1.0585,0.0,0.0,0.0,0.0,0.0,0.0,0.0,0.0,0.0,0.0,1.9231,1.967,1.8997,1.8547,1.8487,1.9109,1.9029,1.9587,2.1624,2.188,2.2334,2.3465,2.3595,2.3655,2.3804,2.3819,2.3819,2.3819,2.3819,2.3481,2.2731,2.2077,2.1424,2.082,2.0156,1.9798,1.9798,1.9798,1.9798,1.9798,1.9798,1.9333,1.8447,1.7841,1.6625,1.4932,1.5176,1.4707,1.3799,1.4007,1.3724,1.3154,1.3154,1.3154,1.3232,1.386,1.3662,1.3105,1.3743,1.3506,1.2798,1.2212,1.1475,1.0686,1.0167,0.9033,0.791,0.775,0.674,0.5706,0.5542,0.4889,0.407,0.3262,0.2063,0.1062,0.0895,0.0409,-0.0215,-0.0908,-0.1675,-0.2482,-0.3343,-0.4747,-0.5928,-0.6507,-0.7191,-0.7456,-0.7052,-0.753,-0.7602,-0.6743,-0.6646,-0.6548,-0.6265,-0.6418,-0.6326,-0.586,-0.656,-0.681,-0.6392,-0.7363,-0.8152,-0.8683,-0.9219,-0.9705,-1.0127,-1.0244,-1.0303,-1.0312,-1.0615,-1.0832,0.0,0.0,0.0,0.0,0.0,0.0,0.0,0.0,0.0,1.5292,1.7428,1.9134,1.8685,1.8091,1.7953,1.8772,1.8569,1.8987,2.0992,2.1531,2.2066,2.3048,2.3415,2.3595,2.3595,2.3837,2.3879,2.3616,2.3534,2.3384,2.315,2.1948,2.1256,2.1245,2.0308,1.9798,1.9798,1.9798,1.9798,1.9798,1.9798,1.9228,1.814,1.7413,1.6443,1.531,1.4952,1.428,1.3506,1.3525,1.3086,1.2403,1.2774,1.2691,1.2522,1.3678,1.3704,1.3271,1.389,1.3695,1.3035,1.2085,1.1341,1.0661,0.9987,0.8817,0.7616,0.7262,0.6362,0.5433,0.5109,0.4759,0.4405,0.3984,0.273,0.1535,0.1174,0.0525,-0.011,-0.0502,-0.1157,-0.1912,-0.2639,-0.4033,-0.5386,-0.6448,-0.6637,-0.6632,-0.6615,-0.6939,-0.6924,-0.6262,-0.6152,-0.5977,-0.5686,-0.5783,-0.5858,-0.5841,-0.6335,-0.6605,-0.6583,-0.7154,-0.7739,-0.8296,-0.8837,-0.9379,-0.9922,-0.9922,-1.004,-1.0293,-1.0123,-1.0359,0.0,0.0,0.0,0.0,0.0,0.0,0.0,0.0,0.0,1.2439,1.5564,1.8302,1.8148,1.7682,1.7582,1.8457,1.836,1.8717,2.0267,2.1078,2.1752,2.2319,2.3083,2.3565,2.3565,2.4164,2.4261,2.3607,2.3467,2.3365,2.3272,2.1695,2.1015,2.1545,2.0419,1.9798,1.9798,1.9798,1.9798,1.9798,1.9798,1.9049,1.7673,1.6991,1.6332,1.5652,1.4576,1.387,1.3477,1.3135,1.2601,1.2055,1.2666,1.2535,1.2147,1.3573,1.3792,1.3467,1.3938,1.3782,1.3204,1.2006,1.1266,1.0636,0.9865,0.8639,0.7375,0.6777,0.5982,0.5191,0.4653,0.4491,0.4491,0.4491,0.3428,0.2174,0.1452,0.0699,0.014,0.0028,-0.0588,-0.1369,-0.2232,-0.3456,-0.4732,-0.6041,-0.5819,-0.5678,-0.6177,-0.6344,-0.6267,-0.5954,-0.5813,-0.5623,-0.5353,-0.528,-0.5402,-0.5804,-0.5984,-0.6286,-0.6747,-0.6905,-0.7276,-0.796,-0.8368,-0.8817,-0.9359,-0.9359,-0.9614,-1.0075,-0.9491,-0.9761,0.0,0.0,0.0,0.0,0.0,0.0,0.0,0.0,0.0,0.0,1.4379,1.715,1.6397,1.6557,1.6911,1.735,1.7577,1.8051,1.9019,2.0174,2.0969,2.1129,2.2491,2.3427,2.3427,2.443,2.4638,2.3513,2.3409,2.2985,2.2019,2.1218,2.0836,2.0919,2.0199,1.9798,1.9798,1.9798,1.9798,1.9798,1.9798,1.9177,1.8021,1.7632,1.6554,1.4923,1.4353,1.387,1.3506,1.3447,1.3153,1.2774,1.2847,1.2847,1.2846,1.3766,1.3607,1.3101,1.3831,1.3623,1.2743,1.1392,1.0864,1.0568,0.9309,0.791,0.6723,0.6642,0.566,0.4625,0.4515,0.4491,0.4491,0.4491,0.3818,0.2954,0.2204,0.148,0.0755,0.0112,-0.0588,-0.1535,-0.2926,-0.3317,-0.376,-0.4653,-0.5191,-0.5328,-0.4842,-0.5273,-0.5401,-0.4785,-0.4712,-0.4691,-0.4642,-0.4825,-0.4759,-0.4325,-0.5101,-0.5687,-0.5864,-0.6492,-0.7281,-0.8231,-0.8076,-0.8275,-0.8797,-0.8797,-0.8964,-0.9274,-0.9501,-0.9862,0.0,0.0,0.0,0.0,0.0,0.0,0.0,0.0,0.8904,0.9116,1.1588,1.4021,1.5228,1.5716,1.6274,1.7348,1.7243,1.7299,1.8216,1.9151,1.9888,2.0302,2.1315,2.236,2.3316,2.4135,2.4293,2.3456,2.3334,2.2688,2.1324,2.0619,2.027,2.0334,1.9999,1.9798,1.9798,1.9798,1.9798,1.9798,1.9798,1.9166,1.7967,1.724,1.6116,1.4675,1.4261,1.3734,1.3154,1.3154,1.283,1.232,1.2749,1.2642,1.241,1.3391,1.3545,1.3281,1.3627,1.3545,1.2984,1.1318,1.0788,1.0458,0.8725,0.745,0.6507,0.6091,0.5277,0.4491,0.4491,0.4491,0.4491,0.4491,0.4236,0.3649,0.2454,0.1619,0.0895,0.014,-0.0588,-0.1424,-0.2508,-0.3037,-0.3566,-0.4377,-0.4759,-0.4842,-0.4546,-0.4759,-0.4814,-0.4543,-0.4392,-0.4341,-0.4341,-0.4371,-0.4416,-0.4487,-0.4925,-0.5353,-0.5747,-0.6078,-0.6442,-0.69,-0.7696,-0.8396,-0.893,-0.8622,-0.8775,-0.9316,-0.908,-0.9403,0.0,0.0,0.0,0.0,0.0,0.0,0.0,0.0,0.7453,0.0,0.8763,1.0526,1.3078,1.415,1.5117,1.6645,1.6502,1.6462,1.7232,1.8204,1.892,1.9162,2.0288,2.1594,2.3006,2.3745,2.3907,2.339,2.309,2.2248,2.0686,2.0097,1.9854,1.9948,1.9862,1.9798,1.9798,1.9798,1.9798,1.9798,1.9798,1.8989,1.7512,1.6848,1.5689,1.4142,1.3894,1.3457,1.2905,1.2905,1.2584,1.2129,1.2691,1.2559,1.2175,1.3153,1.3437,1.3334,1.3263,1.3164,1.2783,1.1107,1.0542,1.0202,0.8263,0.7182,0.6448,0.5706,0.503,0.4491,0.4491,0.4491,0.4491,0.4491,0.4491,0.407,0.2536,0.148,0.0671,0.0112,-0.0588,-0.134,-0.2063,-0.2815,-0.3594,-0.4377,-0.4491,-0.4491,-0.4491,-0.4491,-0.4491,-0.4491,-0.4365,-0.4274,-0.4274,-0.4139,-0.4253,-0.4702,-0.4902,-0.5293,-0.5928,-0.6156,-0.6335,-0.6449,-0.7508,-0.8212,-0.8513,-0.8231,-0.849,-0.9197,-0.8651,-0.8923,0.0,0.0,0.0,0.0,0.0,0.0,0.0,0.0,0.5523,0.6378,0.661,0.7192,0.8973,1.1179,1.3096,1.4225,1.4933,1.548,1.5769,1.7501,1.8335,1.7353,1.9754,2.1719,2.2378,2.3346,2.3718,2.324,2.2564,2.1461,1.9852,1.9795,1.9809,1.9806,1.9812,1.9798,1.9798,1.9798,1.9798,1.9798,1.9798,1.8615,1.6482,1.681,1.5502,1.2983,1.2964,1.2944,1.2905,1.2905,1.2881,1.2856,1.2881,1.2881,1.2905,1.335,1.3262,1.2895,1.2637,1.2261,1.1667,1.0295,0.9865,0.9581,0.8143,0.7182,0.6448,0.5706,0.503,0.4491,0.4491,0.4491,0.4491,0.4491,0.4491,0.407,0.2536,0.1062,0.0056,0.0,-0.0588,-0.134,-0.2063,-0.2871,-0.3652,-0.4377,-0.4491,-0.4491,-0.4491,-0.4491,-0.4491,-0.4491,-0.4484,-0.4481,-0.4481,-0.4294,-0.421,-0.4236,-0.4904,-0.5595,-0.634,-0.7154,-0.7806,-0.825,-0.7665,-0.7221,-0.6925,-0.7338,-0.7862,-0.845,-0.842,-0.8568,0.0,0.0,0.0,0.0,0.0,0.0,0.0,0.3517,0.4085,0.4456,0.4442,0.4725,0.5746,0.808,1.0535,1.2633,1.3415,1.4039,1.483,1.5999,1.6873,1.7057,1.8044,1.9384,2.114,2.1629,2.1927,2.2098,2.155,2.0618,1.9271,1.9244,1.9275,1.929,1.9623,1.9798,1.9798,1.9798,1.9798,1.9798,1.9307,1.8476,1.734,1.6299,1.5107,1.3818,1.3174,1.2905,1.2905,1.2905,1.2905,1.2905,1.2905,1.2905,1.2925,1.3047,1.2717,1.2181,1.207,1.1664,1.1015,1.009,0.9488,0.8823,0.7412,0.647,0.5651,0.447,0.4315,0.4377,0.3929,0.379,0.3652,0.3148,0.2676,0.2176,0.1619,0.0699,0.0,0.0,-0.0588,-0.134,-0.2063,-0.2843,-0.3594,-0.4377,-0.4491,-0.4491,-0.4491,-0.4491,-0.4491,-0.4491,-0.4491,-0.4491,-0.4491,-0.4443,-0.4385,-0.4385,-0.4653,-0.5104,-0.5793,-0.5702,-0.6139,-0.722,-0.6348,-0.6289,-0.7114,-0.6819,-0.7105,-0.7961,-0.7961,-0.8253,0.0,0.0,0.0,0.0,0.0,0.0,0.0,0.0,0.2948,0.3316,0.2765,0.2467,0.3097,0.4426,0.6619,1.0222,1.1347,1.2234,1.3514,1.4869,1.589,1.6302,1.6967,1.8068,1.9893,2.0231,2.059,2.1193,2.0843,2.0196,1.9252,1.9237,1.927,1.9271,1.9623,1.9798,1.9798,1.9798,1.9798,1.9798,1.8915,1.8114,1.7352,1.5865,1.4583,1.3511,1.3001,1.2835,1.2881,1.2642,1.2525,1.251,1.228,1.2206,1.2206,1.2206,1.1882,1.1433,1.1216,1.0838,1.0338,0.9692,0.8974,0.8086,0.6666,0.5724,0.482,0.3395,0.3345,0.3624,0.3121,0.301,0.2871,0.2315,0.1647,0.109,0.109,0.0532,-0.0084,-0.0308,-0.0978,-0.1703,-0.2454,-0.3204,-0.3873,-0.4405,-0.4491,-0.4491,-0.4491,-0.4491,-0.4491,-0.4491,-0.4491,-0.4491,-0.4491,-0.4491,-0.4598,-0.4814,-0.5062,-0.5523,-0.6222,-0.6036,-0.6258,-0.6966,-0.6301,-0.6201,-0.6702,-0.6355,-0.6592,-0.7343,-0.7589,-0.8103,0.0,0.0,0.0,0.0,0.0,0.0,0.1469,0.0,0.2012,0.2971,0.1559,0.0358,0.1059,0.0376,0.1432,0.6666,0.8634,1.0111,1.1783,1.4165,1.5501,1.4972,1.6629,1.8088,1.8719,1.9253,1.9882,2.0616,2.048,2.0204,1.9824,1.9797,1.9791,1.9811,1.9798,1.9798,1.9798,1.9798,1.9773,1.9747,1.8615,1.7453,1.6325,1.5483,1.3901,1.1819,1.2265,1.2586,1.2793,1.2064,1.1765,1.1715,1.104,1.0788,1.0788,1.0788,1.0788,1.0686,1.0038,0.9762,0.964,0.8982,0.8262,0.7358,0.5914,0.4961,0.407,0.2589,0.2174,0.2202,0.2147,0.2119,0.2091,0.2063,0.1534,0.1006,0.1006,0.0448,-0.028,-0.0978,-0.1703,-0.2454,-0.3176,-0.3984,-0.4515,-0.4515,-0.4546,-0.4574,-0.4574,-0.4574,-0.4546,-0.4543,-0.4515,-0.4515,-0.4491,-0.4515,-0.4814,-0.546,-0.6199,-0.6939,-0.767,-0.8374,-0.8427,-0.775,-0.767,-0.6929,-0.5538,-0.596,-0.6315,-0.6588,-0.7343,-0.8103,-0.0506,0.0,0.0,0.0,0.0,0.0,0.0,0.0,0.0377,-0.0123,-0.0692,-0.1244,-0.1785,-0.2095,-0.1607,0.051,0.4651,0.8206,1.0043,1.2046,1.373,1.4795,1.5858,1.6961,1.8055,1.8773,1.9414,2.0003,1.9641,1.9503,1.9793,1.9795,1.9788,1.9798,1.9798,1.9798,1.9798,1.9798,1.9393,1.8565,1.7716,1.6443,1.4769,1.3734,1.2749,1.1842,1.1438,1.1456,1.1696,1.126,1.1091,1.1065,1.0864,1.0788,1.0788,1.0788,1.0491,1.0038,0.9865,0.9131,0.8243,0.807,0.7149,0.5946,0.5,0.421,0.3365,0.184,0.1786,0.195,0.089,0.0222,-0.0333,-0.0862,-0.1141,-0.1282,-0.1282,-0.1451,-0.1507,-0.1174,-0.2176,-0.3121,-0.3345,-0.4391,-0.5218,-0.5218,-0.5687,-0.6018,-0.6018,-0.6018,-0.5823,-0.5273,-0.5218,-0.503,-0.4546,-0.4948,-0.5296,-0.5483,-0.6199,-0.6939,-0.767,-0.7375,-0.7616,-0.848,-0.6923,-0.6167,-0.6285,-0.5896,-0.5734,-0.5842,-0.7095,-0.8103,0.0,0.0,0.0,0.0,0.0,0.0,0.0,0.0,-0.0293,-0.1388,-0.1932,-0.2545,-0.3563,-0.34,-0.3097,-0.3012,0.0895,0.4764,0.7097,0.9707,1.2073,1.3874,1.5222,1.6452,1.762,1.8499,1.914,1.9446,1.9367,1.9465,1.978,1.9801,1.9798,1.9798,1.9798,1.9798,1.9798,1.9501,1.8908,1.8081,1.6713,1.5355,1.4067,1.2806,1.1923,1.1368,1.0902,1.0571,1.0385,0.9769,0.9843,1.0364,1.0064,0.9969,0.9969,0.9969,0.971,0.9335,0.9033,0.8375,0.7643,0.7343,0.6443,0.532,0.4258,0.344,0.2508,0.0698,0.0279,0.0167,-0.0696,-0.1224,-0.1668,-0.2091,-0.2202,-0.2202,-0.2202,-0.2454,-0.2538,-0.2148,-0.276,-0.3456,-0.379,-0.4536,-0.5085,-0.5085,-0.5441,-0.5719,-0.5719,-0.5719,-0.555,-0.514,-0.5085,-0.4921,-0.4543,-0.4866,-0.5328,-0.5928,-0.6367,-0.7074,-0.8103,-0.775,-0.7777,-0.8321,-0.7385,-0.6929,-0.7047,-0.6005,-0.5814,-0.6438,-0.731,-0.8103,0.0,0.0,0.0,0.0,0.0,0.0,0.0,0.0,-0.0292,-0.1387,-0.2391,-0.3407,-0.4336,-0.3826,-0.3593,-0.453,-0.2259,0.0693,0.3661,0.7268,1.0391,1.2563,1.4747,1.6491,1.7439,1.8495,1.9142,1.9121,1.9605,1.9895,1.9899,1.9836,1.9798,1.9783,1.9694,1.9643,1.9553,1.89,1.8295,1.77,1.5681,1.4315,1.3558,1.2279,1.1288,1.0528,1.0369,0.9877,0.9129,0.8105,0.8481,0.9614,0.8844,0.8646,0.8785,0.8619,0.8619,0.856,0.783,0.753,0.7343,0.6691,0.5923,0.4988,0.3597,0.2609,0.1504,-0.0614,-0.1758,-0.2313,-0.2313,-0.2397,-0.2454,-0.2454,-0.2454,-0.2454,-0.2454,-0.2982,-0.3456,-0.3511,-0.3483,-0.3649,-0.4377,-0.457,-0.4598,-0.4598,-0.468,-0.4736,-0.4736,-0.4736,-0.4708,-0.4625,-0.4598,-0.457,-0.4519,-0.457,-0.5144,-0.6394,-0.6561,-0.7182,-0.8507,-0.8646,-0.8374,-0.7723,-0.8342,-0.8348,-0.7696,-0.6303,-0.633,-0.7696,-0.7696,-0.8103,0.0,0.0,0.0,0.0,0.0,0.0,0.0,0.0,-0.0286,-0.1383,-0.2382,-0.3155,-0.337,-0.3943,-0.4453,-0.4647,-0.3472,-0.1435,0.1647,0.4863,0.8125,1.1316,1.4668,1.6985,1.7662,1.9091,1.9977,1.9973,2.0323,2.0508,2.0515,2.0049,1.9738,1.9643,1.9167,1.8635,1.8031,1.7907,1.7,1.5355,1.4917,1.3424,1.1007,1.0752,1.0185,0.9466,0.9227,0.9153,0.9129,0.8105,0.8203,0.8877,0.7557,0.775,0.8646,0.7477,0.7396,0.7803,0.7074,0.6416,0.5896,0.576,0.4827,0.3561,0.2672,0.1474,0.0083,-0.1533,-0.2508,-0.3093,-0.3093,-0.3566,-0.4042,-0.4042,-0.4042,-0.4042,-0.4042,-0.4153,-0.4267,-0.4294,-0.4267,-0.4322,-0.446,-0.4948,-0.53,-0.53,-0.5823,-0.6182,-0.6182,-0.6182,-0.5959,-0.5382,-0.53,-0.5081,-0.4546,-0.5003,-0.5433,-0.5706,-0.6285,-0.6723,-0.702,-0.7589,-0.7857,-0.7696,-0.783,-0.783,-0.7696,-0.6826,-0.6826,-0.7696,-0.7696,-0.8103,0.0,0.0,0.0,0.0,0.0,0.0,0.0,0.0,-0.0322,-0.1396,-0.1998,-0.2686,-0.3697,-0.3911,-0.4256,-0.5315,-0.4608,-0.335,-0.182,0.1996,0.5842,0.9104,1.3054,1.6006,1.7272,1.87,1.9544,1.9544,1.972,1.9807,1.9807,1.953,1.9237,1.8952,1.867,1.8035,1.6997,1.6634,1.5654,1.4101,1.3542,1.2278,1.0498,1.0143,0.9791,0.9439,0.8998,0.8749,0.8623,0.7585,0.7369,0.7643,0.6885,0.7047,0.7616,0.6885,0.6831,0.7047,0.6308,0.5814,0.5374,0.4635,0.392,0.3148,0.2009,0.0362,-0.1336,-0.248,-0.3345,-0.3901,-0.3901,-0.4211,-0.4491,-0.4491,-0.4491,-0.4491,-0.4491,-0.4491,-0.4491,-0.4491,-0.4552,-0.458,-0.4501,-0.4787,-0.5003,-0.5003,-0.5304,-0.5555,-0.5555,-0.5555,-0.5418,-0.503,-0.5003,-0.4903,-0.4625,-0.4834,-0.5175,-0.5621,-0.59,-0.6231,-0.6588,-0.6966,-0.7316,-0.7696,-0.8076,-0.8235,-0.8235,-0.7883,-0.7883,-0.8235,-0.8235,-0.8633,0.0,0.0,0.0,0.0,0.0,0.0,0.0,0.0,0.0,-0.1113,-0.1583,-0.2306,0.0,-0.3673,-0.3953,-0.5668,-0.5259,-0.4766,-0.496,-0.085,0.3406,0.6607,1.0799,1.4172,1.6148,1.7847,1.8743,1.8559,1.8788,1.889,1.8791,1.8531,1.8186,1.7828,1.7731,1.7082,1.5845,1.5245,1.4335,1.3165,1.2224,1.1375,1.0545,0.9961,0.9595,0.9394,0.8815,0.8334,0.7822,0.6795,0.6394,0.6367,0.6231,0.6372,0.6561,0.629,0.6285,0.6285,0.5574,0.5214,0.4909,0.3702,0.3148,0.2649,0.0976,-0.078,-0.2397,-0.3345,-0.4042,-0.4491,-0.4491,-0.4491,-0.4491,-0.4491,-0.4491,-0.4491,-0.4491,-0.4491,-0.4498,-0.4528,-0.4634,-0.4653,-0.4556,-0.4559,-0.458,-0.458,-0.4552,-0.4545,-0.4576,-0.4528,-0.4501,-0.4532,-0.4535,-0.4586,-0.468,-0.4634,-0.4869,-0.5538,-0.5434,-0.5667,-0.6367,-0.6669,-0.7155,-0.7889,-0.8507,-0.8804,-0.8804,-0.8804,-0.8804,-0.8804,-0.8804,-0.9159,0.0,0.0,0.0,0.0,0.0,0.0,0.0,0.0,-0.0037,-0.015,0.0,-0.2542,-0.1805,0.0,0.0,0.0,-0.4699,-0.504,-0.5983,-0.3188,0.0423,0.4392,0.8368,1.1638,1.3793,1.6762,1.8192,1.7292,1.831,1.8815,1.8396,1.7139,1.6325,1.608,1.562,1.4853,1.3745,1.3651,1.3063,1.1982,1.1873,1.1218,1.0174,0.9829,0.9218,0.8337,0.7982,0.744,0.6732,0.5937,0.5624,0.5569,0.4979,0.55,0.6453,0.5199,0.5113,0.5515,0.4842,0.4177,0.3591,0.337,0.2425,0.0949,-0.117,-0.2007,-0.2508,-0.3959,-0.4436,-0.4491,-0.4491,-0.4491,-0.4491,-0.4491,-0.4491,-0.4491,-0.4491,-0.4491,-0.4532,-0.4665,-0.4677,-0.4684,-0.4667,-0.4775,-0.4867,-0.4867,-0.4752,-0.4714,-0.485,-0.4658,-0.4542,-0.4679,-0.4663,-0.467,-0.4691,-0.4799,-0.4846,-0.4814,-0.4815,-0.505,-0.5605,-0.6875,-0.791,-0.8672,-0.8752,-0.8804,-0.8804,-0.8804,-0.8804,-0.8804,-0.8804,-0.9159,0.0,0.0,0.0,0.0,0.0,0.0,0.0,0.0,-0.0148,-0.064,0.0,0.0,0.0,0.0,0.0,0.0,-0.5501,-0.555,-0.5395,-0.3708,-0.1145,0.2452,0.6457,0.9734,1.1787,1.3212,1.3792,1.318,1.494,1.5887,1.5463,1.5525,1.5425,1.5053,1.4832,1.4164,1.2993,1.2809,1.2255,1.1336,1.1192,1.0767,1.0077,0.982,0.9141,0.8183,0.7835,0.7042,0.5928,0.5624,0.5273,0.4838,0.4095,0.4453,0.5308,0.4708,0.468,0.4869,0.4598,0.4015,0.3262,0.2313,0.1312,0.0196,-0.1145,-0.187,-0.2425,-0.3511,-0.4153,-0.4491,-0.4491,-0.4491,-0.4491,-0.4491,-0.4559,-0.4624,-0.4624,-0.4663,-0.4748,-0.4809,-0.4891,-0.4945,-0.4945,-0.4901,-0.4887,-0.4887,-0.4863,-0.4847,-0.4881,-0.4806,-0.4752,-0.4816,-0.4823,-0.4823,-0.4823,-0.4802,-0.4758,-0.4694,-0.5,-0.527,-0.5492,-0.6902,-0.7857,-0.8156,-0.8593,-0.8804,-0.8804,-0.8804,-0.8804,-0.8804,-0.8804,-0.9159,0.0,0.0,0.0,0.0,0.0,0.0,0.0,0.0,-0.0183,-0.0798,-0.1329,0.0,0.0,0.0,0.0,0.0,0.0,-0.5944,0.0,-0.3786,-0.2013,0.0877,0.4634,0.7438,0.854,0.9513,0.9821,0.9104,1.1353,1.2736,1.2657,1.3508,1.4007,1.4045,1.3944,1.3476,1.2609,1.227,1.1727,1.0989,1.0814,1.0426,0.9883,0.9599,0.8808,0.7624,0.7323,0.6442,0.5218,0.5218,0.4811,0.4125,0.3539,0.3539,0.3873,0.3873,0.3984,0.4153,0.3932,0.34,0.2565,0.1229,0.0448,-0.014,-0.0867,-0.1619,-0.2371,-0.3121,-0.3901,-0.4491,-0.4491,-0.4491,-0.4501,-0.4542,-0.4638,-0.4704,-0.4745,-0.484,-0.4901,-0.4938,-0.5029,-0.5113,-0.5186,-0.5108,-0.504,-0.504,-0.5003,-0.4961,-0.5033,-0.4969,-0.4904,-0.4941,-0.4945,-0.4945,-0.4945,-0.4874,-0.4864,-0.498,-0.5708,-0.6113,-0.6113,-0.7337,-0.7996,-0.7996,-0.8533,-0.8804,-0.8804,-0.8804,-0.8804,-0.8804,-0.8804,-0.9159,0.0,0.0,0.0,0.0,0.0,0.0,0.0,0.0,0.0,-0.0036,-0.1428,-0.2717,-0.2896,0.0,0.0,0.0,0.0,0.0,0.0,-0.3786,-0.2303,-0.0202,0.2826,0.4303,0.3249,0.6274,0.7639,0.6047,0.8435,1.0168,1.0758,1.0873,1.154,1.282,1.255,1.2358,1.2308,1.2056,1.1591,1.0995,1.0982,1.0399,0.9314,0.8968,0.7882,0.6263,0.5984,0.5353,0.4543,0.4543,0.4067,0.3345,0.3372,0.2926,0.2286,0.2286,0.273,0.3231,0.2508,0.1786,0.1062,0.028,0.0028,-0.014,-0.0867,-0.1619,-0.2371,-0.3178,-0.3929,-0.4491,-0.4491,-0.4491,-0.4528,-0.4679,-0.4687,-0.4731,-0.488,-0.4884,-0.4928,-0.5066,-0.5096,-0.5147,-0.5361,-0.5385,-0.5382,-0.5382,-0.522,-0.5179,-0.5361,-0.5098,-0.4941,-0.5076,-0.5093,-0.5093,-0.5093,-0.509,-0.5267,-0.5735,-0.6924,-0.7643,-0.7643,-0.8374,-0.8752,-0.8752,-0.8778,-0.8804,-0.8804,-0.8804,-0.8804,-0.8804,-0.8804,-0.9159,0.2044,0.2036,0.1878,0.1226,0.1076,0.0886,0.0177,0.0,-0.0176,-0.0743,-0.1361,-0.2165,-0.3501,0.0,0.0,0.0,0.0,0.0,0.0,0.0,-0.1091,-0.1164,0.0434,0.1116,0.0042,0.1009,0.17,0.1679,0.471,0.7153,0.8511,0.9983,1.1402,1.277,1.269,1.263,1.263,1.1657,1.091,1.0381,0.9558,0.8909,0.8436,0.8003,0.721,0.6173,0.5775,0.5195,0.446,0.3929,0.3539,0.3204,0.2259,0.2009,0.2202,0.2202,0.2371,0.2454,0.173,0.1312,0.0978,0.0252,0.0,-0.014,-0.0867,-0.1619,-0.2371,-0.3178,-0.3929,-0.4491,-0.4491,-0.4491,-0.4528,-0.4653,-0.4769,-0.488,-0.4999,-0.5138,-0.5259,-0.5274,-0.5284,-0.533,-0.5385,-0.5395,-0.5395,-0.5395,-0.5351,-0.5337,-0.5388,-0.5306,-0.5262,-0.5277,-0.5189,-0.5245,-0.5666,-0.5502,-0.5632,-0.629,-0.6737,-0.7182,-0.767,-0.8401,-0.8804,-0.8804,-0.8804,-0.8804,-0.8804,-0.8804,-0.8804,-0.8804,-0.8804,-0.8936,0.3025,0.3032,0.2879,0.2297,0.2149,0.1843,0.0814,0.0561,0.0316,-0.0637,-0.109,-0.17,-0.3036,0.0,0.0,0.0,0.0,0.0,0.0,-0.1089,-0.0558,-0.2094,-0.1318,-0.1267,-0.2821,-0.2549,-0.2256,-0.2085,0.1126,0.392,0.584,0.8458,1.0445,1.1735,1.2143,1.2143,1.1786,1.0824,1.0066,0.9574,0.8724,0.8053,0.7525,0.7145,0.6527,0.5731,0.5355,0.4949,0.4436,0.3622,0.3148,0.2788,0.1563,0.1229,0.1424,0.1424,0.1424,0.1341,0.0867,0.0699,0.0643,0.0168,-0.0168,-0.0476,-0.095,-0.1857,-0.2802,-0.3244,-0.3972,-0.4641,-0.4586,-0.461,-0.4663,-0.4813,-0.4921,-0.5002,-0.5179,-0.5324,-0.5395,-0.5395,-0.5395,-0.5395,-0.5395,-0.5395,-0.5395,-0.5395,-0.5395,-0.5395,-0.5395,-0.5395,-0.5395,-0.5395,-0.5223,-0.5206,-0.5501,-0.5811,-0.6165,-0.6566,-0.7177,-0.7749,-0.8217,-0.8813,-0.9165,-0.9272,-0.9172,-0.9118,-0.9118,-0.8984,-0.8884,-0.8804,-0.8804,-0.8804]}]]